[[{"header":{"parameterUnit":"m.s-1","parameterCategory":1,"la1":30.6,"la2":28.766,"lo1":-90.7593,"lo2":-88.6598,"dy":0.0162,"dx":0.0183,"nx":116,"ny":114,"refTime":"2023-08-13T06:00:00:Z","depth":0,"parameterNumber":2,"parameterNumberName":"U-component_of_WINDS"},"data":[0.0,0.0,0.0,0.0,0.0,0.0,0.0,0.0,0.0,0.0,0.0,0.0,0.0,0.0,0.0,0.0,0.0,0.0,0.0,0.0,0.0,0.0,0.0,0.0,0.0,0.0,0.0,0.0,0.0,0.0,0.0,0.0,0.0,0.0,0.0,0.0,0.0,0.0,0.0,0.0,0.0,0.0,0.0,0.0,0.0,0.0,0.0,0.0,0.0,0.0,0.0,0.0,0.0,0.0,0.0,0.0,0.0,0.0,0.0,0.0,0.0,0.0,0.0,0.0,0.0,0.0,0.0,0.0,0.0,0.0,0.0,0.0,0.0,0.0,0.0,0.0,0.0,0.0,0.0,0.0,0.0,0.0,0.0,0.0,0.0,0.0,0.0,0.0,0.0,0.0,0.0,0.0,0.0,0.0,0.0,0.0,0.0,0.0,0.0,0.0,0.0,0.0,0.0,0.0,0.0,0.0,0.0,0.0,0.0,0.0,0.0,0.0,0.0,0.0,0.0,0.0,0.0,0.0,0.0,0.0,0.0,0.0,0.0,0.0,0.0,0.0,0.0,0.0,0.0,0.0,0.0,0.0,0.0,0.0,0.0,0.0,0.0,0.0,0.0,0.0,0.0,0.0,0.0,0.0,0.0,0.0,0.0,0.0,0.0,0.0,0.0,0.0,0.0,0.0,0.0,0.0,0.0,0.0,0.0,0.0,0.0,0.0,0.0,0.0,0.0,0.0,0.0,0.0,0.0,0.0,0.0,0.0,0.0,0.0,0.0,0.0,0.0,0.0,0.0,0.0,0.0,0.0,0.0,0.0,0.0,0.0,0.0,0.0,0.0,0.0,0.0,0.0,0.0,0.0,0.0,0.0,0.0,0.0,0.0,0.0,0.0,0.0,0.0,0.0,0.0,0.0,0.0,0.0,0.0,0.0,0.0,0.0,0.0,0.0,0.0,0.0,0.0,0.0,0.0,0.0,0.0,0.0,0.0,0.0,0.0,0.0,0.0,0.0,0.0,0.0,0.0,0.0,0.0,0.0,0.0,0.0,0.0,0.0,0.0,0.0,0.0,0.0,0.0,0.0,0.0,0.0,0.0,0.0,0.0,0.0,0.0,0.0,0.0,0.0,0.0,0.0,0.0,0.0,0.0,0.0,0.0,0.0,0.0,0.0,0.0,0.0,0.0,0.0,0.0,0.0,0.0,0.0,0.0,0.0,0.0,0.0,0.0,0.0,0.0,0.0,0.0,0.0,0.0,0.0,0.0,0.0,0.0,0.0,0.0,0.0,0.0,0.0,0.0,0.0,0.0,0.0,0.0,0.0,0.0,0.0,0.0,0.0,0.0,0.0,0.0,0.0,0.0,0.0,0.0,0.0,0.0,0.0,0.0,0.0,0.0,0.0,0.0,0.0,0.0,0.0,0.0,0.0,0.0,0.0,0.0,0.0,0.0,0.0,0.0,0.0,0.0,0.0,0.0,0.0,0.0,0.0,0.0,0.0,0.0,0.0,0.0,0.0,0.0,0.0,0.0,0.0,0.0,0.0,0.0,0.0,0.0,0.0,0.0,0.0,0.0,0.0,0.0,0.0,0.0,0.0,0.0,0.0,0.0,0.0,0.0,0.0,0.0,0.0,0.0,0.0,0.0,0.0,0.0,0.0,0.0,0.0,0.0,0.0,0.0,0.0,0.0,0.0,0.0,0.0,0.0,0.0,0.0,0.0,0.0,0.0,0.0,0.0,0.0,0.0,0.0,0.0,0.0,0.0,0.0,0.0,0.0,0.0,0.0,0.0,0.0,0.0,0.0,0.0,0.0,0.0,0.0,0.0,0.0,0.0,0.0,0.0,0.0,0.0,0.0,0.0,0.0,0.0,0.0,0.0,0.0,0.0,0.0,0.0,0.0,0.0,0.0,0.0,0.0,0.0,0.0,0.0,0.0,0.0,0.0,0.0,0.0,0.0,0.0,0.0,0.0,0.0,0.0,0.0,0.0,0.0,0.0,0.0,0.0,0.0,0.0,0.0,0.0,0.0,0.0,0.0,0.0,0.0,0.0,0.0,0.0,0.0,0.0,0.0,0.0,0.0,0.0,0.0,0.0,0.0,0.0,0.0,0.0,0.0,0.0,0.0,0.0,0.0,0.0,0.0,0.0,0.0,0.0,0.0,0.0,0.0,0.0,0.0,0.0,0.0,0.0,0.0,0.0,0.0,0.0,0.0,0.0,0.0,0.0,0.0,0.0,0.0,0.0,0.0,0.0,0.0,0.0,0.0,0.0,0.0,0.0,0.0,0.0,0.0,0.0,0.0,0.0,0.0,0.0,0.0,0.0,0.0,0.0,0.0,0.0,0.0,0.0,0.0,0.0,0.0,0.0,0.0,0.0,0.0,0.0,0.0,0.0,0.0,0.0,0.0,0.0,0.0,0.0,0.0,0.0,0.0,0.0,0.0,0.0,0.0,0.0,0.0,0.0,0.0,0.0,0.0,0.0,0.0,0.0,0.0,0.0,0.0,0.0,0.0,0.0,0.0,0.0,0.0,0.0,0.0,0.0,0.0,0.0,0.0,0.0,0.0,0.0,0.0,0.0,0.0,0.0,0.0,0.0,0.0,0.0,0.0,0.0,0.0,0.0,0.0,0.0,0.0,0.0,0.0,0.0,0.0,0.0,0.0,0.0,0.0,0.0,0.0,0.0,0.0,0.0,0.0,0.0,0.0,0.0,0.0,0.0,0.0,0.0,0.0,0.0,0.0,0.0,0.0,0.0,0.0,0.0,0.0,0.0,0.0,0.0,0.0,0.0,0.0,0.0,0.0,0.0,0.0,0.0,0.0,0.0,0.0,0.0,0.0,0.0,0.0,0.0,0.0,0.0,0.0,0.0,0.0,0.0,0.0,0.0,0.0,0.0,0.0,0.0,0.0,0.0,0.0,0.0,0.0,0.0,0.0,0.0,0.0,0.0,0.0,0.0,0.0,0.0,0.0,0.0,0.0,0.0,0.0,0.0,0.0,0.0,0.0,0.0,0.0,0.0,0.0,0.0,0.0,0.0,0.0,0.0,0.0,0.0,0.0,0.0,0.0,0.0,0.0,0.0,0.0,0.0,0.0,0.0,0.0,0.0,0.0,0.0,0.0,0.0,0.0,0.0,0.0,0.0,0.0,0.0,0.0,0.0,0.0,0.0,0.0,0.0,0.0,0.0,0.0,0.0,0.0,0.0,0.0,0.0,0.0,0.0,0.0,0.0,0.0,0.0,0.0,0.0,0.0,0.0,0.0,0.0,0.0,0.0,0.0,0.0,0.0,0.0,0.0,0.0,0.0,0.0,0.0,0.0,0.0,0.0,0.0,0.0,0.0,0.0,0.0,0.0,0.0,0.0,0.0,0.0,0.0,0.0,0.0,0.0,0.0,0.0,0.0,0.0,0.0,0.0,0.0,0.0,0.0,0.0,0.0,0.0,0.0,0.0,0.0,0.0,0.0,0.0,0.0,0.0,0.0,0.0,0.0,0.0,0.0,0.0,0.0,0.0,0.0,0.0,0.0,0.0,0.0,0.0,0.0,0.0,0.0,0.0,0.0,0.0,0.0,0.0,0.0,0.0,0.0,0.0,0.0,0.0,0.0,0.0,0.0,0.0,0.0,0.0,0.0,0.0,0.0,0.0,0.0,0.0,0.0,0.0,0.0,0.0,0.0,0.0,0.0,0.0,0.0,0.0,0.0,0.0,0.0,0.0,0.0,0.0,0.0,0.0,0.0,0.0,0.0,0.0,0.0,0.0,0.0,0.0,0.0,0.0,0.0,0.0,0.0,0.0,0.0,0.0,0.0,0.0,0.0,0.0,0.0,0.0,0.0,0.0,0.0,0.0,0.0,0.0,0.0,0.0,0.0,0.0,0.0,0.0,0.0,0.0,0.0,0.0,0.0,0.0,0.0,0.0,0.0,0.0,0.0,0.0,0.0,0.0,0.0,0.0,0.0,0.0,0.0,0.0,0.0,0.0,0.0,0.0,0.0,0.0,0.0,0.0,0.0,0.0,0.0,0.0,0.0,0.0,0.0,0.0,0.0,0.0,0.0,0.0,0.0,0.0,0.0,0.0,0.0,0.0,0.0,0.0,0.0,0.0,0.0,0.0,0.0,0.0,0.0,0.0,0.0,0.0,0.0,0.0,0.0,0.0,0.0,0.0,0.0,0.0,0.0,0.0,0.0,0.0,0.0,0.0,0.0,0.0,0.0,0.0,0.0,0.0,0.0,0.0,0.0,0.0,0.0,0.0,0.0,0.0,0.0,0.0,0.0,0.0,0.0,0.0,0.0,0.0,0.0,0.0,0.0,0.0,0.0,0.0,0.0,0.0,0.0,0.0,0.0,0.0,0.0,0.0,0.0,0.0,0.0,0.0,0.0,0.0,0.0,0.0,0.0,0.0,0.0,0.0,0.0,0.0,0.0,0.0,0.0,0.0,0.0,0.0,0.0,0.0,0.0,0.0,0.0,0.0,0.0,0.0,0.0,0.0,0.0,0.0,0.0,0.0,0.0,0.0,0.0,0.0,0.0,0.0,0.0,0.0,0.0,0.0,0.0,0.0,0.0,0.0,0.0,0.0,0.0,0.0,0.0,0.0,0.0,0.0,0.0,0.0,0.0,0.0,0.0,0.0,0.0,0.0,0.0,0.0,0.0,0.0,0.0,0.0,0.0,0.0,0.0,0.0,0.0,0.0,0.0,0.0,0.0,0.0,0.0,0.0,0.0,0.0,0.0,0.0,0.0,0.0,0.0,0.0,0.0,0.0,0.0,0.0,0.0,0.0,0.0,0.0,0.0,0.0,0.0,0.0,0.0,0.0,0.0,0.0,0.0,0.0,0.0,0.0,0.0,0.0,0.0,0.0,0.0,0.0,0.0,0.0,0.0,0.0,0.0,0.0,0.0,0.0,0.0,0.0,0.0,0.0,0.0,0.0,0.0,0.0,0.0,0.0,0.0,0.0,0.0,0.0,0.0,0.0,0.0,0.0,0.0,0.0,0.0,0.0,0.0,0.0,0.0,0.0,0.0,0.0,0.0,0.0,0.0,0.0,0.0,0.0,0.0,0.0,0.0,0.0,0.0,0.0,0.0,0.0,0.0,0.0,0.0,0.0,0.0,0.0,0.0,0.0,0.0,0.0,0.0,0.0,0.0,0.0,0.0,0.0,0.0,0.0,0.0,0.0,0.0,0.0,0.0,0.0,0.0,0.0,0.0,0.0,0.0,0.0,0.0,0.0,0.0,0.0,0.0,0.0,0.0,0.0,0.0,0.0,0.0,0.0,0.0,0.0,0.0,0.0,0.0,0.0,0.0,0.0,0.0,0.0,0.0,0.0,0.0,0.0,0.0,0.0,0.0,0.0,0.0,0.0,0.0,0.0,0.0,0.0,0.0,0.0,0.0,0.0,0.0,0.0,0.0,0.0,0.0,0.0,0.0,0.0,0.0,0.0,0.0,0.0,0.0,0.0,0.0,0.0,0.0,0.0,0.0,0.0,0.0,0.0,0.0,0.0,0.0,0.0,0.0,0.0,0.0,0.0,0.0,0.0,0.0,0.0,0.0,0.0,0.0,0.0,0.0,0.0,0.0,0.0,0.0,0.0,0.0,0.0,0.0,0.0,0.0,0.0,0.0,0.0,0.0,0.0,0.0,0.0,0.0,0.0,0.0,0.0,0.0,0.0,0.0,0.0,0.0,0.0,0.0,0.0,0.0,0.0,0.0,0.0,0.0,0.0,0.0,0.0,0.0,0.0,0.0,0.0,0.0,0.0,0.0,0.0,0.0,0.0,0.0,0.0,0.0,0.0,0.0,0.0,0.0,0.0,0.0,0.0,0.0,0.0,0.0,0.0,0.0,0.0,0.0,0.0,0.0,0.0,0.0,0.0,0.0,0.0,0.0,0.0,0.0,0.0,0.0,0.0,0.0,0.0,0.0,0.0,0.0,0.0,0.0,0.0,0.0,0.0,0.0,0.0,0.0,0.0,0.0,0.0,0.0,0.0,0.0,0.0,0.0,0.0,0.0,0.0,0.0,0.0,0.0,0.0,0.0,0.0,0.0,0.0,0.0,0.0,0.0,0.0,0.0,0.0,0.0,0.0,0.0,-1.2107,-1.0479,0.0,0.0,0.0,0.0,0.0,0.0,0.0,0.0,0.0,0.0,0.0,0.0,0.0,0.0,0.0,0.0,0.0,0.0,0.0,0.0,0.0,0.0,0.0,0.0,0.0,0.0,0.0,0.0,0.0,0.0,0.0,0.0,0.0,0.0,0.0,0.0,0.0,0.0,0.0,0.0,0.0,0.0,0.0,0.0,0.0,0.0,0.0,0.0,0.0,0.0,0.0,0.0,0.0,0.0,0.0,0.0,0.0,0.0,0.0,0.0,0.0,0.0,0.0,0.0,0.0,0.0,0.0,0.0,0.0,0.0,0.0,0.0,0.0,0.0,0.0,0.0,0.0,0.0,0.0,0.0,0.0,0.0,0.0,0.0,0.0,0.0,0.0,0.0,0.0,0.0,0.0,0.0,0.0,0.0,0.0,0.0,0.0,0.0,0.0,0.0,0.0,0.0,0.0,0.0,0.0,0.0,0.0,0.0,0.0,0.0,0.0,0.0,0.0,0.0,-1.4897,-1.3791,0.0,0.0,0.0,0.0,0.0,0.0,0.0,0.0,0.0,0.0,0.0,0.0,0.0,0.0,0.0,0.0,0.0,0.0,0.0,0.0,0.0,0.0,0.0,0.0,0.0,0.0,0.0,0.0,0.0,0.0,0.0,0.0,0.0,0.0,0.0,0.0,0.0,0.0,0.0,0.0,0.0,0.0,0.0,0.0,0.0,0.0,0.0,0.0,0.0,0.0,0.0,0.0,0.0,0.0,0.0,0.0,0.0,0.0,0.0,0.0,0.0,0.0,0.0,0.0,0.0,0.0,0.0,0.0,0.0,0.0,0.0,0.0,0.0,0.0,0.0,0.0,0.0,0.0,0.0,0.0,0.0,0.0,0.0,0.0,0.0,0.0,0.0,0.0,0.0,0.0,0.0,0.0,0.0,0.0,0.0,0.0,0.0,0.0,0.0,0.0,0.0,0.0,0.0,0.0,0.0,0.0,0.0,0.0,-1.4408,-1.4886,-1.5234,-1.759,-1.8847,-1.9264,-1.8589,-1.819,-1.7908,-1.5432,0.0,0.0,0.0,0.0,0.0,0.0,0.0,0.0,0.0,0.0,0.0,0.0,0.0,0.0,0.0,0.0,0.0,0.0,0.0,0.0,0.0,0.0,0.0,0.0,0.0,0.0,0.0,0.0,0.0,0.0,0.0,0.0,0.0,0.0,0.0,0.0,0.0,0.0,-0.5691,-0.5979,-0.6227,-0.641,0.0,0.0,0.0,0.0,0.0,0.0,0.0,0.0,0.0,0.0,0.0,0.0,0.0,0.0,0.0,0.0,0.0,0.0,0.0,0.0,0.0,0.0,0.0,0.0,0.0,0.0,0.0,0.0,0.0,0.0,0.0,0.0,0.0,0.0,0.0,0.0,0.0,0.0,0.0,0.0,0.0,0.0,0.0,0.0,-0.982,-0.9903,0.0,0.0,0.0,0.0,0.0,0.0,0.0,0.0,0.0,0.0,0.0,0.0,0.0,-1.3184,-1.3737,-1.5127,-1.5768,-1.5956,-1.8256,-1.8773,-1.7694,-2.1808,-2.3289,-2.2828,-2.4748,0.0,-1.9998,-1.9146,0.0,0.0,0.0,0.0,0.0,0.0,0.0,0.0,0.0,0.0,0.0,0.0,0.0,0.0,0.0,0.0,0.0,0.0,0.0,0.0,0.0,0.0,0.0,0.0,0.0,0.0,0.0,0.0,0.0,0.0,0.0,0.0,0.0,0.0,0.0,0.0,-0.5376,-0.5891,-0.6441,-0.6654,-0.6915,-0.7197,-0.6924,-0.6519,-0.6096,-0.5835,0.0,0.0,0.0,0.0,0.0,0.0,0.0,0.0,0.0,0.0,0.0,0.0,0.0,0.0,0.0,0.0,0.0,0.0,0.0,0.0,0.0,0.0,0.0,0.0,0.0,0.0,0.0,0.0,0.0,0.0,0.0,0.0,0.0,0.0,0.0,0.0,0.0,0.0,0.0,-0.9504,-1.0566,-1.0397,-1.0808,-1.0725,0.0,0.0,0.0,0.0,0.0,0.0,0.0,0.0,0.0,-1.4214,-1.4892,-1.5417,-1.6035,-1.6992,-1.7669,-1.8023,-1.9381,-1.9972,-1.9891,-2.3901,-2.567,-2.5661,-2.8688,-2.8542,-2.6092,-2.3112,-2.0788,-1.903,0.0,0.0,0.0,0.0,-1.6163,-1.6632,0.0,0.0,0.0,0.0,0.0,0.0,0.0,0.0,0.0,0.0,0.0,0.0,0.0,0.0,0.0,-0.5087,0.0,0.0,0.0,0.0,0.0,0.0,0.0,0.0,0.0,0.0,0.0,0.0,-0.5979,-0.6491,-0.716,-0.7343,-0.7795,-0.8525,-0.8681,-0.8097,-0.6963,-0.6798,-0.6146,0.0,0.0,0.0,0.0,0.0,0.0,0.0,0.0,0.0,0.0,0.0,0.0,0.0,0.0,0.0,0.0,0.0,0.0,0.0,0.0,0.0,0.0,0.0,0.0,0.0,0.0,0.0,0.0,0.0,0.0,0.0,0.0,0.0,0.0,0.0,0.0,0.0,0.0,-1.0268,-1.1134,-1.0742,-1.1537,-1.1697,0.0,0.0,0.0,0.0,0.0,0.0,-1.3915,-1.4294,-1.5073,-1.6507,-1.7132,-1.7658,-1.8263,-1.8905,-1.9419,-1.9927,-2.0221,-2.0702,-2.1464,-2.4566,-2.6457,-2.7217,-3.0254,-3.1426,-3.0947,-2.6731,-2.4231,-2.2916,-2.1051,-1.9887,-1.9239,-1.9782,-1.9991,-2.0481,0.0,0.0,0.0,0.0,0.0,0.0,0.0,0.0,0.0,0.0,0.0,0.0,0.0,0.0,-0.5406,-0.6118,-0.6081,-0.6064,0.0,0.0,0.0,0.0,0.0,0.0,0.0,0.0,0.0,-0.5789,-0.6651,-0.7312,-0.7773,-0.8072,-0.9268,-1.1129,-1.1211,-1.0217,-0.8326,-0.7461,-0.726,-0.7307,0.0,0.0,0.0,0.0,0.0,0.0,0.0,0.0,0.0,0.0,0.0,0.0,0.0,0.0,0.0,0.0,0.0,0.0,0.0,0.0,0.0,0.0,0.0,0.0,0.0,0.0,0.0,0.0,0.0,0.0,0.0,0.0,0.0,0.0,0.0,0.0,0.0,0.0,0.0,-1.1057,-1.2719,0.0,0.0,0.0,0.0,-1.3366,-1.3964,-1.4899,-1.6032,-1.6708,-1.74,-1.828,-1.8922,-1.953,-2.0059,-2.0708,-2.1136,-2.145,-2.1737,-2.1897,-2.2069,-2.3746,-2.5417,-2.7217,-2.8852,-3.0596,-3.1934,-2.9658,-2.7672,-2.6087,-2.4214,-2.2965,-2.2417,-2.3157,-2.3653,-2.4245,0.0,0.0,0.0,0.0,0.0,0.0,0.0,0.0,0.0,0.0,0.0,0.0,0.0,-0.5705,-0.6471,-0.6936,-0.7278,-0.7329,-0.6997,0.0,0.0,0.0,0.0,0.0,0.0,0.0,-0.602,-0.6959,-0.737,-0.7851,-0.8394,-0.8503,-0.9649,-1.1798,-1.1755,-1.2214,-1.2758,-1.1777,-1.0821,-0.9657,-0.7008,-0.5338,0.0,0.0,0.0,0.0,0.0,0.0,0.0,0.0,0.0,0.0,0.0,0.0,0.0,0.0,0.0,0.0,0.0,0.0,0.0,0.0,0.0,0.0,0.0,0.0,0.0,0.0,0.0,0.0,0.0,0.0,0.0,0.0,0.0,0.0,0.0,0.0,0.0,-1.3255,-1.493,0.0,-1.4614,-1.4969,-1.5231,-1.5365,-1.6088,-1.6884,-1.7931,-1.8566,-1.9259,-2.0206,-2.0576,-2.0955,-2.1363,-2.157,-2.1824,-2.2111,-2.2024,-2.2291,-2.2839,-2.435,-2.5657,-2.6718,-2.8221,-2.9301,-2.9872,-2.9815,-2.9451,-2.8809,-2.7515,-2.6722,-2.6285,-2.6559,-2.6873,-2.7362,0.0,0.0,0.0,0.0,0.0,0.0,0.0,0.0,0.0,0.0,0.0,-0.4843,-0.525,-0.6363,-0.7258,-0.7706,-0.8069,-0.8058,-0.7553,0.0,0.0,0.0,0.0,0.0,0.0,-0.5979,-0.6647,-0.76,-0.8528,-0.9186,-0.9723,-1.0378,-1.1798,-1.3922,-1.3991,-1.5095,-1.6816,-1.6224,-1.4696,-1.2678,-0.9889,-0.8359,-0.7525,0.0,0.0,0.0,0.0,0.0,0.0,0.0,0.0,0.0,0.0,0.0,0.0,0.0,0.0,0.0,0.0,0.0,0.0,0.0,0.0,0.0,0.0,0.0,0.0,0.0,0.0,0.0,0.0,0.0,0.0,0.0,0.0,0.0,0.0,0.0,-1.4355,-1.4773,-1.6564,-1.749,-1.666,-1.7134,-1.7495,-1.759,-1.831,-1.9036,-1.9776,-2.032,-2.0895,-2.149,-2.1826,-2.2138,-2.2438,-2.2438,-2.2585,-2.2873,-2.2679,-2.2899,-2.3467,-2.4475,-2.5411,-2.6481,-2.7489,-2.814,-2.8659,-2.9232,-2.9698,-3.0125,-2.9889,-2.9629,-2.9365,-2.9219,-2.9346,-2.956,0.0,0.0,0.0,0.0,0.0,0.0,0.0,0.0,0.0,0.0,-0.4331,-0.5057,-0.5939,-0.6851,-0.7695,-0.8431,-0.8353,-0.8136,-0.7838,-0.6692,0.0,0.0,0.0,0.0,-0.5637,-0.6508,-0.718,-0.7729,-0.9994,-1.1354,-1.1957,-1.3714,-1.5691,-1.7637,-1.7887,-1.8747,-2.0261,-2.0261,-1.8777,-1.6124,-1.387,-1.3442,-1.3492,0.0,0.0,0.0,0.0,0.0,0.0,0.0,0.0,0.0,0.0,0.0,0.0,0.0,0.0,0.0,0.0,0.0,0.0,0.0,0.0,0.0,0.0,0.0,0.0,0.0,0.0,0.0,0.0,0.0,0.0,0.0,0.0,0.0,-1.2432,-1.4222,-1.5537,-1.5581,-1.7601,-1.8722,-1.8192,-1.9175,-2.0029,-2.0185,-2.0853,-2.1312,-2.1564,-2.2192,-2.2433,-2.2452,-2.2732,-2.3033,-2.334,-2.334,-2.3487,-2.3788,-2.3774,-2.3781,-2.3794,-2.3788,-2.4748,-2.6386,-2.6364,-2.7139,-2.8423,-2.8055,-2.874,-3.0131,-3.1102,-3.1394,-3.1465,-3.1045,-3.0889,-3.083,0.0,0.0,0.0,0.0,0.0,0.0,0.0,0.0,0.0,0.0,-0.4697,-0.5559,-0.6135,-0.7288,-0.8238,-0.8767,-0.8377,-0.8065,-0.798,0.0,0.0,0.0,0.0,0.0,-0.7027,-0.739,-0.8319,-1.0038,-1.0835,-1.2054,-1.3739,-1.4366,-1.591,-1.8161,-1.8232,-1.9131,-2.0869,-2.0869,-2.0282,-1.9376,-1.8097,-1.6892,-1.5798,0.0,0.0,0.0,0.0,0.0,0.0,0.0,0.0,0.0,0.0,0.0,0.0,0.0,0.0,0.0,0.0,0.0,0.0,0.0,0.0,0.0,0.0,0.0,0.0,0.0,0.0,0.0,0.0,0.0,0.0,0.0,0.0,-1.5014,-1.4641,-1.6316,-1.7951,-1.8767,-2.0274,-2.1018,-2.0939,-2.1175,-2.1443,-2.1451,-2.1782,-2.2043,-2.2238,-2.271,-2.3014,-2.308,-2.3367,-2.3561,-2.3647,-2.3647,-2.3794,-2.4082,-2.3875,-2.3988,-2.4389,-2.4182,-2.4478,-2.507,-2.4637,-2.4679,-2.5107,-2.5892,-2.6385,-2.699,-2.8933,-3.0389,-3.1465,-3.1045,-3.0889,-3.0869,0.0,0.0,0.0,0.0,0.0,0.0,0.0,0.0,0.0,0.0,-0.4823,-0.5711,-0.6207,-0.7441,-0.8279,-0.854,-0.8184,-0.776,-0.7322,0.0,0.0,0.0,0.0,-0.724,-0.8604,-0.8992,-1.0125,-1.2,-1.3032,-1.4308,-1.5735,-1.6691,-1.7952,-1.9732,-1.9732,-2.0412,-2.1476,-2.1476,-2.1383,-2.1142,-2.0436,-1.9239,-1.7795,-1.7654,-1.5629,-1.2903,-1.3898,-1.493,-1.5347,-1.266,0.0,0.0,0.0,0.0,0.0,0.0,0.0,0.0,0.0,0.0,0.0,0.0,0.0,0.0,0.0,0.0,0.0,0.0,0.0,0.0,0.0,0.0,0.0,0.0,-1.6231,-1.764,-1.7801,-1.882,-1.99,-2.0671,-2.1766,-2.241,-2.2336,-2.2516,-2.2557,-2.2782,-2.2848,-2.3007,-2.2935,-2.3379,-2.3694,-2.3694,-2.3981,-2.4135,-2.4135,-2.4135,-2.4215,-2.4382,-2.4215,-2.4309,-2.4629,-2.4462,-2.4476,-2.4609,-2.4155,-2.3881,-2.387,-2.5136,-2.5958,-2.6416,0.0,0.0,0.0,0.0,-3.0889,-3.0889,0.0,0.0,0.0,0.0,0.0,0.0,0.0,0.0,0.0,0.0,0.0,-0.5606,-0.6155,-0.7212,-0.7936,-0.7984,-0.7787,-0.7255,0.0,0.0,0.0,-0.6695,-0.7091,-0.834,-1.036,-1.1088,-1.2182,-1.3872,-1.5789,-1.7107,-1.7853,-1.951,-2.0735,-2.155,-2.155,-2.1717,-2.1984,-2.2017,-2.2031,-2.2004,-2.1346,-2.0433,-1.949,-1.8442,-1.7311,-1.6659,-1.8669,-1.8362,-1.6831,-1.5893,0.0,0.0,0.0,0.0,0.0,0.0,0.0,0.0,0.0,0.0,0.0,0.0,0.0,0.0,0.0,0.0,0.0,0.0,0.0,0.0,0.0,0.0,0.0,0.0,-1.8338,-2.0046,-2.1203,-2.143,-2.148,-2.1785,-2.2558,-2.3057,-2.304,-2.3209,-2.3426,-2.3834,-2.3811,-2.3838,-2.3828,0.0,0.0,0.0,0.0,-2.4669,-2.4636,-2.4669,-2.4669,-2.4636,-2.4636,-2.4636,-2.4636,-2.4636,-2.4616,-2.4569,-2.4282,-2.3988,-2.3836,-2.5149,-2.61,-2.6882,-2.7427,-2.839,-2.976,-3.0552,-3.0889,-3.0889,0.0,0.0,0.0,0.0,0.0,0.0,0.0,0.0,0.0,-0.388,-0.4632,-0.5302,-0.5798,-0.6572,-0.7292,-0.7651,-0.7099,-0.6542,0.0,0.0,-0.7338,-0.9246,-0.9647,-1.0896,-1.3091,-1.3442,-1.4309,-1.5812,-1.6615,-1.7898,-1.9443,-2.0219,-2.0935,-2.155,-2.155,-2.1704,-2.1707,-2.1779,-2.1877,-2.1903,-2.1321,-2.1011,-2.0742,-2.0496,-2.0315,-1.9977,-1.9592,-1.9198,-1.8721,-1.8044,-1.6988,-1.5635,-1.4716,0.0,0.0,0.0,0.0,0.0,0.0,0.0,0.0,0.0,0.0,0.0,0.0,0.0,0.0,0.0,0.0,0.0,0.0,0.0,0.0,-1.8557,-2.0364,-2.1971,-2.3071,-2.3447,-2.3482,-2.3012,-2.3332,-2.3559,-2.3555,-2.3676,-2.379,-2.3864,-2.3951,-2.4155,-2.4122,-2.4396,-2.4556,-2.4556,-2.4843,-2.4877,-2.4636,-2.4877,-2.4877,-2.4636,-2.4636,0.0,-2.4636,-2.4636,-2.4509,-2.4269,-2.3981,-2.3688,-2.3387,-2.3481,-2.3396,-2.3579,-2.8659,-3.0682,-3.0623,-3.083,-3.0889,-3.0889,0.0,0.0,0.0,0.0,0.0,0.0,0.0,0.0,0.0,0.0,-0.42,-0.4565,-0.4641,-0.5523,-0.6155,-0.6054,-0.6282,0.0,0.0,-0.8121,-0.9545,-1.1235,-1.1909,-1.3194,-1.5094,-1.5338,-1.6148,-1.7654,-1.8222,-1.9002,-2.0027,-2.0468,-2.1069,-2.177,-2.177,-2.1952,-2.2354,-2.2499,-2.2651,-2.2928,-2.2618,-2.2284,-2.1978,-2.1961,-2.1609,-2.0967,-2.0075,-1.9665,-1.9293,-1.8906,-1.8204,-1.7442,-1.6553,-1.5458,-1.4242,0.0,0.0,0.0,0.0,0.0,0.0,0.0,0.0,0.0,0.0,0.0,0.0,0.0,0.0,-1.5798,0.0,0.0,-1.9804,-2.1087,-2.2493,-2.3546,-2.4165,-2.4521,-2.4462,-2.3812,-2.3944,-2.3988,-2.3927,-2.3979,-2.4061,-2.4196,-2.4382,-2.4422,-2.4422,-2.4556,-2.4636,-2.4636,-2.4783,-2.4857,-2.4857,-2.4857,-2.4857,-2.4857,-2.471,-2.4636,-2.4636,-2.4482,-2.4342,-2.4182,-2.3741,-2.346,-2.328,-2.3593,-2.4348,-2.5889,-2.8747,-2.9333,-2.8673,-3.0274,-3.0889,-3.0889,0.0,0.0,0.0,0.0,0.0,0.0,0.0,0.0,0.0,0.0,-0.3763,-0.3855,-0.3613,-0.4547,-0.4982,0.0,0.0,0.0,0.0,-0.9832,-1.1896,-1.3116,-1.4035,-1.5183,-1.6903,-1.7116,-1.7817,-1.9011,-1.9593,-2.0,-2.0241,-2.0655,-2.1283,-2.2071,-2.2131,-2.247,-2.3093,-2.3313,-2.3607,-2.3917,-2.3897,-2.3588,-2.2922,-2.2855,-2.2182,-2.1042,-2.0345,-1.9509,-1.8781,-1.8924,-1.8738,-1.835,-1.8029,-1.7528,-1.6667,-1.4723,-1.4162,0.0,0.0,0.0,0.0,0.0,0.0,0.0,0.0,0.0,-1.471,-1.5471,-1.6754,-1.8096,-1.9299,-2.0722,-2.2069,-2.3295,-2.415,-2.4764,-2.4804,-2.485,-2.4829,-2.4407,-2.4301,-2.4301,-2.4301,-2.4301,-2.4314,-2.4636,-2.4636,-2.4636,-2.4636,-2.4636,-2.4636,-2.4636,-2.469,-2.481,-2.499,-2.4816,-2.4816,-2.499,-2.475,-2.4609,-2.4543,-2.4309,-2.4142,-2.4001,-2.3467,-2.3339,-2.3632,-2.4122,-2.6103,-2.8594,-2.8451,-2.7563,-2.6832,-2.9776,-3.0889,-3.0889,0.0,0.0,0.0,0.0,0.0,0.0,0.0,0.0,0.0,0.0,0.0,0.0,0.0,0.0,0.0,0.0,0.0,0.0,-0.5999,-1.0449,-1.3868,-1.5235,-1.6063,-1.731,-1.9021,-1.9061,-1.9196,-1.9319,-1.99,-2.0201,-2.0254,-2.1076,-2.1784,-2.2385,-2.2645,-2.3106,-2.3417,-2.3667,-2.3981,-2.4446,-2.4507,-2.3801,-2.2941,-2.2923,-2.2164,-2.1,-1.9931,-1.8083,-1.6534,-1.8633,-1.8771,-1.8223,-1.8945,-1.8764,-1.7983,-1.6433,0.0,-1.4188,-1.2976,-1.2721,-1.2936,-1.3327,-1.3667,-1.4643,0.0,0.0,-1.7923,-1.9305,-2.0555,-2.145,-2.1617,-2.2859,-2.4018,-2.4351,-2.479,-2.5194,-2.5352,-2.4999,-2.4621,-2.4495,-2.4629,-2.4629,-2.4629,-2.4629,-2.4629,-2.4636,-2.4636,-2.4636,-2.4636,-2.4636,-2.4636,-2.4636,-2.489,-2.4923,-2.469,-2.491,-2.491,-2.4683,-2.4649,-2.4502,-2.4249,-2.4215,-2.3921,-2.3407,-2.3066,-2.3562,-2.4724,-2.4449,-2.5342,-2.6851,-2.7961,-2.8298,-2.8417,-3.0265,-3.0889,-3.0889,0.0,0.0,0.0,0.0,0.0,0.0,0.0,0.0,0.0,0.0,0.0,0.0,0.0,0.0,0.0,0.0,0.0,0.0,-0.8494,-1.2312,-1.5102,-1.6425,-1.7448,-1.8389,-1.9105,-1.9279,-1.9452,-1.9619,-2.0034,-2.0321,-2.0501,-2.1042,-2.1516,-2.1931,-2.2218,-2.2828,-2.3566,-2.3567,-2.4039,-2.4575,-2.4534,-2.3916,-2.2959,-2.2951,-2.2107,-2.0815,-1.8587,-1.6794,0.0,0.0,-1.7829,-1.7709,-1.8771,-1.8464,-1.7522,-1.6553,-1.5678,0.0,-1.4629,-1.4416,0.0,0.0,-1.6299,-1.7348,-1.9045,-1.9766,-2.0347,-2.1309,-2.2452,-2.338,-2.3721,-2.4536,-2.5211,0.0,-2.5577,-2.5518,-2.51,-2.4636,-2.4201,-2.3615,-2.3551,-2.3694,-2.4068,-2.4242,-2.4262,-2.4142,-2.4442,-2.4563,-2.4396,-2.4549,-2.4636,-2.4636,-2.4756,-2.4843,-2.4897,-2.485,-2.485,-2.489,-2.4716,-2.4482,-2.4195,-2.4028,-2.3534,-2.2799,-2.2839,-2.3419,-2.4342,-2.4394,-2.5605,-2.7661,-2.8233,-2.9039,-2.9903,-3.0645,-3.0889,-3.0889,0.0,0.0,0.0,0.0,0.0,0.0,0.0,0.0,0.0,0.0,0.0,0.0,0.0,0.0,0.0,0.0,0.0,0.0,0.0,-1.2926,-1.5365,-1.6734,-1.8003,-1.8718,-1.8804,-1.9092,-1.9386,-1.9679,-1.9967,-2.0227,-2.0448,-2.0902,-2.1269,-2.157,-2.1937,-2.268,-2.3495,-2.3569,-2.3919,-2.4505,-2.4275,-2.3625,-2.2855,-2.2549,-2.1614,-2.0178,-1.7091,-1.506,0.0,0.0,-1.6199,-1.6273,-1.7455,-1.7355,-1.6687,-1.6179,-1.5558,-1.5097,-1.5391,0.0,0.0,-1.7321,-1.8711,-1.9947,-2.0615,-2.1617,-2.2519,-2.2946,-2.3788,-2.4576,-2.4867,-2.5398,-2.563,-2.5596,-2.5503,-2.5277,-2.4628,-2.4183,-2.3584,-2.2883,-2.2602,-2.2758,-2.3084,-2.3688,-2.3808,-2.3661,-2.4115,-2.4302,-2.4095,-2.4356,-2.4516,-2.4516,-2.4596,-2.4743,-2.4957,-2.4743,-2.4703,-2.4836,-2.4623,-2.4322,-2.3948,-2.3574,-2.304,-2.2425,-2.2559,-2.3377,-2.4684,-2.493,-2.6554,-2.9039,-2.9039,-2.9776,-3.0889,-3.0889,-3.0889,-3.0889,0.0,0.0,0.0,0.0,0.0,0.0,0.0,0.0,0.0,0.0,0.0,0.0,0.0,0.0,0.0,0.0,0.0,0.0,0.0,-1.1552,-1.4349,-1.5805,-1.7281,-1.821,-1.8497,-1.8784,-1.9085,-1.9379,-1.9673,-1.982,-1.9846,-2.0708,-2.1269,-2.1577,-2.2151,-2.2734,-2.3482,-2.3653,-2.4109,-2.4465,-2.3375,-2.2869,-2.2807,-2.1596,-2.0493,-1.895,-1.5445,0.0,0.0,0.0,-1.3801,-1.3534,-1.4716,-1.5444,0.0,-1.5511,-1.481,0.0,0.0,0.0,-1.7021,-1.8504,-2.0394,-2.2124,-2.302,-2.3908,-2.4549,-2.4563,-2.4823,-2.492,-2.4685,-2.456,-2.4628,-2.4667,-2.4433,-2.4233,-2.4291,-2.3486,-2.2779,-2.2488,-2.1955,-2.1673,0.0,-2.2653,-2.3347,-2.334,-2.3621,-2.3794,-2.3788,-2.4062,-2.4215,-2.4215,-2.4489,-2.4636,-2.4649,-2.4643,-2.4496,-2.4229,-2.4222,-2.3915,-2.3333,-2.2732,-2.2445,-2.2405,-2.2131,-2.3601,-2.6389,-2.6397,-2.8164,-3.0772,-3.0772,-3.0889,-3.0889,-3.0889,-3.0889,-3.0889,0.0,0.0,0.0,0.0,0.0,0.0,0.0,0.0,0.0,0.0,0.0,0.0,0.0,0.0,0.0,0.0,0.0,0.0,0.0,-1.0684,-1.3153,-1.4055,-1.5879,-1.7007,-1.7301,-1.7989,-1.849,-1.8784,-1.9078,-1.9219,-1.9232,-1.9726,-2.0107,-2.0408,-2.0795,-2.1142,-2.1707,-2.2353,-2.2655,-2.2827,-2.2067,-2.1721,-2.1626,-2.0395,-1.6795,-1.2245,0.0,0.0,0.0,0.0,0.0,0.0,-1.3186,0.0,0.0,-1.3554,-1.3988,-1.4696,0.0,0.0,-1.8918,-2.0775,-2.2211,-2.3454,-2.4529,-2.5157,-2.5404,-2.501,-2.4389,-2.3622,-2.3053,-2.2509,-2.2313,-2.2543,-2.3042,-2.3262,-2.3038,-2.2955,-2.2447,-2.1399,-2.1464,0.0,0.0,0.0,0.0,-2.2712,-2.3193,-2.3474,-2.3474,-2.3935,-2.4202,-2.4202,-2.4482,-2.4636,-2.4636,-2.4636,-2.4489,-2.4202,-2.3808,-2.3407,-2.3006,-2.2599,-2.2855,-2.3372,-2.2456,-2.4224,-2.7652,-2.6784,-2.8164,-3.0889,-3.0889,-3.0889,-3.0889,-3.0889,-3.0889,-3.0889,0.0,0.0,0.0,0.0,0.0,0.0,0.0,0.0,0.0,0.0,0.0,0.0,0.0,0.0,0.0,0.0,0.0,0.0,0.0,0.0,-1.1523,-1.2231,-1.3828,-1.4836,-1.5124,-1.5805,-1.6299,-1.6607,-1.7108,-1.7348,-1.7361,-1.7976,-1.8417,-1.8711,-1.8998,-1.9482,-2.0135,-2.1033,-2.1263,-2.1078,-2.1141,-2.0318,-1.9084,-1.793,-1.3845,0.0,0.0,0.0,0.0,0.0,0.0,0.0,0.0,-1.2217,-1.2485,-1.3173,-1.4142,-1.5504,0.0,-1.9319,-2.0668,-2.2826,-2.3968,-2.475,-2.5498,-2.5658,-2.5384,-2.4476,-2.3327,-2.216,-2.1133,-2.0309,-2.0021,-2.0513,-2.1145,-2.1622,-2.203,-2.2047,-2.1894,-2.1149,-2.1149,-2.1108,0.0,0.0,0.0,-2.2091,-2.2766,-2.316,-2.316,-2.3728,-2.4095,-2.4202,-2.4482,-2.4636,-2.4636,-2.4636,-2.4436,-2.4042,-2.3561,-2.3106,-2.2692,-2.2398,-2.2897,-2.3933,-2.3021,-2.4812,-2.8316,-2.7453,-2.8652,-3.0889,-3.0889,-3.0889,-3.0889,-3.0889,-3.0889,-3.0889,0.0,0.0,0.0,0.0,0.0,0.0,0.0,0.0,0.0,0.0,0.0,0.0,0.0,0.0,0.0,0.0,0.0,0.0,0.0,0.0,0.0,-1.0401,-1.1316,-1.1937,-1.2231,-1.2614,-1.2846,-1.314,-1.3995,-1.4402,-1.4409,-1.5538,-1.6226,-1.6513,-1.68,-1.7599,-1.8645,-1.965,-1.9813,-1.9469,-2.0104,-1.8343,-1.5202,-1.4243,0.0,0.0,0.0,0.0,0.0,0.0,0.0,0.0,0.0,0.0,-1.344,-1.4376,-1.5297,-1.6647,-1.9553,-2.1015,-2.2265,-2.4556,-2.5531,-2.5932,-2.5919,-2.5418,-2.4543,-2.304,-2.1741,-2.0441,0.0,0.0,-1.7729,-1.8638,-1.8912,-1.9615,-2.1308,-2.1091,-2.0972,0.0,0.0,0.0,0.0,0.0,0.0,-2.1623,0.0,-2.2879,-2.2906,-2.3467,-2.3921,-2.4195,-2.4482,-2.4636,-2.4636,-2.4609,-2.4315,-2.3768,-2.3454,-2.2993,-2.2405,-2.2118,-2.2716,-2.4037,-2.3591,-2.5391,-2.8417,-2.8298,-2.9285,-3.0889,-3.0889,-3.0889,-3.0889,-3.0889,-3.0889,-3.0889,0.0,0.0,0.0,0.0,0.0,0.0,0.0,0.0,0.0,0.0,0.0,0.0,0.0,0.0,0.0,0.0,0.0,0.0,0.0,0.0,0.0,0.0,0.0,0.0,0.0,0.0,0.0,0.0,0.0,-1.2759,-1.2559,-1.3073,-1.3474,-1.3761,-1.3917,-1.4747,-1.6233,-1.7666,-1.8673,-1.8888,0.0,-1.0027,-0.9301,0.0,0.0,0.0,0.0,0.0,0.0,0.0,0.0,0.0,0.0,0.0,-1.4208,-1.5965,-1.7422,-1.8958,-2.1243,-2.2832,-2.4155,-2.5418,-2.5678,-2.5571,-2.5351,-2.4329,-2.2946,-2.1249,-1.9089,-1.7171,0.0,0.0,0.0,-1.7115,-1.854,0.0,-2.1456,-2.1795,0.0,-2.1855,0.0,-2.2318,-2.2104,-2.2565,0.0,0.0,-2.2732,-2.306,-2.3514,-2.3895,-2.4128,-2.4202,-2.4482,-2.4636,-2.4636,-2.4209,-2.3921,-2.3761,-2.3233,-2.2779,-2.2405,-2.2118,-2.2716,-2.3911,-2.2349,-2.4286,-2.8298,-2.7073,-2.8307,-3.0889,-3.0889,-3.0889,-3.0889,-3.0889,-3.0889,-3.0889,0.0,0.0,0.0,0.0,0.0,0.0,0.0,0.0,0.0,0.0,0.0,0.0,0.0,0.0,0.0,0.0,0.0,0.0,0.0,0.0,0.0,0.0,0.0,0.0,0.0,0.0,0.0,0.0,0.0,0.0,0.0,-1.0895,-1.1309,-1.1666,-1.1908,-1.2721,-1.4005,0.0,0.0,0.0,0.0,0.0,0.0,0.0,0.0,0.0,0.0,0.0,0.0,0.0,0.0,-1.3206,-1.4235,-1.5231,-1.6373,-1.817,0.0,-2.0935,-2.2873,-2.4189,-2.517,-2.5798,-2.5638,-2.5044,-2.3968,-2.2679,-2.1062,-1.8777,-1.6782,0.0,0.0,0.0,0.0,0.0,0.0,0.0,-2.0722,-2.1417,-2.1816,0.0,-2.2503,0.0,-2.2632,-2.3166,-2.35,0.0,-2.3333,-2.3414,-2.3754,-2.4042,-2.4262,-2.4389,-2.4549,-2.4576,-2.4449,-2.4122,-2.3828,-2.3574,-2.3227,-2.2839,-2.2412,-2.2251,-2.2841,-2.3918,-2.3599,-2.5274,-2.8417,-2.8179,-2.9285,-3.0889,-3.0889,-3.0889,-3.0889,-3.0889,-3.0889,-3.0889,0.0,0.0,0.0,0.0,0.0,0.0,0.0,0.0,0.0,0.0,0.0,0.0,0.0,0.0,0.0,0.0,0.0,0.0,0.0,0.0,0.0,0.0,0.0,0.0,0.0,0.0,0.0,0.0,0.0,0.0,0.0,0.0,0.0,0.0,0.0,0.0,0.0,0.0,0.0,0.0,0.0,0.0,0.0,0.0,0.0,0.0,0.0,0.0,0.0,0.0,-1.4015,-1.509,-1.6346,-1.7702,-1.9125,-2.0601,-2.1597,-2.2592,-2.4289,-2.5124,-2.5578,-2.5832,-2.5398,-2.4362,-2.2285,-2.0782,-1.8951,-1.6088,0.0,-1.373,-1.2777,0.0,-1.3316,-1.5177,0.0,-1.7582,-1.9954,-2.0838,-2.1424,-2.2062,-2.2667,-2.2999,-2.304,-2.3554,-2.3988,-2.4242,-2.4028,-2.3888,-2.3888,-2.4122,-2.4376,-2.4629,-2.4636,-2.4496,-2.4209,-2.4162,-2.3875,-2.3327,-2.3287,-2.2986,-2.2472,-2.2398,-2.2987,-2.4112,-2.55,-2.6886,-2.8536,-3.002,-3.0645,-3.0889,-3.0889,-3.0889,-3.0889,-3.0889,-3.0889,-3.0889,0.0,0.0,0.0,0.0,0.0,0.0,0.0,0.0,0.0,0.0,-0.6985,-0.6979,0.0,0.0,0.0,0.0,0.0,0.0,0.0,0.0,0.0,0.0,0.0,0.0,0.0,0.0,0.0,0.0,0.0,0.0,0.0,0.0,0.0,0.0,0.0,0.0,0.0,0.0,0.0,0.0,0.0,0.0,0.0,0.0,0.0,0.0,0.0,0.0,0.0,0.0,-1.5164,-1.6987,-1.8664,-1.986,-2.0949,-2.2432,-2.3146,-2.3741,-2.5017,-2.5438,-2.5525,-2.5578,-2.479,-2.3454,-2.1376,-1.9232,0.0,0.0,0.0,-1.1546,-1.1373,-1.1738,0.0,-1.5363,0.0,0.0,0.0,0.0,-2.1786,0.0,0.0,0.0,0.0,0.0,0.0,0.0,0.0,-2.4482,-2.4482,-2.4536,-2.4583,-2.4636,-2.4636,-2.4496,-2.4209,-2.3968,-2.3667,-2.3327,-2.3066,-2.2886,-2.2772,-2.2278,-2.2904,-2.4297,-2.4132,0.0,-2.8417,-2.8664,-2.9648,-3.0889,-3.0889,-3.0889,-3.0889,-3.0889,-3.0889,-3.0889,0.0,0.0,0.0,0.0,0.0,0.0,0.0,-0.6979,-0.6983,-0.6991,-0.7004,-0.7002,-0.6999,-0.6979,0.0,0.0,0.0,0.0,0.0,0.0,0.0,0.0,0.0,0.0,0.0,0.0,0.0,0.0,0.0,0.0,0.0,0.0,0.0,0.0,0.0,0.0,0.0,0.0,0.0,0.0,0.0,0.0,0.0,0.0,0.0,0.0,0.0,0.0,0.0,0.0,-1.4402,-1.668,-1.9225,-2.0735,-2.1737,-2.2599,-2.35,-2.4309,-2.4716,-2.5384,-2.5825,-2.5211,-2.4055,-2.2405,-1.9867,0.0,0.0,0.0,0.0,-1.073,-1.056,0.0,0.0,0.0,0.0,0.0,0.0,0.0,0.0,0.0,0.0,0.0,0.0,0.0,0.0,0.0,0.0,-2.4636,-2.4636,-2.4636,-2.4569,-2.4416,-2.4409,-2.4195,-2.3754,-2.3607,-2.3387,-2.3086,-2.2933,-2.2779,-2.2619,-2.2338,-2.2946,-2.4269,-2.482,-2.6288,-2.8417,-2.9285,-3.0147,-3.0889,-3.0889,-3.0889,-3.0889,-3.0889,-3.0889,-3.0889,0.0,0.0,0.0,0.0,0.0,0.0,0.0,-0.6979,-0.7009,-0.6994,-0.7216,-0.7382,-0.7384,-0.7172,-0.6996,0.0,0.0,0.0,0.0,0.0,0.0,0.0,0.0,0.0,0.0,0.0,0.0,0.0,0.0,0.0,0.0,0.0,0.0,0.0,0.0,0.0,0.0,0.0,0.0,0.0,0.0,0.0,0.0,0.0,0.0,0.0,0.0,0.0,0.0,0.0,-1.2906,-1.5057,-1.7989,-2.0114,-2.159,-2.1937,-2.3093,-2.4262,-2.4289,-2.5137,-2.5758,-2.471,-2.3287,-2.1383,-1.849,-1.617,0.0,0.0,-1.0594,-1.0233,-1.0137,0.0,0.0,0.0,0.0,0.0,0.0,0.0,0.0,0.0,0.0,0.0,0.0,0.0,0.0,0.0,0.0,-2.4609,-2.4549,-2.4543,-2.4409,-2.4122,-2.4108,-2.3855,-2.3333,-2.3327,-2.3173,-2.2859,-2.2859,-2.2739,-2.2512,-2.2385,-2.3105,-2.4657,-2.5851,-2.7349,-2.9039,-3.0392,-3.0889,-3.0889,-3.0889,-3.0889,-3.0889,-3.0889,-3.0889,-3.0889,0.0,0.0,0.0,0.0,0.0,0.0,0.0,-0.6979,-0.6992,-0.7012,-0.7943,-0.8627,-0.8646,-0.7657,-0.7019,0.0,0.0,0.0,0.0,0.0,0.0,0.0,0.0,0.0,0.0,0.0,0.0,0.0,0.0,0.0,0.0,0.0,0.0,0.0,0.0,0.0,0.0,0.0,0.0,0.0,0.0,0.0,0.0,0.0,0.0,0.0,0.0,0.0,0.0,0.0,0.0,-1.2124,-1.4048,-1.7114,-2.0107,-2.0675,0.0,0.0,-2.4309,-2.4696,-2.4643,-2.4008,-2.2532,-2.0528,-1.7842,0.0,0.0,0.0,-0.994,-0.9494,-0.9977,-0.9972,0.0,0.0,0.0,0.0,0.0,0.0,0.0,0.0,0.0,0.0,0.0,0.0,0.0,0.0,0.0,-2.4523,-2.4255,-2.4242,-2.4108,-2.3821,-2.3808,-2.3654,-2.3327,-2.3327,-2.3173,-2.2859,-2.2859,-2.2846,-2.2806,-2.2271,-2.3659,-2.6628,-2.62,-2.7847,0.0,-3.0889,-3.0889,-3.0889,-3.0889,-3.0889,-3.0889,-3.0889,-3.0889,-3.0889,0.0,0.0,0.0,0.0,0.0,0.0,-0.6979,-0.6979,-0.6989,-0.7017,-0.7432,-0.7736,-0.7736,-0.7293,-0.7001,0.0,0.0,0.0,0.0,0.0,0.0,0.0,0.0,0.0,0.0,0.0,0.0,0.0,0.0,0.0,0.0,0.0,0.0,0.0,0.0,0.0,0.0,0.0,0.0,0.0,0.0,0.0,0.0,0.0,0.0,0.0,0.0,0.0,0.0,0.0,0.0,0.0,-1.0534,-1.2659,0.0,0.0,-1.9459,-2.1015,-2.2191,-2.3427,-2.4189,-2.342,-2.1891,-1.9886,-1.7499,0.0,0.0,-1.0672,-0.9716,-0.9296,-0.9507,-0.9475,-0.9918,0.0,0.0,0.0,0.0,0.0,0.0,0.0,0.0,0.0,0.0,0.0,0.0,0.0,-2.4215,-2.3988,-2.3694,-2.4008,-2.3988,-2.3521,-2.3507,-2.3354,-2.3053,-2.3046,-2.2986,-2.2859,-2.2859,-2.2679,-2.2325,-2.2091,-2.3558,-2.6282,-2.6108,-2.7811,0.0,-3.0889,-3.0889,-3.0889,-3.0889,-3.0889,-3.0889,-3.0889,-3.0889,-3.0889,0.0,0.0,0.0,0.0,0.0,-0.6994,-0.7003,-0.7016,-0.7003,-0.7006,-0.6988,-0.6988,-0.6988,-0.6988,-0.7004,-0.6999,0.0,0.0,0.0,0.0,0.0,0.0,0.0,0.0,0.0,0.0,0.0,-0.6979,-0.6979,0.0,0.0,0.0,0.0,0.0,0.0,0.0,0.0,0.0,0.0,0.0,0.0,0.0,0.0,0.0,0.0,0.0,0.0,0.0,0.0,0.0,0.0,0.0,0.0,0.0,0.0,0.0,-1.6907,-1.8951,-2.004,-2.1911,-2.3354,-2.2545,-2.1022,-1.9102,0.0,0.0,-1.199,-1.0426,-0.9531,-0.9109,-0.9169,-0.9275,-0.961,0.0,0.0,0.0,0.0,0.0,0.0,0.0,0.0,0.0,0.0,0.0,0.0,0.0,-2.3935,-2.3641,-2.334,-2.3714,-2.3714,-2.3207,-2.3193,-2.3086,-2.2866,-2.2859,-2.2859,-2.2859,-2.2859,-2.2599,-2.2111,-2.2024,-2.3221,-2.5405,-2.5782,-2.7572,0.0,-3.0645,-3.0889,-3.0889,-3.0889,-3.0889,-3.0889,-3.0889,-3.0889,-3.0889,0.0,0.0,0.0,0.0,0.0,0.0,-0.6999,-0.6984,-0.6979,-0.6985,-0.6985,-0.6985,-0.6985,-0.6985,-0.6985,-0.6979,0.0,0.0,0.0,0.0,0.0,0.0,0.0,0.0,0.0,0.0,-0.6979,-0.6979,-0.6979,-0.6979,-0.6979,0.0,0.0,0.0,0.0,0.0,0.0,0.0,0.0,0.0,0.0,0.0,0.0,0.0,0.0,0.0,0.0,0.0,0.0,0.0,0.0,0.0,0.0,0.0,0.0,0.0,-1.4416,-1.7368,-1.8277,-2.0227,-2.1864,-2.1276,-1.9806,-1.809,0.0,0.0,-1.1132,-1.0278,-0.9387,-0.8871,-0.9169,-0.9486,-0.9867,-1.0521,-1.0793,0.0,0.0,0.0,0.0,0.0,0.0,0.0,0.0,0.0,0.0,0.0,-2.3935,0.0,-2.334,-2.3333,-2.3193,-2.2879,-2.2866,-2.2866,-2.2859,-2.2859,-2.2859,-2.2859,-2.2859,-2.2706,-2.2405,-2.2118,-2.2716,-2.403,-2.5405,-2.6953,0.0,-3.0265,-3.0889,-3.0889,-3.0889,-3.0889,-3.0889,-3.0889,-3.0889,-3.0889,0.0,0.0,0.0,0.0,0.0,0.0,0.0,-0.7009,-0.6979,-0.6979,-0.699,-0.7003,-0.7003,-0.6678,-0.6598,-0.6982,0.0,0.0,0.0,0.0,0.0,0.0,0.0,0.0,0.0,0.0,-0.6979,-0.6979,-0.6979,-0.6986,-0.7019,-0.7022,-0.6986,0.0,0.0,0.0,0.0,0.0,0.0,0.0,0.0,0.0,0.0,0.0,0.0,0.0,0.0,0.0,0.0,0.0,0.0,0.0,0.0,0.0,0.0,0.0,0.0,0.0,-1.4583,-1.6012,-1.7141,-1.6954,-1.6186,-1.5106,-1.3741,-1.2231,-1.0819,-0.9737,-0.9131,-0.8871,-0.9169,-0.9112,-0.9453,-1.0674,-1.0786,0.0,0.0,0.0,0.0,0.0,0.0,0.0,0.0,0.0,0.0,-2.3581,-2.332,-2.3106,-2.3013,-2.3006,-2.2966,-2.2866,-2.2859,-2.2766,-2.2565,-2.2559,-2.2458,-2.2265,-2.2265,-2.2111,-2.1824,-2.1737,-2.241,-2.3841,-2.5309,-2.6953,-2.8536,-3.0265,-3.0889,-3.0889,-3.0889,-3.0889,-3.0889,-3.0889,-3.0889,-3.0889,0.0,0.0,0.0,0.0,0.0,0.0,0.0,-0.6852,-0.7008,-0.7008,-0.6987,-0.6821,-0.642,-0.6052,-0.6013,-0.6323,0.0,0.0,0.0,0.0,0.0,0.0,0.0,0.0,0.0,-0.6979,-0.6979,-0.6979,-0.6993,-0.7001,-0.7022,-0.7005,-0.7011,-0.7015,-0.7001,0.0,0.0,0.0,0.0,0.0,0.0,0.0,-0.6979,0.0,0.0,0.0,0.0,0.0,0.0,0.0,0.0,0.0,0.0,0.0,0.0,0.0,-0.8544,0.0,0.0,-1.3233,-1.4329,-1.4442,-1.3965,0.0,0.0,-1.1338,-1.0243,-0.9372,-0.899,-0.8864,-0.9042,-0.9113,-0.9422,-1.0382,-1.0637,0.0,0.0,0.0,0.0,0.0,0.0,0.0,0.0,0.0,0.0,-2.33,-2.304,-2.2859,-2.2859,-2.2752,-2.2692,-2.2692,-2.2692,-2.2605,-2.2418,-2.2311,-2.2164,-2.1984,-2.1984,-2.1837,-2.1679,-2.2181,-2.2892,-2.369,-2.5993,-2.7443,0.0,-3.0265,-3.0889,-3.0889,-3.0889,-3.0889,-3.0889,-3.0889,-3.0781,-3.0635,0.0,0.0,0.0,0.0,0.0,0.0,0.0,0.0,-0.6915,-0.6871,-0.6893,-0.649,-0.5419,-0.5286,-0.5286,-0.5298,0.0,0.0,0.0,0.0,0.0,0.0,0.0,0.0,0.0,-0.6979,-0.6979,-0.6979,-0.6994,-0.6988,-0.7008,-0.6999,-0.7092,-0.7265,-0.7092,-0.6984,-0.6979,-0.6979,-0.6979,-0.6979,-0.6979,-0.6979,0.0,0.0,0.0,0.0,0.0,0.0,0.0,0.0,0.0,0.0,0.0,0.0,0.0,0.0,0.0,0.0,0.0,0.0,0.0,0.0,0.0,0.0,0.0,-1.0572,0.0,-0.921,-0.8983,-0.8831,-0.8858,-0.9283,-0.9701,-0.9827,0.0,0.0,0.0,0.0,0.0,0.0,0.0,0.0,0.0,0.0,-2.2986,-2.3273,-2.3026,-2.2859,-2.2859,-2.2579,-2.2418,-2.2418,-2.2378,-2.2358,-2.2358,-2.2091,-2.1944,-2.1924,-2.2055,-2.2038,-2.1774,-2.3396,-2.3976,0.0,-2.7082,-2.8417,-2.8536,-3.0265,-3.0889,-3.0889,-3.0889,-3.0889,-3.0889,-3.0859,-3.0566,-3.0195,0.0,0.0,0.0,0.0,0.0,0.0,0.0,0.0,0.0,0.0,-0.5712,-0.5583,-0.5342,-0.531,-0.5311,0.0,0.0,0.0,0.0,0.0,0.0,0.0,0.0,0.0,0.0,-0.6979,-0.6979,-0.6979,-0.6999,-0.7014,-0.7005,-0.6973,-0.7973,-0.9688,-0.7817,-0.6984,-0.6979,-0.6979,-0.6979,-0.6979,-0.6979,-0.6979,0.0,0.0,0.0,0.0,-0.6979,-0.6979,0.0,0.0,0.0,0.0,0.0,0.0,0.0,0.0,-0.7068,-0.7228,-0.7722,0.0,-0.8831,-0.8905,0.0,0.0,0.0,0.0,0.0,0.0,0.0,0.0,0.0,0.0,0.0,0.0,0.0,0.0,0.0,0.0,0.0,0.0,0.0,0.0,0.0,0.0,-2.2893,-2.2966,-2.2906,-2.2859,-2.2859,-2.2579,-2.2418,-2.2418,-2.1991,-2.1757,-2.1757,-2.169,-2.1543,-2.1316,-2.256,-2.3141,-2.3193,-2.4773,-2.5456,-2.5497,-2.7563,-2.8417,-2.8536,-3.0265,-3.0889,-3.0889,-3.0889,-3.0889,-3.085,-3.0488,-3.0293,-3.0156,0.0,0.0,0.0,0.0,0.0,0.0,0.0,0.0,0.0,0.0,0.0,0.0,0.0,0.0,0.0,0.0,0.0,0.0,0.0,0.0,0.0,0.0,0.0,-0.6979,-0.6979,-0.6979,-0.6979,-0.6979,-0.7015,-0.7554,-0.8642,-0.8641,-0.9357,-1.0504,-0.8084,-0.7007,-0.6979,-0.6979,-0.6979,-0.6979,-0.6979,0.0,0.0,0.0,0.0,0.0,-0.6979,-0.6979,0.0,-0.6979,-0.6979,-0.6979,0.0,0.0,0.0,0.0,-0.6979,-0.6979,-0.6979,-0.7341,-0.7715,-0.7896,-0.8096,-0.8339,0.0,0.0,0.0,0.0,0.0,0.0,0.0,0.0,0.0,0.0,0.0,0.0,0.0,0.0,0.0,0.0,0.0,0.0,0.0,0.0,-2.2859,-2.2859,-2.2859,-2.2806,-2.2665,-2.2378,-2.2158,-2.2024,-2.1583,-2.1416,-2.155,-2.1416,-2.1269,-2.1109,-2.2834,-2.3574,-2.3698,-2.5993,-2.7073,-2.7194,-2.8792,-2.953,-2.9648,-3.0518,-3.0762,-3.0576,-3.0576,-3.0459,-3.0254,-3.0,-2.9785,-2.958,0.0,0.0,0.0,0.0,0.0,0.0,0.0,0.0,0.0,0.0,0.0,0.0,0.0,0.0,0.0,0.0,0.0,0.0,0.0,0.0,0.0,0.0,0.0,-0.6979,-0.6979,-0.6979,-0.6979,-0.6979,-0.6997,-0.8123,-1.031,-1.0501,-1.0509,-1.0258,-0.7976,-0.6999,-0.6979,-0.6979,-0.6979,-0.6979,-0.6979,0.0,0.0,0.0,0.0,0.0,0.0,0.0,0.0,-0.6979,-0.7054,-0.7081,-0.7034,0.0,0.0,0.0,0.0,0.0,-0.7074,-0.7556,-0.815,-0.8216,-0.8558,-0.8855,0.0,0.0,0.0,0.0,0.0,0.0,0.0,0.0,0.0,0.0,0.0,0.0,0.0,0.0,0.0,0.0,0.0,0.0,0.0,-2.2719,-2.2779,-2.2732,-2.2726,-2.2619,-2.2365,-2.2078,-2.1804,-2.1563,-2.1263,-2.1229,-2.1483,-2.1236,-2.1109,-2.1109,-2.3076,-2.3938,-2.4054,-2.7262,-2.8692,-2.881,-3.0102,0.0,-3.0693,-3.0693,-3.0459,-3.0098,-3.0098,-2.9883,-2.956,-2.9492,-2.9238,-2.8906,0.0,0.0,0.0,0.0,0.0,0.0,0.0,0.0,0.0,0.0,0.0,0.0,0.0,0.0,0.0,0.0,0.0,0.0,0.0,0.0,0.0,0.0,-0.6979,-0.6979,-0.6979,-0.6979,-0.6979,-0.6979,-0.6993,-0.7723,-0.9075,-1.01,-1.0064,-0.9017,-0.762,-0.6999,-0.6979,-0.6979,-0.6979,-0.6979,-0.6979,0.0,0.0,0.0,0.0,0.0,0.0,0.0,0.0,-0.6979,-0.7188,-0.7355,-0.7101,0.0,0.0,0.0,0.0,0.0,-0.7328,-0.8196,-0.8758,-0.7849,-0.8235,-0.8774,0.0,0.0,0.0,0.0,0.0,0.0,0.0,0.0,0.0,0.0,0.0,0.0,0.0,0.0,0.0,0.0,0.0,0.0,-2.147,-2.2051,-2.2385,-2.2138,-2.2118,-2.2098,-2.2051,-2.1777,-2.1597,-2.155,-2.1263,-2.1129,-2.1176,-2.1129,-2.1109,-2.1109,-2.4155,-2.5619,-2.5733,-2.8661,-2.9939,-2.992,0.0,-2.9775,-2.9775,-2.9775,-2.9736,-2.9668,-2.9668,-2.9629,-2.9521,-2.915,-2.8975,-2.8867,0.0,0.0,0.0,0.0,0.0,0.0,0.0,0.0,0.0,0.0,0.0,0.0,0.0,0.0,0.0,0.0,0.0,0.0,0.0,0.0,0.0,-0.6979,-0.6979,-0.6979,-0.6979,-0.6989,-0.7011,-0.7011,-0.7022,-0.7937,-0.9764,-1.0321,-0.9967,-0.8769,-0.7529,-0.6999,-0.6979,-0.6979,-0.6979,-0.6979,0.0,0.0,0.0,0.0,0.0,0.0,0.0,0.0,0.0,0.0,-0.6858,-0.7201,-0.7068,0.0,0.0,0.0,0.0,0.0,-0.7188,-0.7983,-0.8693,-0.849,-0.9228,-0.9862,0.0,0.0,0.0,0.0,0.0,0.0,0.0,0.0,0.0,0.0,0.0,0.0,0.0,0.0,0.0,0.0,0.0,-2.2004,-2.1623,-2.1951,-2.2131,-2.1997,-2.1984,-2.1917,-2.1757,-2.1623,-2.1476,-2.1323,-2.1182,-2.1109,-2.1109,-2.0955,-2.0875,-2.0875,-2.3937,-2.5398,-2.5509,-2.8527,-2.9863,-2.9853,-2.9658,-2.957,-2.957,-2.957,-2.9434,-2.9219,-2.9219,-2.9082,-2.8857,-2.8652,-2.8584,-2.8555,0.0,0.0,0.0,0.0,0.0,0.0,0.0,0.0,0.0,0.0,0.0,0.0,0.0,0.0,0.0,0.0,0.0,0.0,0.0,0.0,-0.6979,-0.6979,-0.6979,-0.7005,-0.6986,-0.7001,-0.7141,-0.7419,-0.744,-0.853,-1.0587,-1.0328,-0.9266,-0.7542,-0.7188,-0.6912,-0.6761,-0.6937,-0.6979,-0.6979,0.0,0.0,0.0,0.0,0.0,0.0,0.0,0.0,0.0,0.0,0.0,0.0,0.0,0.0,0.0,-0.7041,-0.6979,-0.7034,-0.7108,-0.7736,-0.8516,-0.8908,0.0,-1.077,-1.076,0.0,0.0,0.0,0.0,0.0,0.0,0.0,0.0,0.0,0.0,0.0,0.0,0.0,0.0,0.0,-2.1476,-2.169,-2.177,-2.1844,-2.1857,-2.1784,-2.1784,-2.1683,-2.1463,-2.145,-2.1598,-2.1734,-2.1727,-2.1811,-2.2103,-2.18,-2.132,-2.0668,-2.32,-2.4561,-2.5011,-2.7713,-2.908,-2.9414,-2.9316,-2.9268,-2.9268,-2.9268,-2.9072,-2.8769,-2.8769,-2.8574,-2.8281,-2.8184,-2.8144,-2.8144,0.0,0.0,0.0,0.0,0.0,0.0,0.0,0.0,0.0,0.0,0.0,0.0,0.0,0.0,0.0,0.0,0.0,0.0,0.0,0.0,-0.6979,-0.6979,-0.6979,-0.7006,-0.702,-0.7001,-0.7556,-0.8663,-0.8684,-0.9328,-1.0587,-0.9438,-0.7172,-0.4082,-0.611,-0.6599,-0.6027,-0.6719,-0.6979,-0.6979,-0.6979,0.0,0.0,0.0,0.0,0.0,0.0,0.0,0.0,0.0,0.0,0.0,0.0,0.0,-0.7426,-0.7101,-0.6979,-0.7081,-0.7361,-0.7943,-0.8424,-0.843,0.0,0.0,-1.2258,0.0,0.0,0.0,0.0,0.0,0.0,0.0,0.0,0.0,0.0,0.0,0.0,0.0,0.0,-2.1516,-2.1777,-2.175,-2.1223,-2.1423,-2.147,-2.1196,-2.1169,-2.1162,-2.1142,-2.1142,-2.1873,-2.3325,-2.345,-2.3902,-2.5003,-2.4765,-2.323,-2.0675,-2.2158,-2.3638,-2.5003,-2.6284,-2.7614,-2.8945,-2.8555,-2.8389,-2.8389,-2.8389,-2.8369,-2.834,-2.834,-2.832,-2.8242,-2.7851,-2.7715,-2.7715,0.0,0.0,0.0,0.0,0.0,0.0,0.0,0.0,0.0,0.0,0.0,0.0,0.0,0.0,0.0,0.0,0.0,0.0,0.0,0.0,-0.6979,-0.6979,-0.6979,-0.7012,-0.7001,-0.7719,-0.8348,-0.8799,-0.8806,-0.9044,-0.9456,-0.8223,-0.6226,-0.3672,-0.5221,-0.5918,-0.5942,-0.6677,-0.6979,-0.6979,-0.6979,-0.681,0.0,0.0,0.0,0.0,0.0,0.0,0.0,0.0,-0.6631,-0.7168,0.0,-0.7101,-0.7168,-0.7054,-0.6979,-0.7047,-0.7161,-0.8049,-0.8954,-0.9175,0.0,0.0,0.0,0.0,0.0,0.0,0.0,0.0,0.0,0.0,0.0,0.0,0.0,0.0,0.0,0.0,0.0,-2.155,-2.165,-2.1557,-2.1149,-2.1209,-2.1229,-2.1116,-2.1109,-2.1109,-2.1109,-2.1109,-2.1763,-2.3152,-2.3145,-2.3702,-2.4874,-2.4639,-2.3953,-2.2917,-2.4179,-2.5138,-2.569,-2.7031,-2.7975,-2.8525,-2.8359,-2.8291,-2.8291,-2.8291,-2.8291,-2.8291,-2.8291,-2.8291,-2.8271,-2.8115,-2.8057,-2.8057,0.0,0.0,0.0,0.0,0.0,0.0,0.0,0.0,0.0,0.0,0.0,0.0,0.0,0.0,0.0,0.0,0.0,0.0,-0.6401,-0.6794,-0.6979,-0.6979,-0.6979,-0.7022,-0.7019,-0.7822,-0.8231,-0.8239,-0.8249,-0.824,-0.8233,-0.7375,-0.5997,-0.4179,-0.5325,-0.5882,-0.6039,-0.6725,-0.6894,-0.6725,-0.6725,-0.652,0.0,0.0,0.0,0.0,0.0,0.0,0.0,0.0,-0.6562,0.0,0.0,0.0,-0.6979,-0.6979,-0.6979,-0.6979,-0.6979,-0.7867,0.0,0.0,0.0,0.0,0.0,0.0,0.0,0.0,0.0,0.0,0.0,0.0,0.0,0.0,0.0,0.0,0.0,0.0,-2.141,-2.141,-2.141,-2.1296,-2.1002,-2.1056,-2.1029,-2.0848,-2.0922,-2.0929,-2.0835,-2.0835,-2.1465,-2.2818,-2.281,-2.3588,-2.5324,-2.5184,-2.5223,-2.5552,-2.6409,-2.6599,-2.6155,-2.7159,-2.7843,-2.8291,-2.8291,-2.8291,-2.8291,-2.8291,-2.8291,-2.8291,-2.8291,-2.8291,-2.8271,-2.8144,-2.8096,-2.8076,0.0,0.0,0.0,0.0,0.0,0.0,0.0,0.0,0.0,0.0,0.0,0.0,0.0,0.0,0.0,0.0,0.0,0.0,-0.6915,-0.7015,-0.6979,-0.6979,-0.6979,-0.6979,-0.6979,-0.6979,-0.7019,-0.702,-0.702,-0.6971,-0.696,-0.6988,-0.6384,-0.5351,-0.6507,-0.6683,-0.6227,-0.6768,-0.6689,-0.6227,-0.6184,-0.6184,-0.6184,0.0,0.0,0.0,0.0,0.0,0.0,0.0,-0.6556,-0.6979,0.0,0.0,0.0,-0.6979,-0.6985,-0.7027,-0.7021,-0.7454,0.0,0.0,0.0,0.0,0.0,0.0,0.0,0.0,0.0,0.0,0.0,0.0,0.0,0.0,0.0,0.0,0.0,-2.1109,-2.1109,-2.1109,-2.1102,-2.0989,-2.0702,-2.0935,-2.0862,-2.0274,-2.0508,-2.0541,-2.0247,-2.0234,-2.0939,-2.2587,-2.2706,-2.3941,-2.6659,-2.6659,-2.7243,-2.8281,-2.8281,-2.7501,-2.6155,-2.6155,-2.6943,-2.8291,-2.8291,-2.8291,-2.8291,-2.8291,-2.8281,-2.8281,-2.8281,-2.8281,-2.8232,-2.7822,-2.7666,-2.7617,0.0,0.0,0.0,0.0,0.0,0.0,0.0,0.0,0.0,0.0,0.0,0.0,0.0,0.0,0.0,0.0,0.0,0.0,-0.693,-0.7015,-0.6979,-0.6979,-0.6979,-0.6979,-0.6979,-0.6979,-0.7016,-0.6999,-0.7001,-0.6197,-0.4657,-0.6246,-0.6234,-0.4947,-0.6353,-0.6685,-0.6227,-0.6349,-0.6556,-0.6725,-0.6349,-0.6184,-0.6184,0.0,0.0,0.0,0.0,0.0,0.0,0.0,0.0,0.0,0.0,0.0,0.0,-0.6979,-0.7168,-0.7338,-0.737,0.0,0.0,0.0,0.0,0.0,0.0,0.0,0.0,0.0,0.0,0.0,0.0,0.0,0.0,0.0,0.0,-2.0134,-2.0722,-2.0808,-2.0808,-2.0808,-2.0621,-2.0461,-2.0374,-2.0441,-2.0421,-2.0247,-2.0314,-2.0327,-2.0234,-2.0234,-2.0835,-2.2119,-2.2221,-2.355,-2.6235,-2.6226,-2.6816,-2.7851,-2.7851,-2.7786,-2.7618,-2.7618,-2.7843,-2.8291,-2.8291,-2.8291,-2.8271,-2.7969,-2.7666,-2.7393,-2.7393,-2.7578,-2.7832,-2.7715,-2.7851,-2.8047,0.0,0.0,0.0,0.0,0.0,0.0,0.0,0.0,0.0,0.0,0.0,0.0,0.0,0.0,0.0,0.0,0.0,0.0,0.0,-0.6997,-0.6979,-0.6979,-0.6979,-0.6979,-0.6979,-0.6979,-0.6992,-0.7018,-0.7016,-0.5848,-0.3657,-0.5489,-0.5924,-0.5251,-0.6477,-0.6721,-0.6221,-0.6435,-0.6428,-0.6331,-0.6221,-0.6184,-0.6184,0.0,0.0,0.0,0.0,0.0,0.0,0.0,0.0,0.0,0.0,0.0,0.0,-0.6979,-0.7235,-0.7541,-0.7638,0.0,0.0,0.0,0.0,0.0,0.0,0.0,0.0,0.0,0.0,0.0,0.0,0.0,0.0,0.0,-1.9573,-1.996,-2.0434,-2.0501,-2.0501,-2.0501,-2.0341,-2.0187,-2.0067,-2.006,-2.024,-2.0698,-2.0572,-2.0737,-2.1307,-2.0847,-2.1039,-2.2166,-2.1836,-2.2855,-2.5576,-2.5576,-2.6231,-2.7402,-2.7402,-2.7539,-2.7783,-2.7783,-2.7783,-2.7783,-2.7783,-2.7783,-2.7764,-2.751,-2.7256,-2.7012,-2.7012,-2.7178,-2.7402,-2.7402,-2.7568,-2.7725,0.0,0.0,0.0,0.0,0.0,0.0,0.0,0.0,0.0,0.0,0.0,0.0,0.0,0.0,0.0,0.0,0.0,0.0,0.0,0.0,-0.6979,-0.6979,-0.6979,-0.6979,-0.6979,-0.6979,-0.7012,-0.6993,-0.6802,-0.5663,-0.3792,-0.4871,-0.5551,-0.595,-0.6611,-0.6647,-0.6221,-0.6641,-0.6289,-0.5437,-0.5964,-0.6221,-0.6264,-0.6264,0.0,0.0,0.0,0.0,0.0,0.0,0.0,0.0,0.0,0.0,-0.6979,-0.6979,-0.7241,-0.7575,0.0,0.0,0.0,0.0,0.0,0.0,0.0,0.0,0.0,0.0,0.0,0.0,0.0,0.0,0.0,0.0,-1.9766,-1.9887,-2.012,-2.0154,-2.0167,-2.0187,-2.012,-1.998,-1.9746,-1.97,-2.013,-2.1185,-2.0884,-2.138,-2.2917,-2.1601,-2.1345,-2.2437,-2.1541,-2.2204,-2.4769,-2.4724,-2.5441,-2.6894,-2.6855,-2.6816,-2.6787,-2.6943,-2.7012,-2.7012,-2.7012,-2.6992,-2.6963,-2.6963,-2.6934,-2.6894,-2.6894,-2.6924,-2.6963,-2.6963,-2.6982,-2.6953,0.0,0.0,0.0,0.0,0.0,0.0,0.0,0.0,0.0,0.0,0.0,0.0,0.0,0.0,0.0,0.0,0.0,0.0,0.0,0.0,-0.6979,-0.6979,-0.6979,-0.6979,-0.6979,-0.6979,-0.7012,-0.6993,-0.5191,-0.4526,-0.4947,-0.5486,-0.589,-0.6147,-0.6313,-0.6307,-0.6179,-0.5825,-0.5782,-0.6007,-0.6136,-0.6435,-0.681,-0.681,-0.6894,0.0,0.0,0.0,0.0,0.0,0.0,0.0,-0.6979,-0.6979,-0.6979,-0.6979,-0.7238,-0.7654,0.0,0.0,0.0,0.0,0.0,0.0,0.0,0.0,0.0,0.0,0.0,0.0,0.0,0.0,0.0,-1.9158,-1.9499,-1.974,-1.9579,-1.9553,-1.9639,-1.9867,-1.9285,-1.8931,-1.9098,-1.8905,-1.8857,-1.9111,-1.9042,-1.9651,-2.1038,-2.082,-2.1217,-2.2429,-2.2288,-2.3036,-2.476,-2.4454,-2.4868,-2.6016,-2.5654,-2.5312,-2.5019,-2.6396,-2.7012,-2.7012,-2.7012,-2.6826,-2.6523,-2.6523,-2.6318,-2.6016,-2.6016,-2.6221,-2.6523,-2.6523,-2.6728,-2.6953,0.0,0.0,0.0,0.0,0.0,0.0,0.0,0.0,0.0,0.0,0.0,0.0,0.0,0.0,0.0,0.0,0.0,0.0,0.0,0.0,-0.6979,-0.6979,-0.6979,-0.6979,-0.6979,-0.6979,-0.7012,-0.6993,-0.5825,-0.5245,0.0,-0.6249,-0.6579,-0.6411,-0.6712,-0.6668,-0.6399,-0.6177,-0.613,-0.6221,-0.6477,-0.6768,-0.6979,-0.6979,-0.6979,-0.6979,-0.6979,0.0,0.0,0.0,0.0,0.0,0.0,0.0,-0.6979,-0.6979,-0.7251,-0.7647,0.0,0.0,0.0,0.0,0.0,0.0,0.0,0.0,0.0,0.0,0.0,0.0,0.0,0.0,0.0,-1.8764,-1.8971,-1.9118,-1.8971,-1.8945,-1.9005,-1.9158,-1.8771,-1.8551,-1.8698,-1.845,-1.8598,-1.9332,-1.9191,-1.9626,-2.1086,-2.1078,-2.1523,-2.269,-2.269,-2.3314,-2.4646,-2.4333,-2.4515,-2.5098,-2.4863,-2.4639,-2.4453,-2.5566,-2.6201,-2.6396,-2.6172,-2.5957,-2.5762,-2.5762,-2.5625,-2.5439,-2.5654,-2.5879,-2.6074,-2.6074,-2.6221,-2.6367,0.0,0.0,0.0,0.0,0.0,0.0,0.0,0.0,0.0,0.0,0.0,0.0,0.0,0.0,0.0,0.0,0.0,0.0,0.0,0.0,0.0,-0.6979,-0.6979,-0.6979,-0.6979,-0.6979,-0.7005,-0.7016,-0.7016,0.0,0.0,0.0,0.0,-0.686,-0.7173,-0.7058,-0.6594,-0.6804,-0.6605,-0.6264,-0.6768,-0.6979,-0.6979,-0.6979,-0.6979,-0.6979,-0.6979,-0.6979,-0.6979,-0.6979,0.0,0.0,0.0,0.0,-0.6979,-0.6979,-0.7204,-0.7537,0.0,0.0,0.0,0.0,0.0,0.0,0.0,0.0,0.0,0.0,0.0,0.0,0.0,0.0,0.0,-1.8424,-1.8457,-1.847,-1.8424,-1.8364,-1.835,-1.8404,-1.8277,-1.8203,-1.8257,-1.7989,-1.8328,-1.956,-1.931,-1.9763,-2.1293,-2.1176,-2.1628,-2.2901,-2.2795,-2.3321,-2.4414,-2.4346,-2.4307,-2.4307,-2.4228,-2.4238,-2.4316,-2.4678,-2.5088,-2.5488,-2.5117,-2.4951,-2.4951,-2.4951,-2.5,-2.5107,-2.5478,-2.5625,-2.5625,-2.5625,-2.5576,-2.5508,0.0,0.0,0.0,0.0,0.0,0.0,0.0,0.0,0.0,0.0,0.0,0.0,0.0,0.0,0.0,0.0,0.0,0.0,-0.7007,0.0,0.0,-0.6979,-0.6979,-0.6979,-0.6979,-0.6979,-0.6985,-0.6992,0.0,0.0,0.0,0.0,0.0,-0.7714,0.0,-0.6696,-0.6594,-0.6377,-0.627,-0.6264,-0.6768,-0.6979,-0.6979,-0.6979,-0.6979,-0.6979,-0.6979,-0.6979,-0.6979,-0.6979,-0.6979,0.0,0.0,0.0,-0.6979,-0.6979,-0.7018,0.0,0.0,0.0,0.0,0.0,0.0,0.0,0.0,0.0,0.0,0.0,0.0,0.0,0.0,0.0,0.0,-1.8143,-1.8323,-1.8404,-1.8143,-1.7876,-1.7802,-1.8076,-1.7415,-1.7048,-1.7308,-1.7061,-1.6982,-1.7177,-1.7143,-1.7703,-1.9072,-1.9072,-2.0216,-2.2591,-2.2686,-2.3233,-2.4414,-2.4053,-2.3877,-2.3867,-2.3486,-2.3506,-2.3877,-2.3935,-2.4189,-2.459,-2.4531,-2.4502,-2.4502,-2.4502,-2.4727,-2.5078,-2.5137,-2.5156,-2.5156,-2.5156,-2.4922,-2.459,0.0,0.0,0.0,0.0,0.0,0.0,0.0,0.0,0.0,0.0,0.0,0.0,0.0,0.0,0.0,-0.699,-0.7018,-0.6983,-0.7014,-0.6979,-0.6979,-0.6979,-0.6979,-0.6979,-0.6979,-0.6979,-0.6979,-0.6979,0.0,0.0,0.0,-0.7941,-0.8125,0.0,0.0,0.0,0.0,0.0,-0.6925,-0.6956,-0.696,-0.7121,-0.7268,-0.7268,-0.7381,-0.7483,-0.7483,-0.7483,-0.7463,-0.7328,-0.7268,-0.7241,-0.7074,0.0,0.0,0.0,-0.6979,0.0,0.0,0.0,0.0,0.0,0.0,0.0,0.0,0.0,0.0,0.0,0.0,0.0,0.0,0.0,0.0,-1.7315,-1.7402,-1.7442,-1.7315,-1.7181,-1.7141,-1.7281,-1.6947,-1.676,-1.6887,-1.678,-1.6932,-1.7435,-1.7584,-1.8182,-1.9327,-2.0091,-2.0951,-2.2092,-2.262,-2.3143,-2.3701,-2.3516,-2.3428,-2.3428,-2.3232,-2.3242,-2.3428,-2.3428,-2.3789,-2.4404,-2.417,-2.4062,-2.4062,-2.4062,-2.418,-2.4375,-2.4609,-2.4697,-2.4697,-2.4697,-2.458,-2.4414,0.0,0.0,0.0,0.0,0.0,0.0,0.0,0.0,0.0,0.0,0.0,0.0,0.0,0.0,0.0,0.0,-0.6979,-0.6979,-0.6979,-0.6979,-0.6979,-0.6979,-0.6979,-0.6979,-0.6979,-0.6979,-0.6979,0.0,0.0,0.0,-0.827,-0.8548,-0.8931,0.0,-0.9125,0.0,0.0,0.0,0.0,0.0,0.0,-0.7268,-0.752,-0.7555,-0.7729,-0.7882,-0.7882,-0.7882,-0.7848,-0.7662,-0.7582,-0.7535,-0.7228,-0.7134,0.0,0.0,0.0,0.0,0.0,0.0,0.0,0.0,0.0,0.0,0.0,0.0,0.0,0.0,0.0,0.0,0.0,0.0,0.0,-1.6707,-1.6707,-1.6707,-1.6707,-1.664,-1.66,-1.66,-1.6526,-1.648,-1.648,-1.648,-1.6778,-1.75,-1.7696,-1.8297,-1.9263,-2.0281,-2.1037,-2.1679,-2.2298,-2.2775,-2.3135,-2.3135,-2.3135,-2.3135,-2.3135,-2.3135,-2.3135,-2.3135,-2.3486,-2.4072,-2.376,-2.3623,-2.3623,-2.3623,-2.3691,-2.3818,-2.4141,-2.4258,-2.4258,-2.4258,-2.4189,-2.4092,0.0,0.0,0.0,0.0,0.0,0.0,0.0,0.0,0.0,0.0,0.0,0.0,-0.7016,-0.7001,-0.7007,-0.6979,-0.6979,-0.6979,-0.6979,-0.6979,-0.6979,-0.6979,-0.6979,0.0,-0.6979,-0.6979,0.0,0.0,0.0,0.0,-0.8407,-0.8434,-0.8851,-0.9659,-0.9646,-0.9332,-0.8784,0.0,0.0,0.0,0.0,0.0,0.0,0.0,0.0,0.0,0.0,-0.7882,-0.7882,-0.7868,-0.7855,-0.7849,-0.7542,-0.7486,-0.7432,0.0,0.0,0.0,0.0,0.0,0.0,0.0,0.0,0.0,0.0,0.0,0.0,0.0,0.0,0.0,0.0,0.0,0.0,-1.6707,-1.6707,-1.6707,-1.6707,-1.6466,-1.6293,-1.6293,-1.6046,-1.5872,-1.5872,-1.5872,-1.5872,-1.5947,-1.596,-1.6522,-1.7714,-1.79,-1.898,-2.123,-2.14,-2.1933,-2.3047,-2.3135,-2.3135,-2.3135,-2.3135,-2.3135,-2.3135,-2.3135,-2.3164,-2.3203,-2.3184,-2.3174,-2.3174,-2.3174,-2.3418,-2.3789,-2.3809,-2.3828,-2.3828,-2.3828,-2.3555,-2.3203,0.0,0.0,0.0,0.0,0.0,0.0,0.0,0.0,0.0,0.0,0.0,0.0,0.0,-0.6979,-0.6979,-0.6979,-0.6979,-0.6979,-0.6979,-0.6979,-0.6979,-0.6979,-0.6979,-0.6979,-0.6979,-0.6979,0.0,0.0,0.0,-0.7269,-0.7849,-0.8383,-0.8724,-0.8858,-0.9232,-0.9279,-0.9051,-0.8577,0.0,0.0,0.0,0.0,0.0,0.0,0.0,0.0,0.0,0.0,0.0,-0.8718,-0.8599,-0.8444,-0.8143,-0.7829,-0.7453,-0.7108,-0.6979,0.0,0.0,0.0,0.0,0.0,0.0,0.0,0.0,0.0,0.0,0.0,0.0,0.0,0.0,0.0,0.0,-1.6112,-1.6146,-1.6146,-1.6146,-1.6052,-1.5985,-1.5985,-1.5892,-1.5832,-1.5832,-1.6574,-1.7311,-1.8126,-1.864,-1.9133,-1.9686,-2.0175,-2.0476,-2.0621,-2.1258,-2.2016,-2.2734,-2.2471,-2.2471,-2.2734,-2.2734,-2.2734,-2.2744,-2.3018,-2.3135,-2.3135,-2.3135,-2.3135,-2.3135,-2.3135,-2.3232,-2.3369,-2.3369,-2.3369,-2.3369,-2.3369,-2.3271,-2.3135,0.0,0.0,0.0,0.0,0.0,0.0,0.0,0.0,0.0,0.0,0.0,0.0,0.0,0.0,-0.6979,-0.6979,-0.6979,-0.6979,-0.6979,-0.6979,-0.6979,-0.6979,-0.6979,-0.6979,-0.6979,-0.6979,0.0,0.0,0.0,0.0,0.0,-0.8183,-0.8464,-0.8397,-0.8878,-0.9097,0.0,0.0,0.0,-0.849,0.0,0.0,-0.855,0.0,0.0,0.0,0.0,0.0,0.0,0.0,-0.9192,-0.8898,-0.8611,-0.8072,-0.7469,-0.7228,-0.7076,0.0,0.0,0.0,0.0,0.0,0.0,0.0,0.0,0.0,0.0,0.0,0.0,0.0,0.0,0.0,0.0,0.0,-1.5618,-1.5685,-1.5685,-1.5765,-1.5832,-1.5832,-1.5832,-1.5792,-1.5691,-1.642,-1.7375,-1.8422,-1.8982,0.0,-2.0517,-2.1053,-2.1089,-2.082,-2.1524,-2.2021,-2.2305,-2.2021,-2.2031,-2.2305,-2.2305,-2.2373,-2.2519,-2.2803,-2.3008,-2.3135,-2.3135,-2.3135,-2.3135,-2.3135,-2.3135,-2.3135,-2.3135,-2.3135,-2.3135,-2.3135,-2.3135,-2.3135,0.0,0.0,0.0,0.0,0.0,0.0,0.0,0.0,0.0,-0.6979,0.0,0.0,0.0,0.0,0.0,-0.6979,-0.6979,-0.6979,-0.6979,-0.6979,-0.6979,-0.6979,-0.6979,-0.6985,-0.6992,-0.6985,0.0,0.0,0.0,0.0,0.0,0.0,-0.809,-0.8434,-0.8671,-0.8958,-0.917,0.0,-0.9065,-0.8784,0.0,-0.8571,-0.8925,0.0,0.0,0.0,-1.0481,-1.0408,0.0,-0.984,0.0,0.0,0.0,0.0,-0.7511,-0.7518,0.0,0.0,0.0,0.0,0.0,0.0,0.0,0.0,0.0,0.0,0.0,0.0,0.0,0.0,0.0,0.0,0.0,0.0,-1.5157,-1.5371,-1.5371,-1.5618,-1.5805,-1.5805,-1.5805,-1.5691,-1.5411,-1.5384,-1.5798,-1.6529,-1.6668,-1.7613,-1.984,-1.9991,-2.0504,-2.1826,-2.1816,-2.1816,-2.1826,-2.1826,-2.1836,-2.1846,-2.1865,-2.208,-2.248,-2.249,-2.2715,-2.3105,-2.3115,-2.3125,-2.3125,-2.3135,-2.3135,-2.3135,-2.3135,-2.3135,-2.3135,-2.3135,-2.3135,-2.3135,0.0,0.0,0.0,0.0,0.0,0.0,0.0,0.0,-0.6979,0.0,0.0,0.0,-0.6979,-0.6979,-0.6979,-0.6979,-0.6979,-0.6979,-0.6979,-0.6979,-0.6979,-0.6979,-0.6979,-0.698,-0.6994,-0.6993,0.0,0.0,0.0,0.0,0.0,0.0,0.0,0.0,-0.8457,-0.8657,-0.8925,-0.8925,0.0,0.0,-0.8945,-0.9178,0.0,0.0,0.0,0.0,0.0,-1.1269,-1.1369,0.0,-1.0929,-1.0307,0.0,0.0,0.0,0.0,0.0,0.0,-0.707,0.0,0.0,0.0,0.0,0.0,0.0,0.0,0.0,0.0,0.0,0.0,0.0,0.0,0.0,0.0,-1.4008,-1.4763,-1.4763,-1.5017,-1.5204,-1.5204,-1.5204,-1.517,-1.509,-1.5859,-1.6514,0.0,-1.7313,-1.7858,-1.8532,-1.8672,-1.933,-2.0382,-2.0166,-2.0156,-2.0459,-2.0459,-2.0615,-2.0928,-2.126,-2.1475,-2.1602,-2.1914,-2.2129,-2.2246,-2.2549,-2.2685,-2.2715,-2.3018,-2.3135,-2.3135,-2.3135,-2.3135,-2.3135,-2.3135,-2.3135,-2.3135,0.0,0.0,0.0,0.0,0.0,0.0,0.0,0.0,-0.6979,0.0,0.0,0.0,-0.6979,-0.6979,-0.6979,-0.6979,-0.6979,-0.6979,-0.6979,-0.6979,-0.6979,-0.6979,-0.6999,-0.6993,-0.7007,-0.7479,0.0,0.0,0.0,0.0,0.0,0.0,0.0,0.0,0.0,0.0,0.0,0.0,0.0,0.0,-0.9038,0.0,0.0,-1.0461,-1.0949,0.0,0.0,0.0,-1.2218,-1.2091,-1.1657,0.0,0.0,0.0,0.0,0.0,0.0,0.0,0.0,0.0,0.0,0.0,0.0,0.0,-0.7241,-0.7649,-0.8259,0.0,0.0,0.0,0.0,0.0,0.0,0.0,-1.2325,-1.3307,-1.4048,-1.474,-1.5186,-1.5186,-1.5518,-1.572,-1.5675,-1.6231,-1.6834,-1.7187,-1.7641,-1.7931,-1.7931,-1.8448,-1.8807,-1.9042,-1.9194,-1.9404,-1.9648,-1.9648,-1.9863,-2.0303,-2.0557,-2.0879,-2.124,-2.1504,-2.1709,-2.1894,-2.2139,-2.2353,-2.2529,-2.2773,-2.2978,-2.3135,-2.3135,-2.3135,-2.3135,-2.3135,-2.3135,-2.3135,0.0,0.0,0.0,0.0,0.0,0.0,0.0,0.0,0.0,0.0,-0.7005,-0.6976,-0.6976,-0.6976,-0.6989,-0.698,-0.6996,-0.6989,-0.698,-0.6986,-0.6986,-0.6986,-0.6976,-0.707,-0.7205,-0.8238,0.0,0.0,0.0,0.0,0.0,0.0,0.0,0.0,0.0,0.0,0.0,0.0,0.0,-0.9163,-0.8998,-0.9432,0.0,0.0,-1.165,-1.2078,-1.2913,-1.3053,-1.2869,-1.2425,-1.1931,0.0,0.0,0.0,0.0,0.0,-0.8269,0.0,0.0,0.0,0.0,0.0,0.0,0.0,-0.7094,-0.7301,-0.7721,-0.8216,0.0,0.0,0.0,0.0,0.0,0.0,-1.0461,-1.1443,-1.3153,-1.4388,-1.516,-1.516,-1.5878,-1.6309,-1.6078,-1.6046,-1.6313,-1.7064,-1.7314,-1.7564,-1.7787,-1.8689,-1.8835,-1.8018,-1.8724,-1.915,-1.915,-1.9189,-1.9424,-1.9844,-1.9893,-2.0352,-2.1162,-2.1162,-2.1367,-2.1738,-2.1787,-2.2051,-2.2441,-2.249,-2.2754,-2.3135,-2.3135,-2.3135,-2.3135,-2.3135,-2.3135,-2.3135,-0.6979,0.0,0.0,0.0,0.0,0.0,0.0,0.0,0.0,-0.6979,-0.6985,-0.6982,-0.6982,-0.6982,-0.6981,-0.7009,-0.7013,-0.6981,-0.7009,-0.6975,-0.6975,-0.6975,-0.7024,-0.7468,-0.8413,-0.8683,-0.8767,0.0,0.0,0.0,0.0,0.0,0.0,0.0,0.0,0.0,0.0,0.0,0.0,-0.9196,-0.9439,0.0,-1.0868,-1.1269,-1.1904,-1.2708,-1.3053,-1.332,-1.3347,-1.2565,-1.2071,-1.1597,0.0,0.0,0.0,0.0,0.0,0.0,0.0,0.0,0.0,0.0,0.0,0.0,-0.7542,-0.7615,-0.7876,0.0,0.0,0.0,0.0,0.0,0.0,0.0,0.0,-1.0388,-1.1677,-1.2452,-1.2941,-1.2941,-1.3085,-1.3208,-1.3145,-1.3145,-1.3191,-1.335,-1.512,-1.6469,-1.7152,-1.818,-1.8618,-1.8475,-1.8298,-1.8262,-1.8262,-1.8594,-1.8984,-1.9414,-1.9756,-2.0185,-2.0693,-2.0693,-2.0742,-2.084,-2.1201,-2.1611,-2.2031,-2.2373,-2.2754,-2.3135,-2.3135,-2.3135,-2.3135,-2.3135,-2.3135,-2.3135,-0.6979,0.0,0.0,0.0,0.0,0.0,0.0,0.0,0.0,-0.6985,-0.7,-0.7228,-0.7854,-0.7907,-0.7656,-0.7068,-0.7529,-0.7922,-0.7923,-0.7882,-0.7882,-0.7882,-0.7905,-0.8167,-0.8769,-0.8776,-0.8788,0.0,0.0,0.0,0.0,0.0,0.0,0.0,0.0,0.0,0.0,0.0,-0.9058,-0.9472,-0.9626,0.0,-1.0842,-1.1423,-1.2011,-1.2585,-1.3046,-1.3307,-1.3267,-1.2218,-1.1964,0.0,0.0,-1.0452,-1.0305,0.0,-0.9389,-0.8726,0.0,0.0,0.0,-0.796,0.0,0.0,0.0,-0.7582,-0.7602,-0.8056,-0.7789,-0.7615,0.0,0.0,0.0,0.0,-0.8637,-0.9239,-0.982,-1.1219,-1.2158,-1.2158,-1.2557,-1.2826,-1.2826,-1.2969,-1.3134,-1.3299,-1.4367,-1.5177,-1.5532,-1.6492,-1.7137,-1.7267,-1.7514,-1.7803,-1.8008,-1.8223,-1.8652,-1.9287,-1.9277,-1.9609,-2.0244,-2.0244,-2.0244,-2.0264,-2.0713,-2.1279,-2.1885,-2.1875,-2.2373,-2.3135,-2.3135,-2.3135,-2.3135,-2.3135,-2.3135,-2.3135,-0.6979,0.0,0.0,0.0,0.0,0.0,0.0,0.0,0.0,-0.7309,-0.7345,-0.7736,-0.8686,0.0,0.0,0.0,-0.8216,-0.8783,-0.8798,-0.8813,-0.8825,-0.8825,-0.8784,-0.8802,-0.8802,-0.8808,-0.8804,-0.8804,0.0,0.0,0.0,0.0,0.0,0.0,0.0,0.0,0.0,0.0,0.0,-0.978,0.0,-1.0221,-1.0792,-1.1496,-1.1964,-1.2298,-1.2906,-1.316,-1.3046,-1.1964,-1.1911,-1.2096,-1.1071,-1.083,0.0,0.0,0.0,0.0,0.0,0.0,0.0,0.0,0.0,-0.7949,0.0,0.0,0.0,-0.7996,-0.7528,0.0,0.0,0.0,0.0,0.0,0.0,0.0,0.0,-1.0012,0.0,-1.1383,-1.2047,-1.2553,-1.256,-1.2826,-1.3222,-1.3644,-1.3727,-1.3866,-1.4126,-1.4976,-1.5652,-1.6054,-1.692,-1.7549,-1.7881,-1.7969,-1.8398,-1.916,-1.8799,-1.9043,-1.9795,-1.9795,-1.9844,-1.9932,-2.0283,-2.0937,-2.1738,-2.1387,-2.1894,-2.291,-2.2988,-2.3066,-2.3135,-2.3135,-2.3135,-2.3135,-0.6979,-0.6979,0.0,0.0,0.0,0.0,0.0,0.0,0.0,-0.8435,-0.8591,0.0,0.0,0.0,0.0,0.0,0.0,0.0,-0.8816,0.0,0.0,-0.8822,-0.8797,-0.8817,-0.8817,-0.8791,-0.8804,-0.8804,0.0,0.0,0.0,0.0,0.0,0.0,-0.8804,0.0,0.0,0.0,-0.9502,0.0,-1.0635,-1.0882,0.0,-1.1343,-1.1663,-1.1997,-1.2661,-1.2973,-1.3106,0.0,-1.2245,-1.2198,0.0,-1.0985,-1.0623,0.0,0.0,0.0,0.0,0.0,0.0,0.0,-0.9098,0.0,0.0,0.0,-0.8023,-0.7321,0.0,0.0,0.0,0.0,0.0,0.0,0.0,0.0,-0.7654,-0.8323,-0.8919,-0.9132,-0.9267,-0.9425,-0.9632,-0.9992,-1.0471,-1.1241,-1.1626,-1.259,-1.4261,-1.4866,-1.5573,-1.6587,-1.7113,-1.7402,-1.7451,-1.7822,-1.8242,-1.8711,-1.8662,-1.8887,-1.9355,-1.9355,-1.9561,-1.9912,-1.9971,-2.0488,-2.1309,-2.125,-2.1543,-2.206,-2.2441,-2.2812,-2.3135,-2.3135,-2.3135,-2.3135,-0.6979,0.0,0.0,0.0,0.0,0.0,0.0,0.0,0.0,0.0,0.0,0.0,0.0,0.0,0.0,0.0,0.0,-1.0997,0.0,0.0,0.0,0.0,0.0,0.0,-0.8807,-0.8803,-0.8804,-0.8804,-0.8804,0.0,0.0,0.0,0.0,0.0,-0.8985,0.0,-0.9216,0.0,0.0,0.0,0.0,0.0,0.0,-1.1697,-1.2011,-1.2151,-1.2398,-1.2572,-1.2619,0.0,-1.2051,0.0,0.0,0.0,0.0,0.0,0.0,0.0,0.0,0.0,0.0,0.0,0.0,0.0,-0.845,0.0,-0.7889,0.0,0.0,0.0,0.0,0.0,0.0,0.0,-0.7381,0.0,0.0,0.0,-0.7769,0.0,0.0,0.0,-0.8945,-0.8951,-0.9376,-1.0376,-1.025,-1.0884,-1.2483,-1.2764,-1.3675,-1.5331,-1.5754,-1.6398,-1.7373,-1.7559,-1.7978,-1.8633,-1.8389,-1.8496,-1.8906,-1.8906,-1.9004,-1.9199,-1.9697,-2.0264,-2.084,-2.084,-2.126,-2.1875,-2.1807,-2.2187,-2.2803,-2.3047,-2.3135,-2.3135,0.0,0.0,0.0,0.0,0.0,0.0,0.0,0.0,0.0,0.0,0.0,0.0,-1.0001,-1.1715,0.0,0.0,-1.2412,-1.2867,0.0,0.0,-0.9149,0.0,0.0,0.0,0.0,0.0,-0.8829,-0.8925,0.0,0.0,0.0,0.0,0.0,0.0,0.0,-0.9196,-0.9462,0.0,0.0,-1.0635,-1.1062,-1.1411,-1.1812,-1.2393,-1.2802,-1.3091,-1.3091,-1.3091,-1.3055,-1.2555,-1.2359,0.0,-1.2193,0.0,0.0,0.0,0.0,0.0,-1.016,0.0,0.0,0.0,0.0,0.0,0.0,0.0,0.0,0.0,0.0,0.0,0.0,0.0,0.0,0.0,0.0,-0.7462,0.0,0.0,0.0,0.0,0.0,0.0,0.0,-0.8323,-0.8669,-0.962,-0.9288,-0.9775,-1.1358,-1.136,-1.2183,-1.4092,-1.4769,-1.5642,-1.6852,-1.73,-1.7861,-1.8457,-1.8154,-1.8164,-1.8467,-1.8467,-1.8525,-1.8601,-1.9424,-1.999,-2.0391,-2.0518,-2.0947,-2.1504,-2.1309,-2.1611,-2.2217,-2.2646,-2.2861,-2.2969,-0.6979,-0.6979,0.0,0.0,0.0,0.0,0.0,0.0,0.0,0.0,0.0,0.0,0.0,0.0,0.0,0.0,0.0,-1.3594,-1.2251,0.0,-1.0002,0.0,0.0,-1.1108,0.0,0.0,0.0,0.0,0.0,0.0,0.0,0.0,0.0,0.0,0.0,-0.9292,-1.0087,-1.012,-1.0782,-1.1817,-1.183,-1.2578,-1.3598,0.0,-1.4026,-1.5092,-1.5092,0.0,0.0,-1.3947,-1.345,-1.3094,-1.2204,0.0,0.0,0.0,0.0,0.0,0.0,0.0,0.0,-1.0187,0.0,0.0,0.0,0.0,-0.8604,0.0,0.0,0.0,0.0,0.0,0.0,0.0,0.0,0.0,0.0,0.0,0.0,0.0,0.0,0.0,0.0,-0.7776,-0.8133,-0.8699,-0.8746,-0.9628,-1.1688,-1.1506,-1.2003,-1.357,-1.4825,-1.5514,-1.5542,-1.7149,-1.8008,-1.8027,-1.8018,-1.8018,-1.8037,-1.8037,-1.8252,-1.8662,-1.9111,-1.9541,-1.9971,-2.0391,-2.0586,-2.0654,-2.1074,-2.125,-2.1328,-2.1768,-2.2178,-2.2539,0.0,0.0,0.0,0.0,0.0,0.0,0.0,-0.852,0.0,0.0,0.0,0.0,0.0,-1.1985,-1.4243,0.0,0.0,-1.5038,-1.4616,-1.2116,0.0,0.0,0.0,-1.077,0.0,0.0,0.0,0.0,0.0,0.0,0.0,0.0,0.0,0.0,0.0,-0.9659,0.0,0.0,0.0,0.0,0.0,-1.2991,-1.3209,0.0,-1.4284,-1.5234,-1.5234,-1.5234,-1.5163,-1.4807,-1.4664,-1.4387,-1.3368,-1.291,-1.2534,-1.1693,-1.139,-1.1282,-1.1306,-1.1378,-1.1362,-1.1036,0.0,0.0,0.0,0.0,0.0,0.0,0.0,0.0,0.0,0.0,0.0,0.0,0.0,0.0,0.0,0.0,0.0,0.0,0.0,0.0,0.0,0.0,-0.763,-0.8371,-0.8431,-0.902,-1.036,-1.0673,-1.1606,-1.3212,-1.3412,-1.4232,-1.589,-1.5923,-1.6485,-1.7598,-1.7598,-1.7744,-1.8008,-1.8008,-1.8242,-1.8662,-1.9102,-1.9531,-1.9951,-2.0391,-2.0566,-2.0576,-2.0732,-2.0791,-2.0879,-2.1611,-2.2148,-2.2549,-0.6984,0.0,0.0,0.0,0.0,0.0,0.0,0.0,0.0,0.0,-1.028,0.0,-1.13,0.0,-1.5027,0.0,-1.7358,-1.8385,-1.8391,-1.6269,0.0,-1.1974,-1.1424,0.0,0.0,0.0,0.0,0.0,0.0,-0.9993,0.0,0.0,0.0,0.0,0.0,0.0,0.0,0.0,-1.1223,0.0,0.0,-1.3546,0.0,0.0,-1.4895,-1.5609,-1.6035,-1.6228,-1.6158,-1.5799,-1.5675,-1.5497,-1.4568,-1.4071,-1.3748,-1.2721,-1.2305,-1.2137,-1.197,-1.1872,-1.1847,-1.1663,-1.1149,0.0,-1.0107,0.0,-0.9345,0.0,0.0,0.0,0.0,0.0,0.0,0.0,0.0,0.0,0.0,-0.6979,0.0,0.0,0.0,0.0,0.0,0.0,-0.7313,-0.8083,-0.8141,-0.8591,0.0,-1.0041,-1.1003,-1.2604,-1.2756,-1.3562,-1.517,-1.5452,-1.6008,-1.6949,-1.7242,-1.7607,-1.8008,-1.8008,-1.8154,-1.8447,-1.9033,-1.9443,-1.9736,-2.0322,-2.0566,-2.0566,-2.0566,-2.0566,-2.0635,-2.1211,-2.1787,-2.2373,0.0,0.0,0.0,0.0,-0.7069,0.0,0.0,0.0,-0.8857,0.0,-1.3009,-1.579,-1.5896,-1.6073,-1.6037,-1.5861,-2.0002,-2.2732,-2.2729,-2.2678,0.0,0.0,-1.3244,-1.2941,-1.3322,0.0,0.0,0.0,0.0,0.0,0.0,0.0,0.0,0.0,-0.9475,0.0,-1.0645,-1.0855,-1.1384,-1.2084,-1.2931,-1.4292,-1.5829,-1.599,-1.6048,-1.6294,-1.7562,-1.8008,-1.7862,-1.6991,-1.6691,-1.6526,-1.5604,-1.5297,-1.4998,-1.377,-1.3542,-1.3483,-1.2298,-1.1945,-1.1932,-1.1942,-1.145,-1.0942,-1.0732,0.0,-1.0474,0.0,0.0,0.0,0.0,0.0,0.0,0.0,0.0,0.0,0.0,0.0,0.0,0.0,0.0,0.0,0.0,-0.6979,-0.7238,-0.7829,-0.7878,0.0,0.0,-0.9631,-1.0348,-1.19,-1.2978,-1.3622,-1.3702,-1.5612,-1.6417,-1.6145,-1.6996,-1.7578,-1.8008,-1.8008,-1.8018,-1.8086,-1.8926,-1.9297,-1.9385,-2.0225,-2.0566,-2.0566,-2.0566,-2.0576,-2.0596,-2.0625,-2.1172,-2.2031,-0.8161,-0.8611,-0.8725,0.0,-0.8317,-0.8416,0.0,0.0,0.0,0.0,-1.4295,-1.518,-1.6984,-1.9579,-1.9744,-1.6127,-1.6974,0.0,0.0,0.0,0.0,-1.5372,-1.7351,-1.7519,-1.563,-1.4038,0.0,-1.2461,0.0,0.0,-1.0618,0.0,0.0,0.0,0.0,0.0,-1.0624,-1.0641,-1.1595,-1.3072,-1.4977,-1.5403,-1.5189,0.0,-1.6861,-1.6294,-1.7562,-1.8008,-1.794,-1.7716,-1.7666,-1.751,-1.6569,-1.6234,-1.6061,-1.503,-1.4252,-1.3631,-1.3339,-1.2729,-1.2164,-1.2184,-1.175,-1.1296,-1.1223,-1.0868,-1.0474,0.0,0.0,0.0,0.0,0.0,0.0,0.0,0.0,0.0,0.0,0.0,0.0,-0.7976,0.0,0.0,0.0,-0.6979,-0.7063,-0.7238,-0.7655,0.0,0.0,0.0,-1.0814,-1.2457,-1.2603,-1.3416,-1.4896,-1.4898,-1.5439,-1.6555,-1.6757,-1.7295,-1.8008,-1.8008,-1.8184,-1.8506,-1.9053,-1.9463,-1.9795,-2.0342,-2.0566,-2.0566,-2.0566,-2.0771,-2.1103,-2.1426,-2.1894,-2.2432,-0.8691,0.0,0.0,-0.9497,0.0,0.0,-0.8908,0.0,0.0,-1.4579,-1.4462,0.0,-1.6632,-1.8664,-1.8824,-1.6042,-1.7781,0.0,-1.8949,0.0,0.0,-1.8939,-2.0754,-2.0426,-1.7717,-1.6063,0.0,-1.2821,0.0,0.0,-1.0367,0.0,0.0,0.0,0.0,-1.0094,0.0,-1.1129,-1.2269,-1.3818,-1.5599,-1.6111,0.0,-1.7293,-1.7408,-1.7034,-1.7707,-1.8008,-1.8008,-1.8008,-1.8008,-1.792,-1.7387,-1.7203,-1.703,-1.607,-1.5384,-1.4752,-1.3962,-1.331,-1.2806,-1.2372,-1.2051,-1.1777,-1.165,-1.1369,-1.1049,-1.0748,-1.0788,-1.0735,-1.039,-0.9876,0.0,0.0,0.0,0.0,0.0,0.0,0.0,0.0,-0.7923,0.0,-0.7047,-0.7433,-0.7516,-0.7021,-0.7572,0.0,0.0,0.0,-1.0282,-1.2096,-1.2736,-1.3544,-1.461,-1.5275,-1.5782,-1.6192,-1.6722,-1.7363,-1.8008,-1.8008,-1.8135,-1.8389,-1.8818,-1.9248,-1.9678,-2.0107,-2.0391,-2.0566,-2.0566,-2.0957,-2.1553,-2.1797,-2.2148,-2.2578,0.0,0.0,0.0,0.0,0.0,0.0,0.0,-1.0536,0.0,-1.3669,0.0,-1.4579,-1.6538,-1.672,-1.6778,-1.6773,0.0,-2.3062,-2.3084,-2.3076,-2.3079,-2.3113,-2.2914,-2.1709,-1.952,-1.7902,-1.5658,0.0,0.0,0.0,0.0,0.0,0.0,0.0,0.0,0.0,0.0,-1.1978,-1.329,-1.4446,-1.569,-1.6683,-1.7461,-1.7461,-1.7695,-1.8008,-1.8008,-1.8008,-1.8008,-1.8008,-1.8008,-1.8008,-1.8008,-1.8008,-1.7833,-1.703,-1.6683,-1.6213,-1.4554,-1.3882,-1.3528,-1.2659,-1.2372,-1.2238,-1.1984,-1.1897,-1.1784,-1.149,-1.1565,-1.1685,-1.172,-1.0808,0.0,0.0,0.0,0.0,0.0,0.0,0.0,0.0,0.0,0.0,0.0,0.0,0.0,0.0,0.0,0.0,0.0,0.0,-0.9351,-1.141,-1.2915,-1.3769,-1.3754,-1.6094,-1.6777,-1.5695,-1.6834,-1.7607,-1.8008,-1.8008,-1.8008,-1.8037,-1.8516,-1.8936,-1.9326,-1.9805,-2.0225,-2.0566,-2.0566,-2.1103,-2.1885,-2.1885,-2.2187,-2.2646,0.0,0.0,0.0,0.0,0.0,-1.1172,-1.2936,-1.4108,-1.434,-1.2781,-1.2588,-1.498,-2.1162,-2.1834,-2.1826,-2.1786,-2.2608,0.0,0.0,0.0,0.0,-2.3096,-2.1777,-2.0822,-2.0339,-1.8406,-1.6387,0.0,0.0,0.0,0.0,0.0,0.0,0.0,0.0,0.0,-1.1789,-1.3292,0.0,-1.5833,-1.7148,-1.7755,-1.79,-1.79,-1.7949,-1.8008,-1.8008,-1.8008,-1.8008,-1.8008,-1.8008,-1.8008,-1.8008,-1.8008,-1.7998,-1.7823,-1.7203,-1.6556,-1.6166,-1.4942,-1.3673,-1.3528,-1.2879,-1.2285,-1.2238,-1.2044,-1.1784,-1.149,-1.1283,-1.1205,-1.1345,-1.0846,-1.008,0.0,0.0,0.0,0.0,0.0,0.0,0.0,0.0,-0.8777,0.0,0.0,0.0,0.0,0.0,0.0,0.0,0.0,-0.9338,0.0,-1.2629,-1.3757,-1.469,-1.609,-1.6722,-1.6572,-1.712,-1.7607,-1.8008,-1.8008,-1.8008,-1.8047,-1.8828,-1.9219,-1.9346,-2.0127,-2.0498,-2.0566,-2.0566,-2.1103,-2.1885,-2.1885,-2.2373,-2.3037,0.0,0.0,0.0,0.0,0.0,0.0,0.0,-1.7187,-1.9185,-1.807,-1.7937,-1.9264,-2.2707,-2.3076,-2.3092,-2.3144,-2.3134,-2.3086,-2.3057,-2.3065,-2.308,-2.3083,-2.1457,-2.04,-1.9947,-1.8748,-1.7125,-1.498,0.0,0.0,-1.0696,0.0,0.0,0.0,0.0,-1.1446,0.0,0.0,0.0,-1.6209,-1.7475,-1.8008,-1.8008,-1.8008,-1.8008,-1.8008,-1.8008,-1.8008,-1.8008,-1.8008,-1.8008,-1.8008,-1.8008,-1.8008,-1.8008,-1.8008,-1.7658,-1.725,-1.6757,-1.593,-1.5084,-1.4593,-1.4163,-1.3665,-1.3164,-1.2912,-1.2642,-1.1787,-1.1758,-1.1898,-1.1975,-1.1783,-1.1271,-1.0263,0.0,0.0,0.0,0.0,0.0,0.0,0.0,0.0,0.0,0.0,0.0,0.0,0.0,0.0,0.0,0.0,-0.9696,0.0,0.0,-1.438,-1.4837,-1.6708,-1.735,-1.6754,-1.7408,-1.7812,-1.8008,-1.8008,-1.8125,-1.8359,-1.8769,-1.9199,-1.9668,-2.0303,-2.0703,-2.0908,-2.0908,-2.1445,-2.2207,-2.2207,-2.2607,-2.3135,0.0,-1.2604,0.0,0.0,-1.3119,0.0,-1.5823,-2.0059,-2.3142,-2.3065,-2.3097,-2.3108,-2.3108,-2.3093,-2.3135,-2.3135,-2.3135,-2.3135,-2.3135,-2.31,-2.2934,-2.2585,-2.1302,-2.0303,-1.9767,-1.9273,-1.7815,0.0,0.0,0.0,-1.1436,0.0,0.0,0.0,0.0,0.0,0.0,-1.495,-1.6066,-1.6606,-1.7581,-1.8008,-1.8008,-1.8008,-1.8008,-1.8008,-1.8008,-1.8008,-1.8008,-1.8008,-1.8008,-1.8008,-1.8008,-1.8008,-1.8008,-1.8008,-1.8008,-1.7862,-1.707,-1.6775,-1.6419,-1.5649,-1.5163,-1.4665,-1.389,-1.3528,-1.315,-1.2138,-1.2405,-1.2845,-1.2967,-1.2983,-1.258,-1.123,0.0,0.0,0.0,0.0,0.0,0.0,0.0,0.0,-0.7802,0.0,0.0,0.0,0.0,0.0,-0.9768,0.0,0.0,0.0,-1.3829,-1.4625,-1.4599,-1.7098,-1.791,-1.7006,-1.7765,-1.8193,-1.8281,-1.8281,-1.8457,-1.8779,-1.8867,-1.9346,-2.0088,-2.0527,-2.0918,-2.125,-2.1338,-2.1836,-2.251,-2.251,-2.2783,-2.3135,0.0,0.0,0.0,0.0,0.0,0.0,-2.1379,-2.2742,-2.3076,-2.3123,-2.3135,-2.3076,-2.3076,-2.3115,-2.3135,-2.3135,-2.3135,-2.3135,-2.3135,-2.31,-2.2395,-2.0902,-2.0702,-2.0779,-2.1178,-1.996,-1.8433,0.0,0.0,-1.3143,-1.1897,0.0,0.0,0.0,0.0,-1.3477,-1.5369,-1.586,-1.6768,-1.7813,-1.792,-1.8008,-1.8008,-1.8008,-1.8008,-1.8008,-1.8008,-1.8008,-1.8008,-1.8008,-1.8008,-1.8008,-1.8008,-1.8008,-1.8008,-1.8008,-1.8008,-1.8008,-1.7872,-1.7285,-1.6567,-1.6489,-1.5155,-1.3818,-1.3745,-1.3025,-1.2364,-1.2002,-1.2684,-1.3469,-1.4022,-1.4206,-1.3602,-1.1744,0.0,0.0,0.0,0.0,-1.0723,0.0,0.0,0.0,0.0,-0.8049,0.0,0.0,-0.852,0.0,0.0,0.0,0.0,-1.181,-1.259,-1.3321,-1.399,-1.6299,-1.765,-1.7997,-1.8394,-1.8789,-1.917,-1.917,-1.9189,-1.9248,-1.9629,-2.0068,-2.0537,-2.0986,-2.1201,-2.1279,-2.167,-2.2109,-2.251,-2.251,-2.2783,-2.3135,0.0,0.0,0.0,0.0,0.0,0.0,0.0,-2.3113,-2.3125,-2.3086,-2.3106,-2.3135,-2.3135,-2.3135,-2.3135,-2.3135,-2.3135,-2.3135,-2.3135,-2.31,-2.2393,-2.0708,-2.0599,-2.0505,-2.0387,-1.9683,-1.8724,0.0,0.0,0.0,0.0,-1.2774,-1.2609,-1.3405,-1.4277,-1.5125,-1.6028,-1.6853,-1.7562,-1.8008,-1.8008,-1.8008,-1.8008,-1.8008,-1.8008,-1.8008,-1.8008,-1.8008,-1.8008,-1.8008,-1.8008,-1.8008,-1.8008,-1.8008,-1.8008,-1.8008,-1.8008,-1.8008,-1.8008,-1.7725,-1.7432,-1.7432,-1.6862,-1.6018,-1.4879,-1.4307,-1.37,-1.2362,-1.3177,-1.4231,-1.4876,-1.4551,-1.3907,-1.2911,-1.2622,0.0,0.0,0.0,0.0,0.0,0.0,0.0,0.0,0.0,0.0,0.0,0.0,0.0,0.0,-1.0344,-1.1023,-1.2518,-1.3764,-1.4621,-1.5223,-1.6938,-1.7812,-1.8037,-1.872,-1.9121,-1.9287,-1.9287,-1.9424,-1.9687,-2.0117,-2.0557,-2.0986,-2.1162,-2.1533,-2.2021,-2.2197,-2.2519,-2.2891,-2.2891,-2.2998,-2.3135,-1.7991,0.0,-2.2699,0.0,-2.1324,-2.1713,-2.2926,-2.3114,-2.3135,-2.3135,-2.3135,-2.3135,-2.3135,-2.3135,-2.3135,-2.3135,-2.3144,-2.3085,-2.3085,-2.3118,-2.234,-2.0639,-2.0633,0.0,-1.9732,-1.9409,-1.8926,-1.8193,-1.6495,0.0,-1.5678,-1.4384,-1.4151,-1.4844,-1.5704,-1.6312,-1.6719,-1.7591,-1.8008,-1.8008,-1.8008,-1.8008,-1.8008,-1.8008,-1.8008,-1.8008,-1.8008,-1.8008,-1.8008,-1.8008,-1.8008,-1.8008,-1.8008,-1.8008,-1.8008,-1.8008,-1.8008,-1.8008,-1.8008,-1.8008,-1.8008,-1.8008,-1.7794,-1.7217,-1.5939,-1.5163,-1.445,-1.3375,-1.4097,-1.5179,-1.6037,-1.5581,-1.4789,-1.3953,-1.3772,0.0,0.0,-1.2831,0.0,0.0,-1.1492,-1.1274,-1.0865,-0.9886,0.0,0.0,0.0,0.0,0.0,-1.0847,-1.1619,-1.3059,-1.427,-1.5252,-1.5984,-1.7346,-1.8203,-1.8574,-1.918,-1.9541,-1.9668,-1.9668,-1.9824,-2.0117,-2.043,-2.082,-2.125,-2.1367,-2.1855,-2.2519,-2.2646,-2.2881,-2.3135,-2.3135,-2.3135,-2.3135,-2.2993,-2.3027,-2.3093,-2.3037,-2.3083,-2.3083,-2.3093,-2.3113,-2.3135,-2.3135,-2.3135,-2.3135,-2.3135,-2.3135,-2.3135,-2.3135,-2.311,-2.3093,-2.3093,-2.3074,-2.2342,0.0,0.0,-2.0352,-1.9723,-1.9409,-1.9072,-1.8562,0.0,0.0,-1.6087,-1.4835,-1.4927,-1.6087,-1.6096,-1.6814,-1.7998,-1.8008,-1.8008,-1.8008,-1.8008,-1.8008,-1.8008,-1.8008,-1.8008,-1.8008,-1.8008,-1.8008,-1.8008,-1.8008,-1.8008,-1.8008,-1.8008,-1.8008,-1.8008,-1.8008,-1.8008,-1.8008,-1.8008,-1.8008,-1.8008,-1.8008,-1.7285,-1.6636,-1.6567,-1.5084,-1.3954,-1.495,-1.5558,-1.6291,-1.7697,-1.7656,-1.6684,-1.4601,-1.5304,-1.5043,0.0,-1.2997,0.0,-1.1089,-1.1106,-1.1068,-1.0577,-1.0203,0.0,0.0,0.0,0.0,0.0,-1.1201,-1.1515,-1.3059,-1.3597,-1.4442,-1.5689,-1.7226,-1.8643,-1.9893,-1.9902,-2.0137,-2.0547,-2.0547,-2.0557,-2.0557,-2.0566,-2.082,-2.1269,-2.1699,-2.2129,-2.2549,-2.2969,-2.3135,-2.3135,-2.3135,-2.3135,-2.3135,-2.3115,-2.3086,-2.3076,-2.3085,-2.3075,-2.3075,-2.3075,-2.3076,-2.3135,-2.3135,-2.3135,-2.3135,-2.3135,-2.3135,-2.3135,0.0,-2.3134,-2.2601,0.0,-2.1381,-2.1186,-2.0633,-2.0579,-2.0507,-2.0352,-1.9648,-1.9219,-1.9082,-1.7648,-1.7025,-1.6959,-1.6901,-1.7043,-1.7378,-1.7378,-1.7591,-1.8008,-1.8008,-1.8008,-1.8008,-1.8008,-1.8008,-1.8008,-1.8008,-1.8008,-1.8008,-1.8008,-1.8008,-1.8008,-1.8008,-1.8008,-1.8008,-1.8008,-1.8008,-1.8008,-1.8008,-1.8008,-1.8008,-1.8008,-1.8008,-1.8008,-1.8008,-1.7794,-1.7354,-1.6775,-1.5649,-1.4807,-1.5163,-1.5558,-1.63,-1.7716,-1.7091,-1.5921,-1.4535,-1.503,-1.479,-1.2506,0.0,-1.4147,-1.3168,-1.3141,-1.3267,-1.3414,-1.2608,0.0,0.0,0.0,0.0,0.0,-1.2094,-1.2841,-1.3923,-1.5175,-1.6268,-1.7235,-1.8308,-1.9228,-1.9922,-2.0215,-2.0596,-2.1016,-2.0703,-2.0889,-2.1445,-2.1152,-2.1435,-2.2119,-2.2256,-2.2559,-2.2949,-2.3086,-2.3135,-2.3135,-2.3135,-2.3135,-2.3135,-2.3096,-2.3135,-2.3135,-2.3135,-2.3135,-2.3135,-2.3135,-2.3135,-2.3135,-2.3135,-2.3135,-2.3135,-2.3135,-2.3135,-2.3135,-2.3135,-2.3114,-2.2629,-2.1635,-2.0931,-2.063,-2.0591,-2.0572,-2.0479,-2.0098,-1.9561,-1.9131,-1.8809,-1.8008,-1.7617,-1.7627,-1.7881,-1.8008,-1.8008,-1.8008,-1.8008,-1.8008,-1.8008,-1.8008,-1.8008,-1.8008,-1.8008,-1.8008,-1.8008,-1.8008,-1.8008,-1.8008,-1.8008,-1.8008,-1.8008,-1.8008,-1.8008,-1.8008,-1.8008,-1.8008,-1.8008,-1.8008,-1.8008,-1.8008,-1.8008,-1.8008,-1.8008,-1.8008,-1.7725,-1.6784,-1.6428,-1.6158,-1.5799,-1.6231,-1.6975,-1.7813,-1.7282,-1.6273,-1.5071,-1.542,-1.516,-1.3288,-1.42,-1.4683,0.0,0.0,-1.4259,-1.443,-1.4081,-1.3802,0.0,0.0,0.0,0.0,-1.3331,-1.3902,-1.5012,-1.6263,-1.7461,-1.8477,-1.918,-1.9736,-2.0166,-2.0605,-2.0879,-2.0977,-2.0869,-2.1025,-2.1387,-2.1279,-2.1631,-2.2295,-2.2451,-2.2754,-2.3135,-2.3135,-2.3135,-2.3135,-2.3135,-2.3135,-2.3135,-2.3135,-2.3135,-2.3135,-2.3135,-2.3135,-2.3135,-2.3135,-2.3135,-2.3135,-2.3135,-2.3135,-2.3135,-2.3135,-2.3135,-2.3135,-2.3135,-2.311,-2.3123,-2.3134,-2.1494,-2.0611,-2.0586,-2.0566,-2.0176,-1.9346,-1.9307,-1.8867,-1.8008,-1.8008,-1.8008,-1.8008,-1.8008,-1.8008,-1.8008,-1.8008,-1.8008,-1.8008,-1.8008,-1.8008,-1.8008,-1.8008,-1.8008,-1.8008,-1.8008,-1.8008,-1.8008,-1.8008,-1.8008,-1.8008,-1.8008,-1.8008,-1.8008,-1.8008,-1.8008,-1.8008,-1.8008,-1.8008,-1.8008,-1.8008,-1.8008,-1.8008,-1.8008,-1.8008,-1.7725,-1.6784,-1.7354,-1.7716,-1.6784,-1.7335,-1.7978,-1.8008,-1.7988,-1.7533,-1.6133,-1.6308,-1.6033,-1.4225,-1.4768,-1.484,-1.3387,-1.3974,-1.4323,-1.3974,-1.4676,-1.5224,0.0,0.0,0.0,-1.6004,-1.4815,-1.4805,-1.6172,-1.7061,-1.8096,-1.9316,-1.9746,-2.0166,-2.0566,-2.1025,-2.1025,-2.0674,-2.1084,-2.1084,-2.0762,-2.1123,-2.1523,-2.1963,-2.2324,-2.2715,-2.3096,-2.3096,-2.3115,-2.3135,-2.3105,-2.3096,-2.3096,-2.3135,-2.3135,-2.3135,-2.3135,-2.3135,-2.3135,-2.3135,-2.3135,-2.3135,-2.3135,-2.3135,-2.3135,-2.3135,-2.3135,-2.3135,-2.3135,-2.311,-2.3123,-2.3134,-2.1494,-2.0611,-2.0586,-2.0566,-2.0312,-1.9775,-1.9453,-1.8867,-1.8008,-1.8008,-1.8008,-1.8008,-1.8008,-1.8008,-1.8008,-1.8008,-1.8008,-1.8008,-1.8008,-1.8008,-1.8008,-1.8008,-1.8008,-1.8008,-1.8008,-1.8008,-1.8008,-1.8008,-1.8008,-1.8008,-1.8008,-1.8008,-1.8008,-1.8008,-1.8008,-1.8008,-1.8008,-1.8008,-1.8008,-1.8008,-1.8008,-1.8008,-1.8008,-1.8008,-1.7725,-1.6784,-1.7354,-1.7716,-1.6784,-1.7109,-1.7627,-1.7949,-1.7744,-1.71,-1.5789,-1.6185,-1.599,-1.3983,-1.4402,-1.4797,-1.4426,-1.4859,-1.5263,-1.5554,-1.5756,-1.5775,-1.5663,0.0,-1.623,-1.5392,-1.672,-1.7465,-1.7549,-1.8389,-1.9131,-1.9756,-2.0195,-2.0469,-2.0566,-2.1025,-2.1357,-2.1582,-2.168,-2.2021,-2.25,-2.1963,-2.1973,-2.2344,-2.2129,-2.2275,-2.2656,-2.2656,-2.2852,-2.3096,-2.2783,-2.2656,-2.2617,-2.3135,-2.3135,-2.3135,-2.3135,-2.3135,-2.3135,-2.3135,-2.3135,-2.3135,-2.3135,-2.3135,-2.3135,-2.3135,-2.3135,-2.3135,-2.3135,-2.3065,-2.2768,-2.2026,-2.1125,-2.0604,-2.0586,-2.0566,-2.0273,-1.9639,-1.9404,-1.8867,-1.8008,-1.8008,-1.8008,-1.8008,-1.8008,-1.8008,-1.8008,-1.8008,-1.8008,-1.8008,-1.8008,-1.8008,-1.8008,-1.8008,-1.8008,-1.8008,-1.8008,-1.8008,-1.8008,-1.8008,-1.8008,-1.8008,-1.8008,-1.8008,-1.8008,-1.8008,-1.8008,-1.8008,-1.8008,-1.8008,-1.8008,-1.8008,-1.8008,-1.8008,-1.8008,-1.8008,-1.7872,-1.7364,-1.7647,-1.7862,-1.7354,-1.7465,-1.7744,-1.7969,-1.7666,-1.7096,-1.6194,-1.6067,-1.5631,-1.4326,-1.4495,-1.4863,-1.5049,-1.5811,-1.6406,-1.6641,-1.7197,-1.7406,-1.7025,-1.7572,-1.7649,-1.7064,-1.8392,-1.8848,-1.8037,-1.9023,-1.9775,-2.0215,-2.0449,-2.0566,-2.0576,-2.1221,-2.1553,-2.1592,-2.1797,-2.2021,-2.2246,-2.1787,-2.1836,-2.2217,-2.2187,-2.2422,-2.2793,-2.2793,-2.2939,-2.3086,-2.2666,-2.251,-2.2451,-2.3135,-2.3135,-2.3135,-2.3135,-2.3135,-2.3135,-2.3135,-2.3135,-2.3135,-2.3135,-2.3135,-2.3135,-2.3135,-2.3135,-2.3135,-2.3135,-2.3135,-2.2476,-2.1051,-2.0761,-2.0595,-2.0596,-2.0596,-2.0166,-1.9307,-1.916,-1.874,-1.8008,-1.8008,-1.8008,-1.8008,-1.8008,-1.8008,-1.8008,-1.8008,-1.8008,-1.8008,-1.8008,-1.8008,-1.8008,-1.8008,-1.8008,-1.8008,-1.8008,-1.8008,-1.8008,-1.8008,-1.8008,-1.8008,-1.8008,-1.8008,-1.8008,-1.8008,-1.8008,-1.8008,-1.8008,-1.8008,-1.8008,-1.8008,-1.8008,-1.8008,-1.8008,-1.8008,-1.8008,-1.8008,-1.8057,-1.8086,-1.8018,-1.8057,-1.8086,-1.8018,-1.7666,-1.7246,-1.6807,-1.5996,-1.5264,-1.4844,-1.4844,-1.5039,-1.5459,-1.668,-1.75,-1.7568,-1.8555,-1.9092,-1.8848,-1.9111,-1.9287,-1.9287,-1.9746,-1.9453,-1.8242,-1.9375,-2.0195,-2.0634,-2.0566,-2.0566,-2.0576,-2.1396,-2.1621,-2.1348,-2.1787,-2.1777,-2.1426,-2.1426,-2.1602,-2.1914,-2.2275,-2.2666,-2.3047,-2.3047,-2.3086,-2.3086,-2.2666,-2.2471,-2.2353,-2.3135,-2.3135,-2.3135,-2.3135,-2.3135,-2.3135,-2.3135,-2.3135,-2.3135,-2.3135,-2.3135,-2.3135,-2.3135,-2.3135,-2.3135,-2.3135,-2.3135,-2.2959,-2.2689,-2.1414,-2.0633,-2.0608,-2.0566,-2.0166,-1.9307,-1.8584,-1.8144,-1.8008,-1.8008,-1.8008,-1.8008,-1.8008,-1.8008,-1.8008,-1.8008,-1.8008,-1.8008,-1.8008,-1.8008,-1.8008,-1.8008,-1.8008,-1.8008,-1.8008,-1.8008,-1.8008,-1.8008,-1.8008,-1.8008,-1.8008,-1.8008,-1.8008,-1.8008,-1.8008,-1.8008,-1.8008,-1.8008,-1.8008,-1.8008,-1.8008,-1.8008,-1.8008,-1.8008,-1.8008,-1.8008,-1.8281,-1.8437,-1.8086,-1.8291,-1.8428,-1.8076,-1.7666,-1.7246,-1.6807,-1.5996,-1.5264,-1.4844,-1.5088,-1.5478,-1.5908,-1.7119,-1.8047,-1.8408,-1.8623,-1.9004,-1.9668,-1.9453,-1.9287,-1.9287,-2.0039,-2.0039,-1.9121,-1.998,-2.0498,-2.0566,-2.0566,-2.0566,-2.0576,-2.1084,-2.1494,-2.1797,-2.2217,-2.2383,-2.2314,-2.2314,-2.2148,-2.1894,-2.1953,-2.2236,-2.2607,-2.2607,-2.2822,-2.3086,-2.2666,-2.2285,-2.1924,-2.3135,-2.3135,-2.3135,-2.3135,-2.3135,-2.3135,-2.3135,-2.3135,-2.3135,-2.3135,-2.3135,-2.3135,-2.3135,-2.3135,-2.3135,-2.3135,-2.3135,-2.2978,-2.2663,-2.1617,-2.1053,-2.1041,-2.0791,-2.0273,-1.9639,-1.8789,-1.835,-1.835,-1.8115,-1.8008,-1.8008,-1.8008,-1.8008,-1.8008,-1.8008,-1.8008,-1.8008,-1.8008,-1.8008,-1.8008,-1.8008,-1.8008,-1.8008,-1.8008,-1.8008,-1.8008,-1.8008,-1.8008,-1.8008,-1.8008,-1.8008,-1.8008,-1.8008,-1.8008,-1.8008,-1.8008,-1.8008,-1.8008,-1.8008,-1.8008,-1.8008,-1.8008,-1.8008,-1.8066,-1.8291,-1.8496,-1.8652,-1.8691,-1.8857,-1.8857,-1.8428,-1.8008,-1.7578,-1.7148,-1.6143,-1.543,-1.5469,-1.5644,-1.6016,-1.6689,-1.791,-1.8857,-1.9277,-1.9531,-1.9834,-2.0234,-2.0088,-1.9971,-1.9971,-2.0352,-2.0391,-1.999,-2.0361,-2.0566,-2.0566,-2.0566,-2.0566,-2.0576,-2.126,-2.1562,-2.1562,-2.2217,-2.2266,-2.1826,-2.1826,-2.1709,-2.1533,-2.1533,-2.1787,-2.2197,-2.2422,-2.2627,-2.2783,-2.2588,-2.2246,-2.1855,-2.3135,-2.3135,-2.3135,-2.3135,-2.3135,-2.3135,-2.3135,-2.3135,-2.3135,-2.3135,-2.3135,-2.3135,-2.3135,-2.3135,-2.3135,-2.3135,-2.3135,-2.2862,-2.232,-2.1791,-2.1467,-2.125,-2.0703,-2.0215,-1.9775,-1.9023,-1.8523,-1.8486,-1.8164,-1.8008,-1.8008,-1.8008,-1.8008,-1.8008,-1.8008,-1.8008,-1.8008,-1.8008,-1.8008,-1.8008,-1.8008,-1.8008,-1.8008,-1.8008,-1.8008,-1.8008,-1.8008,-1.8008,-1.8008,-1.8008,-1.8008,-1.8008,-1.8008,-1.8008,-1.8008,-1.8008,-1.8076,-1.8135,-1.8037,-1.8086,-1.8154,-1.8154,-1.8232,-1.8389,-1.8711,-1.8867,-1.9004,-1.9238,-1.9365,-1.9297,-1.8867,-1.8437,-1.8047,-1.7725,-1.666,-1.6025,-1.6455,-1.6602,-1.6953,-1.7734,-1.8867,-1.9707,-2.0029,-2.0371,-2.0566,-2.0566,-2.0664,-2.0674,-2.0566,-2.0664,-2.0674,-2.0566,-2.0566,-2.0566,-2.0566,-2.0566,-2.0566,-2.0576,-2.125,-2.1514,-2.1406,-2.207,-2.2012,-2.1396,-2.1494,-2.1426,-2.124,-2.1348,-2.1582,-2.1924,-2.2236,-2.2363,-2.2363,-2.2363,-2.21,-2.1748,-2.3135,-2.3135,-2.3135,-2.3135,-2.3135,-2.3135,-2.3135,-2.3135,-2.3135,-2.3135,-2.3135,-2.3135,-2.3135,-2.3135,-2.3135,-2.3135,-2.3135,-2.2862,-2.232,-2.2016,-2.1477,-2.0723,-2.0207,-1.9766,-1.9346,-1.8877,-1.8447,-1.8057,-1.8027,-1.8008,-1.8008,-1.8008,-1.8008,-1.8008,-1.8008,-1.8008,-1.8008,-1.8008,-1.8008,-1.8008,-1.8008,-1.8008,-1.8008,-1.8008,-1.8008,-1.8008,-1.8008,-1.8008,-1.8008,-1.8008,-1.8008,-1.8008,-1.8008,-1.8008,-1.8008,-1.8008,-1.8281,-1.8506,-1.8115,-1.8291,-1.8594,-1.8594,-1.8896,-1.9199,-1.9238,-1.9541,-1.9717,-1.9365,-1.96,-1.9736,-1.9316,-1.8887,-1.8584,-1.8555,-1.7812,-1.7383,-1.7812,-1.8203,-1.8623,-1.9092,-1.9932,-2.0488,-2.0518,-2.0547,-2.0566,-2.0566,-2.0947,-2.1006,-2.0586,-2.0957,-2.0996,-2.0576,-2.0566,-2.0566,-2.0566,-2.0566,-2.0566,-2.0566,-2.0635,-2.1074,-2.1836,-2.1904,-2.1894,-2.1865,-2.2246,-2.1973,-2.126,-2.167,-2.1855,-2.1894,-2.1924,-2.1934,-2.1934,-2.1934,-2.165,-2.1338,-2.3135,-2.3135,-2.3135,-2.3135,-2.3135,-2.3135,-2.3135,-2.3135,-2.3135,-2.3135,-2.3135,-2.3135,-2.3135,-2.3135,-2.3135,-2.3135,-2.3135,-2.2842,-2.2065,-2.1973,-2.1553,-2.0643,-2.0401,-2.0244,-2.0088,-1.9394,-1.8965,-1.8799,-1.8271,-1.8008,-1.8008,-1.8008,-1.8008,-1.8008,-1.8008,-1.8008,-1.8008,-1.8008,-1.8008,-1.8008,-1.8008,-1.8008,-1.8008,-1.8008,-1.8008,-1.8008,-1.8008,-1.8008,-1.8008,-1.8008,-1.8008,-1.8008,-1.8008,-1.8191,-1.8427,-1.8708,-1.8916,-1.9004,-1.8848,-1.8916,-1.9043,-1.9043,-1.916,-1.9355,-1.9619,-1.9805,-1.9941,-2.0059,-2.0205,-2.0185,-1.9756,-1.9541,-1.9336,-1.9082,-1.8769,-1.8711,-1.9131,-1.9326,-1.959,-2.0029,-2.0615,-2.0977,-2.0977,-2.123,-2.1387,-2.1387,-2.1543,-2.1562,-2.1387,-2.1543,-2.1435,-2.0996,-2.124,-2.1123,-2.0576,-2.0566,-2.0566,-2.0566,-2.085,-2.1006,-2.1094,-2.1904,-2.1982,-2.1514,-2.2217,-2.2021,-2.1269,-2.1709,-2.1728,-2.1533,-2.206,-2.2275,-2.2275,-2.2275,-2.2168,-2.2012,-2.3135,-2.3135,-2.3135,-2.3135,-2.3135,-2.3135,-2.3135,-2.3135,-2.3135,-2.3135,-2.3135,-2.3135,-2.3135,-2.3135,-2.3135,-2.3135,-2.3135,-2.2832,-2.2129,-2.1826,-2.1348,-2.0596,-2.0566,-2.0439,-2.0166,-1.959,-1.916,-1.8887,-1.8301,-1.8008,-1.8008,-1.8008,-1.8008,-1.8008,-1.8008,-1.8008,-1.8008,-1.8008,-1.8008,-1.8008,-1.8008,-1.8008,-1.8008,-1.8008,-1.8008,-1.8008,-1.8008,-1.8008,-1.8008,-1.8008,-1.8008,-1.8018,-1.8183,-1.8498,-1.8881,-1.9335,-1.9463,-1.9556,-1.9648,-1.9687,-1.9658,-1.9521,-1.959,-1.9766,-2.0049,-2.0117,-2.0205,-2.0508,-2.0674,-2.0684,-2.0391,-2.0439,-2.04,-1.9971,-2.001,-2.0156,-2.0303,-2.0557,-2.0791,-2.0957,-2.1367,-2.1582,-2.1455,-2.1709,-2.1885,-2.1885,-2.2012,-2.209,-2.209,-2.1826,-2.1543,-2.125,-2.1523,-2.1328,-2.0576,-2.0703,-2.0703,-2.0566,-2.1025,-2.1143,-2.1016,-2.2041,-2.2187,-2.167,-2.2256,-2.21,-2.1455,-2.1768,-2.1709,-2.1504,-2.209,-2.2314,-2.2314,-2.2314,-2.2314,-2.2295,-2.3135,-2.3135,-2.3135,-2.3135,-2.3135,-2.3135,-2.3135,-2.3135,-2.3135,-2.3135,-2.3135,-2.3135,-2.3135,-2.3135,-2.3135,-2.3135,-2.3135,-2.2959,-2.2539,-2.1709,-2.1045,-2.0586,-2.0566,-2.0166,-1.9307,-1.9287,-1.8867,-1.8018,-1.8008,-1.8008,-1.8008,-1.8008,-1.8008,-1.8008,-1.8008,-1.8008,-1.8008,-1.8008,-1.8008,-1.8008,-1.8008,-1.8008,-1.8008,-1.8008,-1.8008,-1.8008,-1.8008,-1.8008,-1.8008,-1.8008,-1.8008,-1.8095,-1.8486,-1.8914,-1.9359,-1.9763,-1.9938,-1.9977,-2.0507,-2.0576,-2.0459,-2.0029,-2.0244,-2.0566,-2.0566,-2.0566,-2.0566,-2.0566,-2.0918,-2.123,-2.124,-2.1592,-2.1748,-2.1309,-2.1611,-2.1738,-2.1309,-2.1973,-2.2353,-2.1943,-2.2256,-2.2344,-2.1934,-2.1894,-2.1894,-2.1894,-2.2285,-2.2519,-2.2519,-2.1709,-2.125,-2.124,-2.125,-2.1025,-2.0576,-2.1016,-2.1016,-2.0576,-2.1025,-2.1465,-2.1904,-2.2324,-2.251,-2.251,-2.2519,-2.2275,-2.1894,-2.1894,-2.1894,-2.1894,-2.1894,-2.1894,-2.1894,-2.1894,-2.1894,-2.1953,-2.3135,-2.3135,-2.3135,-2.3135,-2.3135,-2.3135,-2.3135,-2.3135,-2.3135,-2.3135,-2.3135,-2.3135,-2.3135,-2.3135,-2.3135,-2.3135,-2.3135,-2.2959,-2.2539,-2.1992,-2.1494,-2.1055,-2.0732,-2.0303,-1.9736,-1.9434,-1.9014,-1.8447,-1.8154,-1.8008,-1.8008,-1.8008,-1.8008,-1.8008,-1.8008,-1.8008,-1.8008,-1.8008,-1.8008,-1.8008,-1.8008,-1.8008,-1.8008,-1.8008,-1.8008,-1.8008,-1.8008,-1.8008,-1.8008,-1.8008,-1.8008,-1.8134,-1.8839,-1.9345,-1.9887,-2.0584,-2.0644,-2.0585,-2.1279,-2.1035,-2.0537,-2.041,-2.0469,-2.0566,-2.0566,-2.0566,-2.0654,-2.0967,-2.1143,-2.1328,-2.1641,-2.1797,-2.1846,-2.1709,-2.2051,-2.2285,-2.2148,-2.2353,-2.2471,-2.2344,-2.2441,-2.2461,-2.2334,-2.2598,-2.2764,-2.2764,-2.2881,-2.2949,-2.2949,-2.2705,-2.2295,-2.1709,-2.2266,-2.208,-2.1045,-2.1475,-2.1475,-2.1045,-2.1484,-2.1758,-2.1904,-2.2324,-2.251,-2.2529,-2.2822,-2.2715,-2.2344,-2.2646,-2.2598,-2.2353,-2.2646,-2.2764,-2.2734,-2.2432,-2.251,-2.2705,-2.3135,-2.3135,-2.3135,-2.3135,-2.3135,-2.3135,-2.3135,-2.3135,-2.3135,-2.3135,-2.3135,-2.3135,-2.3135,-2.3135,-2.3135,-2.3135,-2.3135,-2.2959,-2.2539,-2.2119,-2.1689,-2.125,-2.0801,-2.0361,-1.9922,-1.9668,-1.9326,-1.8896,-1.8643,-1.8516,-1.8506,-1.834,-1.8262,-1.8252,-1.8086,-1.8008,-1.8008,-1.8008,-1.8008,-1.8008,-1.8008,-1.8008,-1.8008,-1.8008,-1.8008,-1.8008,-1.8008,-1.8008,-1.8008,-1.8008,-1.8203,-1.8597,-1.9118,-1.9724,-2.0304,-2.0779,-2.0767,-2.0736,-2.1423,-2.124,-2.0869,-2.1045,-2.082,-2.0605,-2.0791,-2.083,-2.0957,-2.1396,-2.1621,-2.1826,-2.209,-2.2266,-2.2324,-2.2158,-2.248,-2.2705,-2.2539,-2.2656,-2.2764,-2.2764,-2.2764,-2.2764,-2.2764,-2.2988,-2.3135,-2.3135,-2.3135,-2.3135,-2.3135,-2.2978,-2.2656,-2.2148,-2.2627,-2.2441,-2.1504,-2.208,-2.208,-2.1494,-2.1924,-2.2139,-2.2148,-2.2568,-2.2764,-2.2773,-2.3027,-2.2998,-2.2783,-2.3037,-2.2988,-2.2783,-2.3047,-2.3135,-2.3105,-2.2852,-2.292,-2.3066,-2.3135,-2.3135,-2.3135,-2.3135,-2.3135,-2.3135,-2.3135,-2.3135,-2.3135,-2.3135,-2.3135,-2.3135,-2.3135,-2.3135,-2.3135,-2.3135,-2.3135,-2.2959,-2.2539,-2.2158,-2.1728,-2.126,-2.084,-2.042,-1.998,-1.9932,-1.9707,-1.9287,-1.9287,-1.9287,-1.9277,-1.8848,-1.8592,-1.8672,-1.8213,-1.8047,-1.8115,-1.8047,-1.8057,-1.8115,-1.8037,-1.8037,-1.8057,-1.8027,-1.8037,-1.8057,-1.8018,-1.8037,-1.8057,-1.8018,-1.8564,-1.9331,-1.9317,-1.9927,-2.0644,-2.0654,-2.0656,-2.0724,-2.1225,-2.1318,-2.1396,-2.1836,-2.1309,-2.0791,-2.1201,-2.126,-2.1367,-2.1846,-2.2246,-2.2519,-2.2568,-2.2881,-2.3018,-2.2627,-2.2891,-2.3008,-2.2627,-2.29,-2.3135,-2.3135,-2.3135,-2.3135,-2.3135,-2.3135,-2.3135,-2.3135,-2.3135,-2.3135,-2.3135,-2.2773,-2.2549,-2.251,-2.2549,-2.2363,-2.1953,-2.2744,-2.2734,-2.1953,-2.2373,-2.2568,-2.2578,-2.2959,-2.3135,-2.3135,-2.3135,-2.3135,-2.3135,-2.3135,-2.3135,-2.3135,-2.3135,-2.3135,-2.3135,-2.3135,-2.3135,-2.3135,-2.3135,-2.3135,-2.3135,-2.3135,-2.3135,-2.3135,-2.3135,-2.3135,-2.3135,-2.3135,-2.3135,-2.3135,-2.3135,-2.3135,-2.3135,-2.3135,-2.3135,-2.2959,-2.2539,-2.2432,-2.2031,-2.1269,-2.1143,-2.0879,-2.0439,-2.0088,-1.9707,-1.9287,-1.9287,-1.9287,-1.9277,-1.8848,-1.8818,-1.9111,-1.835,-1.8379,-1.8965,-1.8291,-1.8398,-1.8955,-1.8281,-1.8213,-1.8467,-1.8135,-1.8213,-1.8457,-1.8125,-1.8223,-1.8447,-1.8115,-1.8564,-1.9331,-1.9317,-1.9927,-2.0654,-2.0976,-2.1072,-2.1263,-2.2055,-2.1992,-2.1846,-2.2275,-2.1982,-2.1631,-2.1719,-2.1475,-2.1445,-2.2217,-2.2451,-2.2617,-2.2939,-2.3076,-2.3105,-2.3018,-2.3076,-2.3105,-2.3018,-2.3086,-2.3135,-2.3135,-2.3135,-2.3135,-2.3135,-2.3135,-2.3135,-2.3135,-2.3135,-2.3135,-2.3135,-2.3057,-2.2852,-2.2519,-2.2832,-2.2803,-2.2383,-2.2881,-2.2881,-2.2383,-2.2803,-2.2998,-2.3008,-2.3096,-2.3135,-2.3135,-2.3135,-2.3135,-2.3135,-2.3135,-2.3135,-2.3135,-2.3135,-2.3135,-2.3135,-2.3135,-2.3135,-2.3135,-2.3135,-2.3135,-2.3135,-2.3135,-2.3135,-2.3135,-2.3135,-2.3135,-2.3135,-2.3135,-2.3135,-2.3135,-2.3135,-2.3135,-2.3135,-2.3135,-2.3135,-2.3047,-2.2822,-2.2441,-2.2012,-2.1562,-2.1143,-2.081,-2.0566,-2.0342,-2.0117,-1.9893,-1.9893,-1.9893,-1.9883,-1.9443,-1.9365,-1.9561,-1.8906,-1.8867,-1.9258,-1.8809,-1.8877,-1.9228,-1.8574,-1.8437,-1.8594,-1.8164,-1.8144,-1.833,-1.832,-1.8597,-1.8874,-1.8723,-1.9036,-1.962,-1.961,-2.0042,-2.0654,-2.0858,-2.1086,-2.1325,-2.2065,-2.2236,-2.2301,-2.2695,-2.249,-2.2187,-2.2187,-2.2012,-2.2031,-2.2676,-2.2812,-2.2881,-2.3096,-2.3135,-2.3135,-2.3135,-2.3135,-2.3135,-2.3135,-2.3135,-2.3135,-2.3135,-2.3135,-2.3135,-2.3135,-2.3135,-2.3135,-2.3135,-2.3135,-2.3135,-2.3135,-2.3135,-2.3037,-2.2822,-2.3027,-2.3027,-2.2812,-2.3027,-2.3027,-2.2812,-2.3037,-2.3135,-2.3135,-2.3135,-2.3135,-2.3135,-2.3135,-2.3135,-2.3135,-2.3135,-2.3135,-2.3135,-2.3135,-2.3135,-2.3135,-2.3135,-2.3135,-2.3135,-2.3135,-2.3135,-2.3135,-2.3135,-2.3135,-2.3135,-2.3135,-2.3135,-2.3135,-2.3135,-2.3135,-2.3135,-2.3135,-2.3135,-2.3105,-2.3037,-2.3096,-2.3076,-2.293,-2.2344,-2.1934,-2.1777,-2.1074,-2.0644,-2.0566,-2.0566,-2.0566,-2.0566,-2.0566,-2.0566,-2.0557,-2.0117,-1.9951,-2.0,-1.9424,-1.9297,-1.9492,-1.9268,-1.9307,-1.9463,-1.8955,-1.875,-1.8711,-1.8359,-1.8232,-1.8281,-1.8623,-1.8994,-1.927,-1.927,-1.964,-2.0031,-1.9916,-2.0246,-2.0664,-2.0664,-2.0976,-2.143,-2.1904,-2.2314,-2.2673,-2.3027,-2.2881,-2.2617,-2.2617,-2.2568,-2.2627,-2.3057,-2.3135,-2.3135,-2.3135,-2.3135,-2.3135,-2.3135,-2.3135,-2.3135,-2.3135,-2.3135,-2.3135,-2.3135,-2.3135,-2.3135,-2.3135,-2.3135,-2.3135,-2.3135,-2.3135,-2.3135,-2.3135,-2.3135,-2.3135,-2.3135,-2.3135,-2.3135,-2.3135,-2.3135,-2.3135,-2.3135,-2.3135,-2.3135,-2.3135,-2.3135,-2.3135,-2.3135,-2.3135,-2.3135,-2.3135,-2.3135,-2.3135,-2.3135,-2.3135,-2.3135,-2.3135,-2.3135,-2.3135,-2.3135,-2.3135,-2.3135,-2.3135,-2.3135,-2.3135,-2.3135,-2.3135,-2.3135,-2.3135,-2.3135,-2.3135,-2.3135,-2.3135,-2.3135,-2.2988,-2.2627,-2.293,-2.2832,-2.21,-2.2295,-2.21,-2.1357,-2.1211,-2.0967,-2.0576,-2.0566,-2.0566,-2.0566,-2.0566,-2.0566,-2.0557,-2.0117,-2.0117,-2.042,-1.9248,-1.9346,-2.0322,-1.9199,-1.9365,-2.0322,-1.9521,-1.9199,-1.9189,-1.9131,-1.9111,-1.9121,-1.918,-1.9252,-1.9305,-1.9305,-1.9807,-2.0446,-2.0062,-2.045,-2.1083,-2.1083,-2.1406,-2.1913,-2.2339,-2.2709,-2.3047,-2.3125,-2.3096,-2.3057,-2.3057,-2.2773,-2.2627,-2.3057,-2.3135,-2.3135,-2.3135,-2.3135,-2.3135,-2.3135,-2.3135,-2.3135,-2.3135,-2.3135,-2.3135,-2.3135,-2.3135,-2.3135,-2.3135,-2.3135,-2.3135,-2.3135,-2.3135,-2.3135,-2.3135,-2.3135,-2.3135,-2.3135,-2.3135,-2.3135,-2.3135,-2.3135,-2.3135,-2.3135,-2.3135,-2.3135,-2.3135,-2.3135,-2.3135,-2.3135,-2.3135,-2.3135,-2.3135,-2.3135,-2.3135,-2.3135,-2.3135,-2.3135,-2.3135,-2.3135,-2.3135,-2.3135,-2.5561,-2.5317,-2.4808,-2.4135,-2.4049,-2.379,-2.3222,-2.3135,-2.3135,-2.3135,-2.3135,-2.3135,-2.3135,-2.3135,-2.3066,-2.2881,-2.3027,-2.2978,-2.2607,-2.2324,-2.21,-2.1953,-2.125,-2.0889,-2.0937,-2.0693,-2.0566,-2.0566,-2.0566,-2.0566,-2.0634,-2.0371,-2.0381,-2.0537,-1.9971,-2.0029,-2.0527,-1.9961,-2.0049,-2.0508,-1.9893,-1.9639,-1.9609,-1.9375,-1.9287,-1.9316,-1.9576,-1.9821,-2.0,-2.0,-2.0254,-2.0527,-2.0391,-2.07,-2.1181,-2.1181,-2.1679,-2.2306,-2.2471,-2.2755,-2.3135,-2.3135,-2.3135,-2.3135,-2.3135,-2.2998,-2.292,-2.3096,-2.3135,-2.3135,-2.3135,-2.3135,-2.3135,-2.3135,-2.3135,-2.3135,-2.3135,-2.3135,-2.3135,-2.3135,-2.3135,-2.3135,-2.3135,-2.3135,-2.3135,-2.3135,-2.3135,-2.3135,-2.3135,-2.3135,-2.3135,-2.3135,-2.3135,-2.3135,-2.3135,-2.3135,-2.3135,-2.3135,-2.3135,-2.3135,-2.3135,-2.3135,-2.3135,-2.3135,-2.3135,-2.3135,-2.3135,-2.3135,-2.3135,-2.3135,-2.3135,-2.3135,-2.3135,-2.3135,-2.3135,-2.3135]},{"header":{"parameterUnit":"m.s-1","parameterCategory":1,"la1":30.6,"la2":28.766,"lo1":-90.7593,"lo2":-88.6598,"dy":0.0162,"dx":0.0183,"nx":116,"ny":114,"refTime":"2023-08-13T06:00:00:Z","depth":0,"parameterNumber":3,"parameterNumberName":"V-component_of_WINDS"},"data":[0.0,0.0,0.0,0.0,0.0,0.0,0.0,0.0,0.0,0.0,0.0,0.0,0.0,0.0,0.0,0.0,0.0,0.0,0.0,0.0,0.0,0.0,0.0,0.0,0.0,0.0,0.0,0.0,0.0,0.0,0.0,0.0,0.0,0.0,0.0,0.0,0.0,0.0,0.0,0.0,0.0,0.0,0.0,0.0,0.0,0.0,0.0,0.0,0.0,0.0,0.0,0.0,0.0,0.0,0.0,0.0,0.0,0.0,0.0,0.0,0.0,0.0,0.0,0.0,0.0,0.0,0.0,0.0,0.0,0.0,0.0,0.0,0.0,0.0,0.0,0.0,0.0,0.0,0.0,0.0,0.0,0.0,0.0,0.0,0.0,0.0,0.0,0.0,0.0,0.0,0.0,0.0,0.0,0.0,0.0,0.0,0.0,0.0,0.0,0.0,0.0,0.0,0.0,0.0,0.0,0.0,0.0,0.0,0.0,0.0,0.0,0.0,0.0,0.0,0.0,0.0,0.0,0.0,0.0,0.0,0.0,0.0,0.0,0.0,0.0,0.0,0.0,0.0,0.0,0.0,0.0,0.0,0.0,0.0,0.0,0.0,0.0,0.0,0.0,0.0,0.0,0.0,0.0,0.0,0.0,0.0,0.0,0.0,0.0,0.0,0.0,0.0,0.0,0.0,0.0,0.0,0.0,0.0,0.0,0.0,0.0,0.0,0.0,0.0,0.0,0.0,0.0,0.0,0.0,0.0,0.0,0.0,0.0,0.0,0.0,0.0,0.0,0.0,0.0,0.0,0.0,0.0,0.0,0.0,0.0,0.0,0.0,0.0,0.0,0.0,0.0,0.0,0.0,0.0,0.0,0.0,0.0,0.0,0.0,0.0,0.0,0.0,0.0,0.0,0.0,0.0,0.0,0.0,0.0,0.0,0.0,0.0,0.0,0.0,0.0,0.0,0.0,0.0,0.0,0.0,0.0,0.0,0.0,0.0,0.0,0.0,0.0,0.0,0.0,0.0,0.0,0.0,0.0,0.0,0.0,0.0,0.0,0.0,0.0,0.0,0.0,0.0,0.0,0.0,0.0,0.0,0.0,0.0,0.0,0.0,0.0,0.0,0.0,0.0,0.0,0.0,0.0,0.0,0.0,0.0,0.0,0.0,0.0,0.0,0.0,0.0,0.0,0.0,0.0,0.0,0.0,0.0,0.0,0.0,0.0,0.0,0.0,0.0,0.0,0.0,0.0,0.0,0.0,0.0,0.0,0.0,0.0,0.0,0.0,0.0,0.0,0.0,0.0,0.0,0.0,0.0,0.0,0.0,0.0,0.0,0.0,0.0,0.0,0.0,0.0,0.0,0.0,0.0,0.0,0.0,0.0,0.0,0.0,0.0,0.0,0.0,0.0,0.0,0.0,0.0,0.0,0.0,0.0,0.0,0.0,0.0,0.0,0.0,0.0,0.0,0.0,0.0,0.0,0.0,0.0,0.0,0.0,0.0,0.0,0.0,0.0,0.0,0.0,0.0,0.0,0.0,0.0,0.0,0.0,0.0,0.0,0.0,0.0,0.0,0.0,0.0,0.0,0.0,0.0,0.0,0.0,0.0,0.0,0.0,0.0,0.0,0.0,0.0,0.0,0.0,0.0,0.0,0.0,0.0,0.0,0.0,0.0,0.0,0.0,0.0,0.0,0.0,0.0,0.0,0.0,0.0,0.0,0.0,0.0,0.0,0.0,0.0,0.0,0.0,0.0,0.0,0.0,0.0,0.0,0.0,0.0,0.0,0.0,0.0,0.0,0.0,0.0,0.0,0.0,0.0,0.0,0.0,0.0,0.0,0.0,0.0,0.0,0.0,0.0,0.0,0.0,0.0,0.0,0.0,0.0,0.0,0.0,0.0,0.0,0.0,0.0,0.0,0.0,0.0,0.0,0.0,0.0,0.0,0.0,0.0,0.0,0.0,0.0,0.0,0.0,0.0,0.0,0.0,0.0,0.0,0.0,0.0,0.0,0.0,0.0,0.0,0.0,0.0,0.0,0.0,0.0,0.0,0.0,0.0,0.0,0.0,0.0,0.0,0.0,0.0,0.0,0.0,0.0,0.0,0.0,0.0,0.0,0.0,0.0,0.0,0.0,0.0,0.0,0.0,0.0,0.0,0.0,0.0,0.0,0.0,0.0,0.0,0.0,0.0,0.0,0.0,0.0,0.0,0.0,0.0,0.0,0.0,0.0,0.0,0.0,0.0,0.0,0.0,0.0,0.0,0.0,0.0,0.0,0.0,0.0,0.0,0.0,0.0,0.0,0.0,0.0,0.0,0.0,0.0,0.0,0.0,0.0,0.0,0.0,0.0,0.0,0.0,0.0,0.0,0.0,0.0,0.0,0.0,0.0,0.0,0.0,0.0,0.0,0.0,0.0,0.0,0.0,0.0,0.0,0.0,0.0,0.0,0.0,0.0,0.0,0.0,0.0,0.0,0.0,0.0,0.0,0.0,0.0,0.0,0.0,0.0,0.0,0.0,0.0,0.0,0.0,0.0,0.0,0.0,0.0,0.0,0.0,0.0,0.0,0.0,0.0,0.0,0.0,0.0,0.0,0.0,0.0,0.0,0.0,0.0,0.0,0.0,0.0,0.0,0.0,0.0,0.0,0.0,0.0,0.0,0.0,0.0,0.0,0.0,0.0,0.0,0.0,0.0,0.0,0.0,0.0,0.0,0.0,0.0,0.0,0.0,0.0,0.0,0.0,0.0,0.0,0.0,0.0,0.0,0.0,0.0,0.0,0.0,0.0,0.0,0.0,0.0,0.0,0.0,0.0,0.0,0.0,0.0,0.0,0.0,0.0,0.0,0.0,0.0,0.0,0.0,0.0,0.0,0.0,0.0,0.0,0.0,0.0,0.0,0.0,0.0,0.0,0.0,0.0,0.0,0.0,0.0,0.0,0.0,0.0,0.0,0.0,0.0,0.0,0.0,0.0,0.0,0.0,0.0,0.0,0.0,0.0,0.0,0.0,0.0,0.0,0.0,0.0,0.0,0.0,0.0,0.0,0.0,0.0,0.0,0.0,0.0,0.0,0.0,0.0,0.0,0.0,0.0,0.0,0.0,0.0,0.0,0.0,0.0,0.0,0.0,0.0,0.0,0.0,0.0,0.0,0.0,0.0,0.0,0.0,0.0,0.0,0.0,0.0,0.0,0.0,0.0,0.0,0.0,0.0,0.0,0.0,0.0,0.0,0.0,0.0,0.0,0.0,0.0,0.0,0.0,0.0,0.0,0.0,0.0,0.0,0.0,0.0,0.0,0.0,0.0,0.0,0.0,0.0,0.0,0.0,0.0,0.0,0.0,0.0,0.0,0.0,0.0,0.0,0.0,0.0,0.0,0.0,0.0,0.0,0.0,0.0,0.0,0.0,0.0,0.0,0.0,0.0,0.0,0.0,0.0,0.0,0.0,0.0,0.0,0.0,0.0,0.0,0.0,0.0,0.0,0.0,0.0,0.0,0.0,0.0,0.0,0.0,0.0,0.0,0.0,0.0,0.0,0.0,0.0,0.0,0.0,0.0,0.0,0.0,0.0,0.0,0.0,0.0,0.0,0.0,0.0,0.0,0.0,0.0,0.0,0.0,0.0,0.0,0.0,0.0,0.0,0.0,0.0,0.0,0.0,0.0,0.0,0.0,0.0,0.0,0.0,0.0,0.0,0.0,0.0,0.0,0.0,0.0,0.0,0.0,0.0,0.0,0.0,0.0,0.0,0.0,0.0,0.0,0.0,0.0,0.0,0.0,0.0,0.0,0.0,0.0,0.0,0.0,0.0,0.0,0.0,0.0,0.0,0.0,0.0,0.0,0.0,0.0,0.0,0.0,0.0,0.0,0.0,0.0,0.0,0.0,0.0,0.0,0.0,0.0,0.0,0.0,0.0,0.0,0.0,0.0,0.0,0.0,0.0,0.0,0.0,0.0,0.0,0.0,0.0,0.0,0.0,0.0,0.0,0.0,0.0,0.0,0.0,0.0,0.0,0.0,0.0,0.0,0.0,0.0,0.0,0.0,0.0,0.0,0.0,0.0,0.0,0.0,0.0,0.0,0.0,0.0,0.0,0.0,0.0,0.0,0.0,0.0,0.0,0.0,0.0,0.0,0.0,0.0,0.0,0.0,0.0,0.0,0.0,0.0,0.0,0.0,0.0,0.0,0.0,0.0,0.0,0.0,0.0,0.0,0.0,0.0,0.0,0.0,0.0,0.0,0.0,0.0,0.0,0.0,0.0,0.0,0.0,0.0,0.0,0.0,0.0,0.0,0.0,0.0,0.0,0.0,0.0,0.0,0.0,0.0,0.0,0.0,0.0,0.0,0.0,0.0,0.0,0.0,0.0,0.0,0.0,0.0,0.0,0.0,0.0,0.0,0.0,0.0,0.0,0.0,0.0,0.0,0.0,0.0,0.0,0.0,0.0,0.0,0.0,0.0,0.0,0.0,0.0,0.0,0.0,0.0,0.0,0.0,0.0,0.0,0.0,0.0,0.0,0.0,0.0,0.0,0.0,0.0,0.0,0.0,0.0,0.0,0.0,0.0,0.0,0.0,0.0,0.0,0.0,0.0,0.0,0.0,0.0,0.0,0.0,0.0,0.0,0.0,0.0,0.0,0.0,0.0,0.0,0.0,0.0,0.0,0.0,0.0,0.0,0.0,0.0,0.0,0.0,0.0,0.0,0.0,0.0,0.0,0.0,0.0,0.0,0.0,0.0,0.0,0.0,0.0,0.0,0.0,0.0,0.0,0.0,0.0,0.0,0.0,0.0,0.0,0.0,0.0,0.0,0.0,0.0,0.0,0.0,0.0,0.0,0.0,0.0,0.0,0.0,0.0,0.0,0.0,0.0,0.0,0.0,0.0,0.0,0.0,0.0,0.0,0.0,0.0,0.0,0.0,0.0,0.0,0.0,0.0,0.0,0.0,0.0,0.0,0.0,0.0,0.0,0.0,0.0,0.0,0.0,0.0,0.0,0.0,0.0,0.0,0.0,0.0,0.0,0.0,0.0,0.0,0.0,0.0,0.0,0.0,0.0,0.0,0.0,0.0,0.0,0.0,0.0,0.0,0.0,0.0,0.0,0.0,0.0,0.0,0.0,0.0,0.0,0.0,0.0,0.0,0.0,0.0,0.0,0.0,0.0,0.0,0.0,0.0,0.0,0.0,0.0,0.0,0.0,0.0,0.0,0.0,0.0,0.0,0.0,0.0,0.0,0.0,0.0,0.0,0.0,0.0,0.0,0.0,0.0,0.0,0.0,0.0,0.0,0.0,0.0,0.0,0.0,0.0,0.0,0.0,0.0,0.0,0.0,0.0,0.0,0.0,0.0,0.0,0.0,0.0,0.0,0.0,0.0,0.0,0.0,0.0,0.0,0.0,0.0,0.0,0.0,0.0,0.0,0.0,0.0,0.0,0.0,0.0,0.0,0.0,0.0,0.0,0.0,0.0,0.0,0.0,0.0,0.0,0.0,0.0,0.0,0.0,0.0,0.0,0.0,0.0,0.0,0.0,0.0,0.0,0.0,0.0,0.0,0.0,0.0,0.0,0.0,0.0,0.0,0.0,0.0,0.0,0.0,0.0,0.0,0.0,0.0,0.0,0.0,0.0,0.0,0.0,0.0,0.0,0.0,0.0,0.0,0.0,0.0,0.0,0.0,0.0,0.0,0.0,0.0,0.0,0.0,0.0,0.0,0.0,0.0,0.0,0.0,0.0,0.0,0.0,0.0,0.0,0.0,0.0,0.0,0.0,0.0,0.0,0.0,0.0,0.0,0.0,0.0,0.0,0.0,0.0,0.0,0.0,0.0,0.0,0.0,0.0,0.0,0.0,0.0,0.0,0.0,0.0,0.0,0.0,0.0,0.0,0.0,0.0,0.0,0.0,0.0,0.0,0.0,0.0,0.0,0.0,0.0,0.0,0.0,0.0,0.0,0.0,0.0,0.0,0.0,0.0,0.0,0.0,0.0,0.0,0.0,0.0,0.0,0.0,0.0,0.0,0.0,0.0,0.0,0.0,0.0,0.0,0.0,0.0,0.0,0.0,0.0,0.0,0.0,0.0,0.0,0.0,0.0,0.0,0.0,0.0,0.0,-2.7192,-2.5298,0.0,0.0,0.0,0.0,0.0,0.0,0.0,0.0,0.0,0.0,0.0,0.0,0.0,0.0,0.0,0.0,0.0,0.0,0.0,0.0,0.0,0.0,0.0,0.0,0.0,0.0,0.0,0.0,0.0,0.0,0.0,0.0,0.0,0.0,0.0,0.0,0.0,0.0,0.0,0.0,0.0,0.0,0.0,0.0,0.0,0.0,0.0,0.0,0.0,0.0,0.0,0.0,0.0,0.0,0.0,0.0,0.0,0.0,0.0,0.0,0.0,0.0,0.0,0.0,0.0,0.0,0.0,0.0,0.0,0.0,0.0,0.0,0.0,0.0,0.0,0.0,0.0,0.0,0.0,0.0,0.0,0.0,0.0,0.0,0.0,0.0,0.0,0.0,0.0,0.0,0.0,0.0,0.0,0.0,0.0,0.0,0.0,0.0,0.0,0.0,0.0,0.0,0.0,0.0,0.0,0.0,0.0,0.0,0.0,0.0,0.0,0.0,0.0,0.0,-3.1585,-2.9407,0.0,0.0,0.0,0.0,0.0,0.0,0.0,0.0,0.0,0.0,0.0,0.0,0.0,0.0,0.0,0.0,0.0,0.0,0.0,0.0,0.0,0.0,0.0,0.0,0.0,0.0,0.0,0.0,0.0,0.0,0.0,0.0,0.0,0.0,0.0,0.0,0.0,0.0,0.0,0.0,0.0,0.0,0.0,0.0,0.0,0.0,0.0,0.0,0.0,0.0,0.0,0.0,0.0,0.0,0.0,0.0,0.0,0.0,0.0,0.0,0.0,0.0,0.0,0.0,0.0,0.0,0.0,0.0,0.0,0.0,0.0,0.0,0.0,0.0,0.0,0.0,0.0,0.0,0.0,0.0,0.0,0.0,0.0,0.0,0.0,0.0,0.0,0.0,0.0,0.0,0.0,0.0,0.0,0.0,0.0,0.0,0.0,0.0,0.0,0.0,0.0,0.0,0.0,0.0,0.0,0.0,0.0,0.0,-4.0129,-4.0349,-4.1574,-4.1441,-4.1357,-4.1078,-3.7283,-3.4943,-3.368,-3.2174,0.0,0.0,0.0,0.0,0.0,0.0,0.0,0.0,0.0,0.0,0.0,0.0,0.0,0.0,0.0,0.0,0.0,0.0,0.0,0.0,0.0,0.0,0.0,0.0,0.0,0.0,0.0,0.0,0.0,0.0,0.0,0.0,0.0,0.0,0.0,0.0,0.0,0.0,-3.2275,-3.391,-3.5315,-3.6353,0.0,0.0,0.0,0.0,0.0,0.0,0.0,0.0,0.0,0.0,0.0,0.0,0.0,0.0,0.0,0.0,0.0,0.0,0.0,0.0,0.0,0.0,0.0,0.0,0.0,0.0,0.0,0.0,0.0,0.0,0.0,0.0,0.0,0.0,0.0,0.0,0.0,0.0,0.0,0.0,0.0,0.0,0.0,0.0,-2.6979,-2.5969,0.0,0.0,0.0,0.0,0.0,0.0,0.0,0.0,0.0,0.0,0.0,0.0,0.0,-4.9202,-4.3569,-4.7616,-4.7819,-4.4138,-4.6946,-4.8275,-4.8286,-4.7305,-4.7487,-4.8402,-4.6057,0.0,-3.7611,-3.6008,0.0,0.0,0.0,0.0,0.0,0.0,0.0,0.0,0.0,0.0,0.0,0.0,0.0,0.0,0.0,0.0,0.0,0.0,0.0,0.0,0.0,0.0,0.0,0.0,0.0,0.0,0.0,0.0,0.0,0.0,0.0,0.0,0.0,0.0,0.0,0.0,-3.0487,-3.341,-3.6526,-3.7738,-3.9219,-4.0816,-3.9773,-3.794,-3.5476,-3.3519,0.0,0.0,0.0,0.0,0.0,0.0,0.0,0.0,0.0,0.0,0.0,0.0,0.0,0.0,0.0,0.0,0.0,0.0,0.0,0.0,0.0,0.0,0.0,0.0,0.0,0.0,0.0,0.0,0.0,0.0,0.0,0.0,0.0,0.0,0.0,0.0,0.0,0.0,0.0,-2.7216,-2.943,-3.0194,-2.9696,-2.8686,0.0,0.0,0.0,0.0,0.0,0.0,0.0,0.0,0.0,-5.3515,-5.2803,-5.1226,-4.8985,-5.0417,-5.0597,-4.9517,-5.1493,-5.3065,-5.4283,-5.3369,-5.3517,-5.4409,-5.2563,-4.9938,-4.659,-4.2346,-3.9933,-3.859,0.0,0.0,0.0,0.0,-3.4465,-3.4869,0.0,0.0,0.0,0.0,0.0,0.0,0.0,0.0,0.0,0.0,0.0,0.0,0.0,0.0,0.0,-2.8852,0.0,0.0,0.0,0.0,0.0,0.0,0.0,0.0,0.0,0.0,0.0,0.0,-3.391,-3.6815,-4.0604,-4.1643,-4.3109,-4.4901,-4.5726,-4.3689,-3.9488,-3.7593,-3.5309,0.0,0.0,0.0,0.0,0.0,0.0,0.0,0.0,0.0,0.0,0.0,0.0,0.0,0.0,0.0,0.0,0.0,0.0,0.0,0.0,0.0,0.0,0.0,0.0,0.0,0.0,0.0,0.0,0.0,0.0,0.0,0.0,0.0,0.0,0.0,0.0,0.0,0.0,-2.8022,-3.1011,-3.4069,-3.3746,-3.2137,0.0,0.0,0.0,0.0,0.0,0.0,-3.6249,-4.7872,-5.5287,-5.7095,-5.4336,-5.3159,-5.3801,-5.3019,-5.3353,-5.4748,-5.5556,-5.6877,-5.8574,-5.7873,-5.7721,-5.8036,-5.6601,-5.5264,-5.3602,-4.7977,-4.4627,-4.2873,-4.1094,-3.9887,-3.9228,-3.946,-3.9661,-3.9981,0.0,0.0,0.0,0.0,0.0,0.0,0.0,0.0,0.0,0.0,0.0,0.0,0.0,0.0,-3.066,-3.4699,-3.4487,-3.4391,0.0,0.0,0.0,0.0,0.0,0.0,0.0,0.0,0.0,-3.2833,-3.7719,-4.147,-4.4085,-4.5778,-4.7682,-4.9687,-5.0569,-4.9663,-4.7221,-4.2316,-4.015,-3.9426,0.0,0.0,0.0,0.0,0.0,0.0,0.0,0.0,0.0,0.0,0.0,0.0,0.0,0.0,0.0,0.0,0.0,0.0,0.0,0.0,0.0,0.0,0.0,0.0,0.0,0.0,0.0,0.0,0.0,0.0,0.0,0.0,0.0,0.0,0.0,0.0,0.0,0.0,0.0,-3.5608,-3.747,0.0,0.0,0.0,0.0,-3.2875,-3.6377,-4.3578,-5.5911,-5.7322,-5.6911,-5.5032,-5.5743,-5.5926,-5.5489,-5.6895,-5.807,-5.8933,-5.9722,-6.0162,-6.0224,-5.952,-5.8805,-5.8036,-5.7241,-5.6351,-5.531,-5.1369,-4.9667,-4.9062,-4.5302,-4.459,-4.5457,-4.4248,-4.4251,-4.4886,0.0,0.0,0.0,0.0,0.0,0.0,0.0,0.0,0.0,0.0,0.0,0.0,0.0,-3.2352,-3.6699,-3.9335,-4.1277,-4.1566,-3.9681,0.0,0.0,0.0,0.0,0.0,0.0,0.0,-3.4141,-3.9469,-4.1797,-4.4528,-4.7605,-4.8221,-4.9637,-5.1618,-5.1948,-5.2384,-5.2636,-4.8131,-4.4645,-4.1829,-3.7813,-3.3701,0.0,0.0,0.0,0.0,0.0,0.0,0.0,0.0,0.0,0.0,0.0,0.0,0.0,0.0,0.0,0.0,0.0,0.0,0.0,0.0,0.0,0.0,0.0,0.0,0.0,0.0,0.0,0.0,0.0,0.0,0.0,0.0,0.0,0.0,0.0,0.0,0.0,-3.4306,-3.8893,0.0,-3.8574,-3.7283,-3.8419,-4.2794,-4.8083,-5.3144,-5.7749,-5.7999,-5.7979,-5.7862,-5.8105,-5.8364,-5.8694,-5.9263,-5.996,-6.075,-6.0511,-6.1245,-6.275,-6.1423,-6.1186,-6.1817,-6.0521,-5.9745,-5.9264,-5.637,-5.3682,-5.1179,-4.8882,-4.796,-4.7912,-4.7425,-4.7741,-4.8362,0.0,0.0,0.0,0.0,0.0,0.0,0.0,0.0,0.0,0.0,0.0,-2.7467,-2.9775,-3.6084,-4.1162,-4.3701,-4.5759,-4.5701,-4.2835,0.0,0.0,0.0,0.0,0.0,0.0,-3.391,-3.77,-4.3104,-4.492,-4.726,-5.0021,-5.0447,-5.1618,-5.335,-5.3615,-5.443,-5.5435,-5.2655,-4.922,-4.5331,-4.1996,-3.8098,-3.3941,0.0,0.0,0.0,0.0,0.0,0.0,0.0,0.0,0.0,0.0,0.0,0.0,0.0,0.0,0.0,0.0,0.0,0.0,0.0,0.0,0.0,0.0,0.0,0.0,0.0,0.0,0.0,0.0,0.0,0.0,0.0,0.0,0.0,0.0,0.0,-3.2818,-3.5887,-4.3433,-4.8381,-4.8384,-4.8384,-4.9748,-5.2956,-5.7199,-5.9469,-5.9103,-5.9435,-5.9835,-6.0267,-6.0375,-6.0823,-6.1649,-6.1649,-6.2053,-6.2842,-6.231,-6.2915,-6.4475,-6.3346,-6.3292,-6.3932,-6.2845,-6.2106,-6.1459,-5.9604,-5.7049,-5.4068,-5.2295,-5.1319,-5.0862,-5.0608,-5.0828,-5.12,0.0,0.0,0.0,0.0,0.0,0.0,0.0,0.0,0.0,0.0,-2.4562,-2.8679,-3.368,-3.8854,-4.3643,-4.7817,-4.7375,-4.6144,-4.4451,-3.795,0.0,0.0,0.0,0.0,-3.1968,-3.6911,-4.0719,-4.328,-4.7016,-4.9676,-5.1281,-5.2556,-5.3834,-5.5097,-5.5879,-5.6029,-5.5666,-5.5666,-5.3769,-5.0373,-4.5368,-4.231,-4.0034,0.0,0.0,0.0,0.0,0.0,0.0,0.0,0.0,0.0,0.0,0.0,0.0,0.0,0.0,0.0,0.0,0.0,0.0,0.0,0.0,0.0,0.0,0.0,0.0,0.0,0.0,0.0,0.0,0.0,0.0,0.0,0.0,0.0,-3.3927,-3.3916,-3.5733,-4.0589,-5.1117,-5.8052,-5.8138,-5.815,-5.943,-6.2587,-6.2779,-6.2336,-6.1319,-6.2236,-6.2481,-6.1686,-6.2456,-6.3282,-6.4127,-6.4127,-6.453,-6.5356,-6.5319,-6.5338,-6.5375,-6.5356,-6.4894,-6.4098,-6.4043,-6.3167,-6.1654,-6.0856,-5.9583,-5.7881,-5.5536,-5.4652,-5.4499,-5.3771,-5.3501,-5.3399,0.0,0.0,0.0,0.0,0.0,0.0,0.0,0.0,0.0,0.0,-2.664,-3.1525,-3.4795,-4.1335,-4.6721,-4.9721,-4.7509,-4.574,-4.5259,0.0,0.0,0.0,0.0,0.0,-3.9854,-4.1912,-4.4344,-4.7226,-4.8872,-5.0696,-5.2651,-5.3616,-5.5031,-5.6734,-5.6958,-5.7177,-5.7336,-5.7336,-5.6489,-5.4717,-5.0404,-4.6728,-4.3406,0.0,0.0,0.0,0.0,0.0,0.0,0.0,0.0,0.0,0.0,0.0,0.0,0.0,0.0,0.0,0.0,0.0,0.0,0.0,0.0,0.0,0.0,0.0,0.0,0.0,0.0,0.0,0.0,0.0,0.0,0.0,0.0,-4.0427,-3.6699,-3.6863,-3.8717,-4.2399,-5.1799,-5.8943,-6.1246,-6.1495,-6.1837,-6.2743,-6.2815,-6.2682,-6.2365,-6.3253,-6.3663,-6.3411,-6.42,-6.4732,-6.4971,-6.4971,-6.5375,-6.6164,-6.5595,-6.5907,-6.7008,-6.6439,-6.6351,-6.661,-6.5458,-6.4712,-6.4148,-6.2125,-6.1046,-6.0267,-5.6784,-5.5106,-5.4499,-5.3771,-5.3501,-5.3467,0.0,0.0,0.0,0.0,0.0,0.0,0.0,0.0,0.0,0.0,-2.7351,-3.2391,-3.5655,-4.22,-4.6951,-4.8432,-4.6413,-4.4008,-4.1527,0.0,0.0,0.0,0.0,-3.9061,-4.3254,-4.5208,-4.7128,-4.9041,-5.0393,-5.2033,-5.3984,-5.4595,-5.6083,-5.8129,-5.8129,-5.8452,-5.9006,-5.9006,-5.8749,-5.8088,-5.5393,-5.215,-4.8561,-4.5106,-4.2365,-4.0309,-3.9522,-3.8893,-3.8225,-3.6768,0.0,0.0,0.0,0.0,0.0,0.0,0.0,0.0,0.0,0.0,0.0,0.0,0.0,0.0,0.0,0.0,0.0,0.0,0.0,0.0,0.0,0.0,0.0,0.0,-4.3412,-4.5656,-4.4059,-4.3804,-4.4696,-4.7259,-5.4905,-6.0744,-6.2641,-6.4027,-6.4592,-6.3892,-6.4076,-6.4081,-6.3878,-6.4673,-6.5099,-6.5099,-6.5888,-6.6311,-6.6311,-6.6311,-6.6531,-6.699,-6.6531,-6.6788,-6.7669,-6.721,-6.7247,-6.7614,-6.6366,-6.5613,-6.5139,-6.3003,-6.1526,-6.0393,0.0,0.0,0.0,0.0,-5.3501,-5.3501,0.0,0.0,0.0,0.0,0.0,0.0,0.0,0.0,0.0,0.0,0.0,-3.1795,-3.5823,-4.1428,-4.5009,-4.5278,-4.4162,-4.1143,0.0,0.0,0.0,-3.6123,-3.8731,-4.1454,-4.4433,-4.7552,-4.9318,-4.96,-5.1644,-5.3442,-5.4946,-5.5478,-5.6969,-5.9208,-5.9208,-5.9667,-6.0401,-6.0493,-6.0529,-6.0456,-5.9863,-5.77,-5.4283,-4.9655,-4.7885,-4.7371,-4.425,-4.198,-4.0383,-3.9837,0.0,0.0,0.0,0.0,0.0,0.0,0.0,0.0,0.0,0.0,0.0,0.0,0.0,0.0,0.0,0.0,0.0,0.0,0.0,0.0,0.0,0.0,0.0,0.0,-4.7773,-5.0566,-5.3826,-5.3041,-5.2832,-5.4604,-5.9542,-6.292,-6.3301,-6.5999,-6.7082,-6.5485,-6.5867,-6.5941,-6.5466,0.0,0.0,0.0,0.0,-6.7779,-6.7687,-6.7779,-6.7779,-6.7687,-6.7687,-6.7687,-6.7687,-6.7687,-6.7632,-6.7504,-6.6714,-6.5907,-6.5047,-6.3439,-6.1487,-5.9331,-5.8154,-5.7254,-5.6267,-5.4277,-5.3501,-5.3501,0.0,0.0,0.0,0.0,0.0,0.0,0.0,0.0,0.0,-2.2579,-2.6611,-3.046,-3.3308,-3.7752,-4.1354,-4.3393,-4.0258,-3.7103,0.0,0.0,-3.6476,-4.0861,-4.3514,-4.6273,-4.9287,-5.0608,-5.1162,-5.0922,-5.2696,-5.3882,-5.4528,-5.593,-5.7519,-5.9208,-5.9208,-5.963,-6.0459,-6.1077,-6.1353,-6.1426,-6.192,-6.0167,-5.6987,-5.4099,-5.2579,-5.1704,-4.9107,-4.8738,-4.909,-4.64,-4.4839,-4.3548,-4.0432,0.0,0.0,0.0,0.0,0.0,0.0,0.0,0.0,0.0,0.0,0.0,0.0,0.0,0.0,0.0,0.0,0.0,0.0,0.0,0.0,-5.0986,-5.4107,-5.7236,-6.0496,-6.0686,-6.1573,-6.4535,-6.3672,-6.3859,-6.6519,-6.7325,-6.7181,-6.6014,-6.6253,-6.6366,-6.6274,-6.7026,-6.7467,-6.7467,-6.8256,-6.8348,-6.7687,-6.8348,-6.8348,-6.7687,-6.7687,0.0,-6.7687,-6.7687,-6.7338,-6.6678,-6.5888,-6.5081,-6.4255,-6.3222,-6.1752,-5.9859,-5.6551,-5.4786,-5.4125,-5.3669,-5.3501,-5.3501,0.0,0.0,0.0,0.0,0.0,0.0,0.0,0.0,0.0,0.0,-2.51,-2.8029,-3.0153,-3.3453,-3.5823,-3.6671,-3.3895,0.0,0.0,-3.5529,-3.9005,-4.3837,-4.689,-4.9239,-5.0956,-5.178,-5.2004,-5.1636,-5.3299,-5.4414,-5.5023,-5.6235,-5.7886,-5.9813,-5.9813,-6.0724,-6.2261,-6.2665,-6.3088,-6.3424,-6.3432,-6.2493,-6.0798,-5.8348,-5.6664,-5.5341,-5.3339,-5.2596,-5.2297,-5.0232,-4.9014,-4.7921,-4.548,-4.247,-3.9129,0.0,0.0,0.0,0.0,0.0,0.0,0.0,0.0,0.0,0.0,0.0,0.0,0.0,0.0,-4.3406,0.0,0.0,-5.4044,-5.6777,-5.8981,-6.0941,-6.2545,-6.5585,-6.7667,-6.7712,-6.6234,-6.5907,-6.7568,-6.7715,-6.7479,-6.6932,-6.699,-6.71,-6.71,-6.7467,-6.7687,-6.7687,-6.8091,-6.8293,-6.8293,-6.8293,-6.8293,-6.8293,-6.7889,-6.7687,-6.7687,-6.7265,-6.688,-6.6439,-6.5228,-6.4457,-6.3961,-6.1865,-5.9888,-5.7807,-5.5518,-5.4591,-5.4499,-5.3783,-5.3501,-5.3501,0.0,0.0,0.0,0.0,0.0,0.0,0.0,0.0,0.0,0.0,-2.343,-2.5412,-2.6986,-2.912,-3.0177,0.0,0.0,0.0,0.0,-3.6694,-4.1147,-4.612,-4.9352,-5.1256,-5.164,-5.2289,-5.2488,-5.2234,-5.383,-5.495,-5.5611,-5.6748,-5.8474,-6.0639,-6.0805,-6.2157,-6.432,-6.449,-6.4861,-6.5267,-6.4775,-6.4369,-6.3842,-6.1537,-5.9725,-5.8208,-5.6279,-5.4338,-5.267,-5.2348,-5.1481,-5.0417,-4.9536,-4.8159,-4.5792,-4.0451,-3.8909,0.0,0.0,0.0,0.0,0.0,0.0,0.0,0.0,0.0,-4.0414,-4.2506,-4.603,-4.9719,-5.3023,-5.6932,-6.0224,-6.1894,-6.3325,-6.4093,-6.3784,-6.8274,-7.0605,-6.7978,-6.7684,-6.7684,-6.7684,-6.7684,-6.772,-6.7687,-6.7687,-6.7687,-6.7687,-6.7687,-6.7687,-6.7687,-6.7834,-6.8164,-6.866,-6.8183,-6.8183,-6.866,-6.7999,-6.7614,-6.743,-6.6788,-6.6329,-6.5944,-6.4475,-6.369,-6.3207,-6.0463,-5.7947,-5.5817,-5.4946,-5.4982,-5.532,-5.3994,-5.3501,-5.3501,0.0,0.0,0.0,0.0,0.0,0.0,0.0,0.0,0.0,0.0,0.0,0.0,0.0,0.0,0.0,0.0,0.0,0.0,-3.4462,-3.8995,-4.3651,-4.8319,-5.0946,-5.2493,-5.2978,-5.3088,-5.3101,-5.3078,-5.4675,-5.55,-5.5647,-5.7905,-5.985,-6.1502,-6.2218,-6.3484,-6.522,-6.5919,-6.5888,-6.5384,-6.5986,-6.5393,-6.3897,-6.2137,-6.0896,-5.9716,-5.6676,-5.3656,-5.1267,-5.2618,-5.1573,-5.0068,-5.205,-5.1555,-4.9407,-4.5149,0.0,-3.8982,-3.5412,-3.4715,-3.5302,-3.6615,-3.7551,-4.023,0.0,0.0,-4.9242,-5.3041,-5.6473,-5.8933,-5.9391,-6.2805,-6.5543,-6.5565,-6.7652,-6.8752,-6.7359,-6.7762,-6.8108,-6.7759,-6.7669,-6.7669,-6.7669,-6.7669,-6.7669,-6.7687,-6.7687,-6.7687,-6.7687,-6.7687,-6.7687,-6.7687,-6.8385,-6.8476,-6.7834,-6.844,-6.844,-6.7816,-6.7724,-6.732,-6.6623,-6.6531,-6.5723,-6.431,-6.3374,-6.219,-6.0811,-5.9762,-5.8283,-5.6611,-5.5175,-5.4651,-5.4589,-5.3766,-5.3501,-5.3501,0.0,0.0,0.0,0.0,0.0,0.0,0.0,0.0,0.0,0.0,0.0,0.0,0.0,0.0,0.0,0.0,0.0,0.0,-3.2845,-3.8755,-4.3859,-4.7701,-5.0674,-5.229,-5.2491,-5.2968,-5.3445,-5.3904,-5.5042,-5.5831,-5.6326,-5.7813,-5.9116,-6.0254,-6.1043,-6.2297,-6.3877,-6.4751,-6.516,-6.5294,-6.5184,-6.4394,-6.308,-6.098,-5.9127,-5.7189,-5.3979,-5.1306,0.0,0.0,-4.8985,-4.8655,-5.1573,-5.0729,-4.8141,-4.548,-4.3075,0.0,-4.0194,-3.9606,0.0,0.0,-4.4782,-4.7664,-5.2325,-5.4308,-5.5904,-5.8547,-6.1686,-6.4237,-6.5173,-6.7412,-6.9265,0.0,-7.0753,-7.0588,-6.8037,-6.7687,-6.56,-5.995,-6.1755,-6.4226,-6.6127,-6.6604,-6.6659,-6.6329,-6.7155,-6.7485,-6.7026,-6.7448,-6.7687,-6.7687,-6.8017,-6.8256,-6.8403,-6.8274,-6.8274,-6.8385,-6.7907,-6.7265,-6.6476,-6.6017,-6.4659,-6.264,-6.275,-6.1408,-5.9131,-5.9257,-5.7848,-5.5479,-5.4817,-5.4328,-5.3946,-5.3618,-5.3501,-5.3501,0.0,0.0,0.0,0.0,0.0,0.0,0.0,0.0,0.0,0.0,0.0,0.0,0.0,0.0,0.0,0.0,0.0,0.0,0.0,-3.7275,-4.2503,-4.5975,-4.9462,-5.1426,-5.1665,-5.2454,-5.3261,-5.4069,-5.4858,-5.5574,-5.618,-5.7428,-5.8437,-5.9263,-6.0272,-6.1477,-6.2841,-6.346,-6.3975,-6.4255,-6.3653,-6.2771,-6.1537,-5.9127,-5.6306,-5.3259,-5.0713,-4.8129,0.0,0.0,-4.4507,-4.4709,-4.7957,-4.7682,-4.5847,-4.4452,-4.2745,-4.1479,-4.2286,0.0,0.0,-4.759,-5.1408,-5.4803,-5.6638,-5.9391,-6.1869,-6.3044,-6.5356,-6.7522,-6.8788,-6.9779,-7.09,-7.2281,-7.2521,-7.1379,-6.8126,-6.6896,-6.3079,-5.4237,-5.6296,-5.9675,-6.2993,-6.4644,-6.5411,-6.5007,-6.6256,-6.6769,-6.62,-6.6916,-6.7357,-6.7357,-6.7577,-6.7981,-6.8568,-6.7981,-6.7871,-6.8238,-6.765,-6.6824,-6.5797,-6.4769,-6.3301,-6.1612,-6.1979,-6.0504,-5.7801,-5.8376,-5.6945,-5.4328,-5.4328,-5.3994,-5.3501,-5.3501,-5.3501,-5.3501,0.0,0.0,0.0,0.0,0.0,0.0,0.0,0.0,0.0,0.0,0.0,0.0,0.0,0.0,0.0,0.0,0.0,0.0,0.0,-3.4525,-3.9423,-4.3424,-4.748,-5.0031,-5.082,-5.161,-5.2435,-5.3243,-5.4051,-5.4454,-5.4528,-5.6895,-5.8437,-5.9281,-6.086,-6.204,-6.2804,-6.2844,-6.2399,-6.1714,-6.1697,-6.0761,-5.9028,-5.6627,-5.2698,-4.8416,-4.7534,0.0,0.0,0.0,-3.7918,-3.7184,-4.0432,-4.2433,0.0,-4.2616,-4.0689,0.0,0.0,0.0,-4.6764,-5.0839,-5.6033,-6.0786,-6.3246,-6.5687,-6.7448,-6.7485,-6.8201,-6.8935,-6.9227,-6.9354,-7.0034,-7.215,-7.2497,-7.1389,-6.8123,-6.4967,-6.0523,-5.3958,-5.3333,-5.4669,0.0,-6.182,-6.4145,-6.4127,-6.4897,-6.5375,-6.5356,-6.6109,-6.6531,-6.6531,-6.7283,-6.7687,-6.7724,-6.7705,-6.7302,-6.6568,-6.6549,-6.5705,-6.4108,-6.2456,-6.1667,-6.1557,-6.0805,-5.9157,-5.6914,-5.6932,-5.5575,-5.3568,-5.3568,-5.3501,-5.3501,-5.3501,-5.3501,-5.3501,0.0,0.0,0.0,0.0,0.0,0.0,0.0,0.0,0.0,0.0,0.0,0.0,0.0,0.0,0.0,0.0,0.0,0.0,0.0,-3.1932,-3.6138,-3.8615,-4.3626,-4.6728,-4.7535,-4.9426,-5.0802,-5.161,-5.2417,-5.2803,-5.2839,-5.4197,-5.5244,-5.6069,-5.7134,-5.8088,-5.8838,-5.939,-5.9797,-5.9857,-5.8245,-5.6956,-5.5611,-5.2108,-4.7758,-4.3058,0.0,0.0,0.0,0.0,0.0,0.0,-3.6229,0.0,0.0,-3.7239,-3.8432,-4.0377,0.0,0.0,-5.1977,-5.7079,-6.1025,-6.4439,-6.7393,-6.9119,-6.9798,-6.8715,-6.7008,-6.6246,-6.7912,-6.8259,-6.9186,-7.2044,-6.8864,-6.569,-6.4609,-6.3498,-6.0439,-5.3979,-5.4143,0.0,0.0,0.0,0.0,-6.2401,-6.3723,-6.4494,-6.4494,-6.576,-6.6494,-6.6494,-6.7265,-6.7687,-6.7687,-6.7687,-6.7283,-6.6494,-6.5411,-6.431,-6.3209,-6.2089,-6.0724,-5.9332,-6.006,-5.8482,-5.5461,-5.647,-5.5575,-5.3501,-5.3501,-5.3501,-5.3501,-5.3501,-5.3501,-5.3501,0.0,0.0,0.0,0.0,0.0,0.0,0.0,0.0,0.0,0.0,0.0,0.0,0.0,0.0,0.0,0.0,0.0,0.0,0.0,0.0,-3.1659,-3.3605,-3.7991,-4.0763,-4.1552,-4.3424,-4.4782,-4.5626,-4.7003,-4.7664,-4.77,-4.9389,-5.06,-5.1408,-5.2197,-5.3164,-5.4214,-5.4437,-5.4327,-5.3854,-5.1999,-5.0289,-4.8447,-4.5228,-4.1378,0.0,0.0,0.0,0.0,0.0,0.0,0.0,0.0,-3.334,-3.4302,-3.6193,-3.8854,-4.2598,0.0,-5.3078,-5.6785,-6.2713,-6.5852,-6.7999,-7.0055,-7.0495,-6.9743,-6.7247,-6.5419,-6.3903,-6.2706,-6.4413,-6.5484,-6.4082,-6.229,-6.1485,-6.2645,-6.1831,-5.9748,-5.6191,-5.6191,-5.6456,0.0,0.0,0.0,-6.0694,-6.2548,-6.3631,-6.3631,-6.5191,-6.62,-6.6494,-6.7265,-6.7687,-6.7687,-6.7687,-6.7136,-6.6054,-6.4732,-6.3484,-6.2346,-6.1539,-6.004,-5.8138,-5.8819,-5.7406,-5.4686,-5.5669,-5.504,-5.3501,-5.3501,-5.3501,-5.3501,-5.3501,-5.3501,-5.3501,0.0,0.0,0.0,0.0,0.0,0.0,0.0,0.0,0.0,0.0,0.0,0.0,0.0,0.0,0.0,0.0,0.0,0.0,0.0,0.0,0.0,-2.8576,-3.1091,-3.2797,-3.3605,-3.4422,-3.5293,-3.6101,-3.845,-3.957,-3.9588,-4.269,-4.458,-4.5369,-4.6159,-4.7384,-4.889,-4.803,-4.6396,-4.4246,-4.3359,-4.1199,-3.8347,-3.6625,0.0,0.0,0.0,0.0,0.0,0.0,0.0,0.0,0.0,0.0,-3.6927,-3.9496,-4.2029,-4.5736,-5.372,-5.774,-6.1172,-6.7467,-7.0146,-7.1248,-7.1211,-6.9834,-6.743,-6.3301,-6.3139,-6.1537,0.0,0.0,-5.8444,-4.8871,-5.3038,-5.8622,-6.1883,-5.9974,-5.8814,0.0,0.0,0.0,0.0,0.0,0.0,-5.941,0.0,-6.286,-6.2934,-6.4475,-6.5723,-6.6476,-6.7265,-6.7687,-6.7687,-6.7614,-6.6806,-6.5301,-6.4439,-6.3172,-6.1557,-6.0768,-5.9565,-5.8031,-5.7307,-5.6039,-5.4589,-5.4651,-5.4218,-5.3501,-5.3501,-5.3501,-5.3501,-5.3501,-5.3501,-5.3501,0.0,0.0,0.0,0.0,0.0,0.0,0.0,0.0,0.0,0.0,0.0,0.0,0.0,0.0,0.0,0.0,0.0,0.0,0.0,0.0,0.0,0.0,0.0,0.0,0.0,0.0,0.0,0.0,0.0,-3.5055,-3.4504,-3.5917,-3.7019,-3.7808,-3.7979,-3.867,-3.9679,-3.9447,-3.937,-3.9159,0.0,-3.6155,-3.5642,0.0,0.0,0.0,0.0,0.0,0.0,0.0,0.0,0.0,0.0,0.0,-3.9038,-4.3864,-4.7865,-5.2087,-5.8364,-6.2732,-6.6366,-6.9834,-7.055,-7.0257,-6.9651,-6.6843,-6.3044,-5.8382,-5.5438,-5.2847,0.0,0.0,0.0,-3.5092,-4.3414,0.0,-5.5174,-5.9077,0.0,-6.2148,0.0,-6.1318,-6.0731,-6.1998,0.0,0.0,-6.2456,-6.3356,-6.4604,-6.565,-6.6292,-6.6494,-6.7265,-6.7687,-6.7687,-6.6512,-6.5723,-6.5283,-6.3833,-6.2585,-6.1557,-6.0768,-5.9565,-5.8083,-5.7844,-5.6527,-5.4651,-5.5203,-5.4668,-5.3501,-5.3501,-5.3501,-5.3501,-5.3501,-5.3501,-5.3501,0.0,0.0,0.0,0.0,0.0,0.0,0.0,0.0,0.0,0.0,0.0,0.0,0.0,0.0,0.0,0.0,0.0,0.0,0.0,0.0,0.0,0.0,0.0,0.0,0.0,0.0,0.0,0.0,0.0,0.0,0.0,-2.9934,-3.1072,-3.1836,-3.185,-3.2502,-3.3604,0.0,0.0,0.0,0.0,0.0,0.0,0.0,0.0,0.0,0.0,0.0,0.0,0.0,0.0,-3.6285,-3.9111,-4.1846,-4.4984,-4.9921,0.0,-5.7519,-6.2842,-6.6457,-6.9155,-7.0881,-7.044,-6.8807,-6.5852,-6.231,-5.8263,-5.3396,-5.0157,0.0,0.0,0.0,0.0,0.0,0.0,0.0,-5.5057,-5.9651,-6.2472,0.0,-6.2249,0.0,-6.2181,-6.3649,-6.4567,0.0,-6.4108,-6.4328,-6.5264,-6.6054,-6.6659,-6.7008,-6.7448,-6.7522,-6.7173,-6.6274,-6.5466,-6.4769,-6.3815,-6.275,-6.1575,-6.1135,-5.9894,-5.8101,-5.7683,-5.6435,-5.4589,-5.4713,-5.4218,-5.3501,-5.3501,-5.3501,-5.3501,-5.3501,-5.3501,-5.3501,0.0,0.0,0.0,0.0,0.0,0.0,0.0,0.0,0.0,0.0,0.0,0.0,0.0,0.0,0.0,0.0,0.0,0.0,0.0,0.0,0.0,0.0,0.0,0.0,0.0,0.0,0.0,0.0,0.0,0.0,0.0,0.0,0.0,0.0,0.0,0.0,0.0,0.0,0.0,0.0,0.0,0.0,0.0,0.0,0.0,0.0,0.0,0.0,0.0,0.0,-3.8505,-4.146,-4.4911,-4.8636,-5.2546,-5.6602,-5.9336,-6.2071,-6.6733,-6.9027,-7.0275,-7.0972,-6.9779,-6.6935,-6.1227,-5.7097,-5.3148,-4.8433,0.0,-4.3879,-4.2455,0.0,-3.359,-4.569,0.0,-5.7509,-5.795,-6.0517,-6.1781,-6.0206,-6.1856,-6.3191,-6.3301,-6.4714,-6.5907,-6.6604,-6.6017,-6.5632,-6.5632,-6.6274,-6.6971,-6.7669,-6.7687,-6.7302,-6.6512,-6.6384,-6.5595,-6.409,-6.398,-6.3154,-6.1741,-6.1539,-6.0277,-5.8211,-5.7275,-5.6053,-5.4527,-5.3881,-5.3618,-5.3501,-5.3501,-5.3501,-5.3501,-5.3501,-5.3501,-5.3501,0.0,0.0,0.0,0.0,0.0,0.0,0.0,0.0,0.0,0.0,-1.9323,-1.9305,0.0,0.0,0.0,0.0,0.0,0.0,0.0,0.0,0.0,0.0,0.0,0.0,0.0,0.0,0.0,0.0,0.0,0.0,0.0,0.0,0.0,0.0,0.0,0.0,0.0,0.0,0.0,0.0,0.0,0.0,0.0,0.0,0.0,0.0,0.0,0.0,0.0,0.0,-4.1662,-4.6673,-5.1279,-5.4564,-5.7556,-6.163,-6.3594,-6.5228,-6.8733,-6.9889,-7.0128,-7.0275,-6.8109,-6.4439,-5.8731,-5.2839,0.0,0.0,0.0,-3.5801,-3.5529,-3.409,0.0,-4.3085,0.0,0.0,0.0,0.0,-6.068,0.0,0.0,0.0,0.0,0.0,0.0,0.0,0.0,-6.7265,-6.7265,-6.7412,-6.754,-6.7687,-6.7687,-6.7302,-6.6512,-6.5852,-6.5026,-6.409,-6.3374,-6.2879,-6.2567,-6.1208,-6.0058,-5.9023,-5.7547,0.0,-5.4589,-5.4482,-5.4042,-5.3501,-5.3501,-5.3501,-5.3501,-5.3501,-5.3501,-5.3501,0.0,0.0,0.0,0.0,0.0,0.0,0.0,-1.9305,-1.9448,-1.9881,-1.9918,-1.9773,-1.936,-1.9305,0.0,0.0,0.0,0.0,0.0,0.0,0.0,0.0,0.0,0.0,0.0,0.0,0.0,0.0,0.0,0.0,0.0,0.0,0.0,0.0,0.0,0.0,0.0,0.0,0.0,0.0,0.0,0.0,0.0,0.0,0.0,0.0,0.0,0.0,0.0,0.0,-3.957,-4.5828,-5.2821,-5.6969,-5.9722,-6.2089,-6.4567,-6.6788,-6.7907,-6.9743,-7.0954,-6.9265,-6.609,-6.1557,-5.4583,0.0,0.0,0.0,0.0,-3.2781,-2.9412,0.0,0.0,0.0,0.0,0.0,0.0,0.0,0.0,0.0,0.0,0.0,0.0,0.0,0.0,0.0,0.0,-6.7687,-6.7687,-6.7687,-6.7504,-6.7081,-6.7063,-6.6476,-6.5264,-6.4861,-6.4255,-6.3429,-6.3007,-6.2585,-6.2144,-6.1374,-6.0168,-5.859,-5.7424,-5.6056,-5.4589,-5.4218,-5.3832,-5.3501,-5.3501,-5.3501,-5.3501,-5.3501,-5.3501,-5.3501,0.0,0.0,0.0,0.0,0.0,0.0,0.0,-1.9305,-1.9522,-2.0169,-2.0236,-2.001,-1.9362,-1.9442,-1.9485,0.0,0.0,0.0,0.0,0.0,0.0,0.0,0.0,0.0,0.0,0.0,0.0,0.0,0.0,0.0,0.0,0.0,0.0,0.0,0.0,0.0,0.0,0.0,0.0,0.0,0.0,0.0,0.0,0.0,0.0,0.0,0.0,0.0,0.0,0.0,-3.5459,-4.1368,-4.9426,-5.5262,-5.9318,-6.0272,-6.3447,-6.6659,-6.6733,-6.9064,-7.077,-6.7889,-6.398,-5.8749,-5.0802,-4.6631,0.0,0.0,-3.2126,-3.1032,-2.5248,0.0,0.0,0.0,0.0,0.0,0.0,0.0,0.0,0.0,0.0,0.0,0.0,0.0,0.0,0.0,0.0,-6.7614,-6.7448,-6.743,-6.7063,-6.6274,-6.6237,-6.554,-6.4108,-6.409,-6.3668,-6.2805,-6.2805,-6.2475,-6.1851,-6.1502,-6.019,-5.8089,-5.7053,-5.5764,-5.4328,-5.3717,-5.3501,-5.3501,-5.3501,-5.3501,-5.3501,-5.3501,-5.3501,-5.3501,0.0,0.0,0.0,0.0,0.0,0.0,0.0,-1.9305,-1.9341,-1.9396,-1.9415,-1.9377,-1.9305,-1.9948,-2.0099,0.0,0.0,0.0,0.0,0.0,0.0,0.0,0.0,0.0,0.0,0.0,0.0,0.0,0.0,0.0,0.0,0.0,0.0,0.0,0.0,0.0,0.0,0.0,0.0,0.0,0.0,0.0,0.0,0.0,0.0,0.0,0.0,0.0,0.0,0.0,0.0,-3.3311,-3.8597,-4.7021,-5.5244,-5.6804,0.0,0.0,-6.6788,-6.7852,-6.7705,-6.5962,-6.1906,-5.64,-4.9022,0.0,0.0,0.0,-3.0368,-2.8376,-2.4849,-2.4683,0.0,0.0,0.0,0.0,0.0,0.0,0.0,0.0,0.0,0.0,0.0,0.0,0.0,0.0,0.0,-6.7375,-6.6641,-6.6604,-6.6237,-6.5448,-6.5411,-6.4989,-6.409,-6.409,-6.3668,-6.2805,-6.2805,-6.2768,-6.2658,-6.119,-5.968,-5.8094,-5.6507,-5.4948,0.0,-5.3501,-5.3501,-5.3501,-5.3501,-5.3501,-5.3501,-5.3501,-5.3501,-5.3501,0.0,0.0,0.0,0.0,0.0,0.0,-1.9305,-1.9305,-1.9467,-1.9954,-2.0012,-2.0022,-2.0022,-2.0312,-2.0188,0.0,0.0,0.0,0.0,0.0,0.0,0.0,0.0,0.0,0.0,0.0,0.0,0.0,0.0,0.0,0.0,0.0,0.0,0.0,0.0,0.0,0.0,0.0,0.0,0.0,0.0,0.0,0.0,0.0,0.0,0.0,0.0,0.0,0.0,0.0,0.0,0.0,-2.8943,-3.478,0.0,0.0,-5.3463,-5.774,-6.097,-6.4365,-6.6457,-6.4347,-6.0144,-5.5386,-5.0822,0.0,0.0,-3.3846,-2.9249,-2.5715,-2.4447,-2.4208,-2.567,0.0,0.0,0.0,0.0,0.0,0.0,0.0,0.0,0.0,0.0,0.0,0.0,0.0,-6.6531,-6.5907,-6.5099,-6.5962,-6.5907,-6.4622,-6.4585,-6.4163,-6.3337,-6.3319,-6.3154,-6.2805,-6.2805,-6.231,-6.1337,-6.0694,-5.9048,-5.6684,-5.5989,-5.4878,0.0,-5.3501,-5.3501,-5.3501,-5.3501,-5.3501,-5.3501,-5.3501,-5.3501,-5.3501,0.0,0.0,0.0,0.0,0.0,-1.9216,-1.8984,-1.9146,-1.9504,-2.0062,-2.0151,-2.0151,-2.0151,-2.0151,-1.9918,-1.936,0.0,0.0,0.0,0.0,0.0,0.0,0.0,0.0,0.0,0.0,0.0,-1.9305,-1.9305,0.0,0.0,0.0,0.0,0.0,0.0,0.0,0.0,0.0,0.0,0.0,0.0,0.0,0.0,0.0,0.0,0.0,0.0,0.0,0.0,0.0,0.0,0.0,0.0,0.0,0.0,0.0,-4.6452,-5.2068,-5.506,-6.0199,-6.4163,-6.1942,-5.7758,-5.3571,0.0,0.0,-3.7177,-3.4371,-2.8693,-2.4202,-2.42,-2.4974,-2.6224,0.0,0.0,0.0,0.0,0.0,0.0,0.0,0.0,0.0,0.0,0.0,0.0,0.0,-6.576,-6.4952,-6.4127,-6.5154,-6.5154,-6.3759,-6.3723,-6.3429,-6.2823,-6.2805,-6.2805,-6.2805,-6.2805,-6.2089,-6.075,-6.0511,-5.8951,-5.6397,-5.5925,-5.4999,0.0,-5.3618,-5.3501,-5.3501,-5.3501,-5.3501,-5.3501,-5.3501,-5.3501,-5.3501,0.0,0.0,0.0,0.0,0.0,0.0,-1.8234,-1.8804,-1.9305,-1.9323,-1.9323,-1.9323,-1.9323,-1.9323,-1.9323,-1.9305,0.0,0.0,0.0,0.0,0.0,0.0,0.0,0.0,0.0,0.0,-1.9305,-1.9305,-1.9305,-1.9305,-1.9305,0.0,0.0,0.0,0.0,0.0,0.0,0.0,0.0,0.0,0.0,0.0,0.0,0.0,0.0,0.0,0.0,0.0,0.0,0.0,0.0,0.0,0.0,0.0,0.0,0.0,-3.9606,-4.7719,-5.0215,-5.5574,-6.007,-5.8455,-5.4418,-5.0386,0.0,0.0,-3.585,-3.4151,-2.8678,-2.4207,-2.42,-2.6788,-2.8455,-2.6881,-2.8868,0.0,0.0,0.0,0.0,0.0,0.0,0.0,0.0,0.0,0.0,0.0,-6.576,0.0,-6.4127,-6.4108,-6.3723,-6.286,-6.2823,-6.2823,-6.2805,-6.2805,-6.2805,-6.2805,-6.2805,-6.2383,-6.1557,-6.0768,-5.9565,-5.8013,-5.6397,-5.5262,0.0,-5.3766,-5.3501,-5.3501,-5.3501,-5.3501,-5.3501,-5.3501,-5.3501,-5.3501,0.0,0.0,0.0,0.0,0.0,0.0,0.0,-1.9127,-1.9305,-1.9305,-1.8822,-1.8483,-1.8483,-1.798,-1.7884,-1.8429,0.0,0.0,0.0,0.0,0.0,0.0,0.0,0.0,0.0,0.0,-1.9305,-1.9305,-1.9305,-1.9592,-2.0099,-1.9559,-1.9592,0.0,0.0,0.0,0.0,0.0,0.0,0.0,0.0,0.0,0.0,0.0,0.0,0.0,0.0,0.0,0.0,0.0,0.0,0.0,0.0,0.0,0.0,0.0,0.0,0.0,-4.0065,-4.3993,-4.7095,-4.6581,-4.447,-4.3258,-4.602,-4.1293,-3.4577,-2.8479,-2.5608,-2.4207,-2.42,-2.5034,-2.651,-2.8934,-2.9434,0.0,0.0,0.0,0.0,0.0,0.0,0.0,0.0,0.0,0.0,-6.4787,-6.4071,-6.3484,-6.3227,-6.3209,-6.3099,-6.2823,-6.2805,-6.2548,-6.1998,-6.1979,-6.1704,-6.1172,-6.1172,-6.075,-5.996,-5.9722,-5.8762,-5.7203,-5.6184,-5.5262,-5.4527,-5.3766,-5.3501,-5.3501,-5.3501,-5.3501,-5.3501,-5.3501,-5.3501,-5.3501,0.0,0.0,0.0,0.0,0.0,0.0,0.0,-1.8206,-1.8377,-1.8377,-1.7967,-1.7654,-1.7638,-1.7209,-1.7098,-1.761,0.0,0.0,0.0,0.0,0.0,0.0,0.0,0.0,0.0,-1.9305,-1.9305,-1.9305,-1.9611,-2.0188,-2.0985,-2.0785,-2.0803,-2.0967,-2.0477,0.0,0.0,0.0,0.0,0.0,0.0,0.0,-1.9305,0.0,0.0,0.0,0.0,0.0,0.0,0.0,0.0,0.0,0.0,0.0,0.0,0.0,-2.3474,0.0,0.0,-3.6358,-3.9368,-3.968,-3.8897,0.0,0.0,-3.9539,-3.3243,-2.575,-2.4205,-2.4189,-2.4185,-2.4701,-2.6064,-2.8915,-2.9425,0.0,0.0,0.0,0.0,0.0,0.0,0.0,0.0,0.0,0.0,-6.4016,-6.3301,-6.2805,-6.2805,-6.2511,-6.2346,-6.2346,-6.2346,-6.2108,-6.1594,-6.13,-6.0896,-6.0401,-6.0401,-5.9997,-5.9161,-5.8933,-5.8115,-5.6843,-5.5741,-5.5042,0.0,-5.3766,-5.3501,-5.3501,-5.3501,-5.3501,-5.3501,-5.3501,-5.3315,-5.3061,0.0,0.0,0.0,0.0,0.0,0.0,0.0,0.0,-1.6902,-1.6899,-1.6848,-1.6798,-1.6804,-1.6765,-1.6765,-1.6802,0.0,0.0,0.0,0.0,0.0,0.0,0.0,0.0,0.0,-1.9305,-1.9305,-1.9305,-2.0169,-2.1038,-2.1894,-2.2716,-2.2666,-2.1872,-2.1826,-2.0874,-1.9305,-1.9305,-1.9305,-1.9305,-1.9305,-1.9305,0.0,0.0,0.0,0.0,0.0,0.0,0.0,0.0,0.0,0.0,0.0,0.0,0.0,0.0,0.0,0.0,0.0,0.0,0.0,0.0,0.0,0.0,0.0,-3.6569,0.0,-2.5476,-2.4186,-2.4263,-2.4503,-2.5678,-2.6835,-2.7558,0.0,0.0,0.0,0.0,0.0,0.0,0.0,0.0,0.0,0.0,-6.3154,-6.3943,-6.3264,-6.2805,-6.2805,-6.2034,-6.1594,-6.1594,-6.1484,-6.1429,-6.1429,-6.0694,-6.0291,-6.0236,-6.0188,-5.9736,-5.9022,-5.8272,-5.7528,0.0,-5.522,-5.4589,-5.4527,-5.3766,-5.3501,-5.3501,-5.3501,-5.3501,-5.3501,-5.345,-5.2942,-5.23,0.0,0.0,0.0,0.0,0.0,0.0,0.0,0.0,0.0,0.0,-1.6356,-1.5987,-1.5966,-1.542,-1.5316,0.0,0.0,0.0,0.0,0.0,0.0,0.0,0.0,0.0,0.0,-1.9305,-1.9305,-1.9305,-2.0766,-2.1912,-2.2734,-2.354,-2.3488,-2.2686,-2.2075,-2.0874,-1.9305,-1.9305,-1.9305,-1.9305,-1.9305,-1.9305,0.0,0.0,0.0,0.0,-1.9305,-1.9305,0.0,0.0,0.0,0.0,0.0,0.0,0.0,0.0,-1.9418,-1.9858,-2.1216,0.0,-2.4263,-2.4465,0.0,0.0,0.0,0.0,0.0,0.0,0.0,0.0,0.0,0.0,0.0,0.0,0.0,0.0,0.0,0.0,0.0,0.0,0.0,0.0,0.0,0.0,-6.2897,-6.3099,-6.2934,-6.2805,-6.2805,-6.2034,-6.1594,-6.1594,-6.0419,-5.9777,-5.9777,-5.9593,-5.9189,-5.8565,-5.8014,-5.7637,-5.7406,-5.6635,-5.6182,-5.5948,-5.4982,-5.4589,-5.4527,-5.3766,-5.3501,-5.3501,-5.3501,-5.3501,-5.3433,-5.2807,-5.2469,-5.2232,0.0,0.0,0.0,0.0,0.0,0.0,0.0,0.0,0.0,0.0,0.0,0.0,0.0,0.0,0.0,0.0,0.0,0.0,0.0,0.0,0.0,0.0,0.0,-1.9305,-1.9305,-1.9305,-1.9305,-1.9305,-2.0967,-2.2414,-2.3584,-2.4745,-2.486,-2.4014,-2.2061,-2.0495,-1.9305,-1.9305,-1.9305,-1.9305,-1.9305,0.0,0.0,0.0,0.0,0.0,-1.9305,-1.9305,0.0,-1.9305,-1.9305,-1.9305,0.0,0.0,0.0,0.0,-1.9305,-1.9305,-1.9305,-2.017,-2.1198,-2.1548,-2.1369,-2.1443,0.0,0.0,0.0,0.0,0.0,0.0,0.0,0.0,0.0,0.0,0.0,0.0,0.0,0.0,0.0,0.0,0.0,0.0,0.0,0.0,-6.2805,-6.2805,-6.2805,-6.2658,-6.2273,-6.1484,-6.0878,-6.0511,-5.93,-5.8841,-5.9208,-5.8841,-5.8437,-5.7997,-5.7234,-5.6912,-5.6861,-5.5741,-5.5203,-5.5144,-5.4437,-5.4106,-5.4042,-5.3668,-5.3281,-5.2959,-5.2959,-5.2756,-5.2401,-5.1961,-5.1589,-5.1234,0.0,0.0,0.0,0.0,0.0,0.0,0.0,0.0,0.0,0.0,0.0,0.0,0.0,0.0,0.0,0.0,0.0,0.0,0.0,0.0,0.0,0.0,0.0,-1.9305,-1.9305,-1.9305,-1.9305,-1.9305,-2.122,-2.294,-2.4437,-2.6154,-2.634,-2.5073,-2.1914,-2.0043,-1.9305,-1.9305,-1.9305,-1.9305,-1.9305,0.0,0.0,0.0,0.0,0.0,0.0,0.0,0.0,-1.9305,-1.9381,-1.9455,-1.9326,0.0,0.0,0.0,0.0,0.0,-1.9436,-2.0903,-2.2391,-2.2575,-2.1315,-2.0365,0.0,0.0,0.0,0.0,0.0,0.0,0.0,0.0,0.0,0.0,0.0,0.0,0.0,0.0,0.0,0.0,0.0,0.0,0.0,-6.242,-6.2585,-6.2456,-6.2438,-6.2144,-6.1447,-6.0658,-5.9905,-5.9245,-5.8419,-5.8327,-5.9024,-5.8345,-5.7997,-5.7997,-5.7116,-5.6739,-5.6668,-5.4979,-5.4247,-5.4184,-5.3477,0.0,-5.3162,-5.3162,-5.2756,-5.2131,-5.2131,-5.1758,-5.12,-5.1082,-5.0642,-5.0067,0.0,0.0,0.0,0.0,0.0,0.0,0.0,0.0,0.0,0.0,0.0,0.0,0.0,0.0,0.0,0.0,0.0,0.0,0.0,0.0,0.0,0.0,-1.9305,-1.9305,-1.9305,-1.9305,-1.9305,-1.9305,-2.2349,-2.431,-2.5276,-2.7563,-2.7098,-2.4278,-2.1668,-2.0043,-1.9305,-1.9305,-1.9305,-1.9305,-1.9305,0.0,0.0,0.0,0.0,0.0,0.0,0.0,0.0,-1.9305,-1.9748,-2.0207,-1.951,0.0,0.0,0.0,0.0,0.0,-2.0134,-2.252,-2.4227,-2.1565,-2.2172,-2.3159,0.0,0.0,0.0,0.0,0.0,0.0,0.0,0.0,0.0,0.0,0.0,0.0,0.0,0.0,0.0,0.0,0.0,0.0,-5.8988,-6.0584,-6.1502,-6.0823,-6.0768,-6.0713,-6.0584,-5.9832,-5.9336,-5.9208,-5.8419,-5.8052,-5.818,-5.8052,-5.7997,-5.7997,-5.6562,-5.5893,-5.5819,-5.3621,-5.2649,-5.2615,0.0,-5.1572,-5.1572,-5.1572,-5.1505,-5.1386,-5.1386,-5.1319,-5.1133,-5.049,-5.0185,-4.9999,0.0,0.0,0.0,0.0,0.0,0.0,0.0,0.0,0.0,0.0,0.0,0.0,0.0,0.0,0.0,0.0,0.0,0.0,0.0,0.0,0.0,-1.9305,-1.9305,-1.9305,-1.9305,-1.9737,-1.9936,-1.9936,-2.279,-2.4611,-2.5436,-2.654,-2.5798,-2.3453,-2.141,-2.0043,-1.9305,-1.9305,-1.9305,-1.9305,0.0,0.0,0.0,0.0,0.0,0.0,0.0,0.0,0.0,0.0,-1.9638,-1.9785,-1.9418,0.0,0.0,0.0,0.0,0.0,-1.9748,-2.1932,-2.3565,-2.1279,-2.3129,-2.5524,0.0,0.0,0.0,0.0,0.0,0.0,0.0,0.0,0.0,0.0,0.0,0.0,0.0,0.0,0.0,0.0,0.0,-6.0456,-5.941,-6.0309,-6.0805,-6.0438,-6.0401,-6.0217,-5.9777,-5.941,-5.9006,-5.8584,-5.8198,-5.7997,-5.7997,-5.7574,-5.7354,-5.7354,-5.538,-5.4467,-5.4394,-5.254,-5.1725,-5.1708,-5.1369,-5.1217,-5.1217,-5.1217,-5.098,-5.0608,-5.0608,-5.0371,-4.9982,-4.9627,-4.9509,-4.9458,0.0,0.0,0.0,0.0,0.0,0.0,0.0,0.0,0.0,0.0,0.0,0.0,0.0,0.0,0.0,0.0,0.0,0.0,0.0,0.0,-1.9305,-1.9305,-1.9305,-1.9378,-1.9592,-2.0188,-2.0594,-2.0807,-2.3068,-2.4598,-2.5402,-2.5403,-2.4456,-2.2706,-2.1176,-2.0074,-1.9361,-1.932,-1.9305,-1.9305,0.0,0.0,0.0,0.0,0.0,0.0,0.0,0.0,0.0,0.0,0.0,0.0,0.0,0.0,0.0,-1.9344,-1.9305,-1.9326,-1.9528,-2.1253,-2.2776,-2.1911,0.0,-2.6825,-2.7669,0.0,0.0,0.0,0.0,0.0,0.0,0.0,0.0,0.0,0.0,0.0,0.0,0.0,0.0,0.0,-5.9006,-5.9593,-5.9813,-6.0015,-6.0052,-5.985,-5.985,-5.9575,-5.8969,-5.8933,-5.8545,-5.7745,-5.7726,-5.7569,-5.7207,-5.6423,-5.6272,-5.6785,-5.4655,-5.3584,-5.3333,-5.1847,-5.1138,-5.0947,-5.0777,-5.0693,-5.0693,-5.0693,-5.0355,-4.983,-4.983,-4.9492,-4.8984,-4.8815,-4.8748,-4.8748,0.0,0.0,0.0,0.0,0.0,0.0,0.0,0.0,0.0,0.0,0.0,0.0,0.0,0.0,0.0,0.0,0.0,0.0,0.0,0.0,-1.9305,-1.9305,-1.9305,-1.9648,-2.0388,-2.0477,-2.0903,-2.1714,-2.3381,-2.462,-2.5402,-2.5413,-2.4214,-2.2027,-2.0964,-2.0158,-1.9561,-1.9376,-1.9305,-1.9305,-1.9305,0.0,0.0,0.0,0.0,0.0,0.0,0.0,0.0,0.0,0.0,0.0,0.0,0.0,-2.0264,-1.951,-1.9305,-1.9455,-2.0225,-2.1676,-2.3144,-2.3805,0.0,0.0,-2.4857,0.0,0.0,0.0,0.0,0.0,0.0,0.0,0.0,0.0,0.0,0.0,0.0,0.0,0.0,-5.9116,-5.9832,-5.9758,-5.8309,-5.8859,-5.8988,-5.8235,-5.8162,-5.8143,-5.8088,-5.8088,-5.7734,-5.7015,-5.6964,-5.6309,-5.4864,-5.4028,-5.4727,-5.6804,-5.519,-5.4041,-5.3315,-5.1865,-5.0858,-5.0135,-4.9458,-4.9171,-4.9171,-4.9171,-4.9137,-4.9086,-4.9086,-4.9052,-4.8917,-4.824,-4.8003,-4.8003,0.0,0.0,0.0,0.0,0.0,0.0,0.0,0.0,0.0,0.0,0.0,0.0,0.0,0.0,0.0,0.0,0.0,0.0,0.0,0.0,-1.9305,-1.9305,-1.9305,-1.9666,-2.0477,-2.0509,-2.0662,-2.0984,-2.2645,-2.3871,-2.4634,-2.3712,-2.2838,-2.1941,-2.0558,-1.9819,-1.9587,-1.939,-1.9305,-1.9305,-1.9305,-1.9365,0.0,0.0,0.0,0.0,0.0,0.0,0.0,0.0,-1.9674,-1.9693,0.0,-1.951,-1.9693,-1.9381,-1.9305,-1.9363,-1.9675,-2.0697,-2.1617,-2.1227,0.0,0.0,0.0,0.0,0.0,0.0,0.0,0.0,0.0,0.0,0.0,0.0,0.0,0.0,0.0,0.0,0.0,-5.9208,-5.9483,-5.9226,-5.8107,-5.8272,-5.8327,-5.8015,-5.7997,-5.7997,-5.7997,-5.7997,-5.7441,-5.6241,-5.6223,-5.5502,-5.3956,-5.314,-5.3174,-5.399,-5.2449,-5.154,-5.1245,-5.0307,-4.9699,-4.9407,-4.912,-4.9001,-4.9001,-4.9001,-4.9001,-4.9001,-4.9001,-4.9001,-4.8968,-4.8697,-4.8595,-4.8595,0.0,0.0,0.0,0.0,0.0,0.0,0.0,0.0,0.0,0.0,0.0,0.0,0.0,0.0,0.0,0.0,0.0,0.0,-1.6894,-1.8416,-1.9305,-1.9305,-1.9305,-1.9559,-2.0099,-2.0115,-2.0373,-2.0916,-2.2063,-2.2795,-2.3088,-2.2041,-2.1443,-2.1253,-2.0047,-1.9544,-1.9599,-1.9394,-1.9335,-1.9394,-1.9394,-1.9485,0.0,0.0,0.0,0.0,0.0,0.0,0.0,0.0,-1.9471,0.0,0.0,0.0,-1.9305,-1.9305,-1.9305,-1.9305,-1.9305,-1.9845,0.0,0.0,0.0,0.0,0.0,0.0,0.0,0.0,0.0,0.0,0.0,0.0,0.0,0.0,0.0,0.0,0.0,0.0,-5.8822,-5.8822,-5.8822,-5.851,-5.7703,-5.785,-5.7776,-5.7281,-5.7483,-5.7501,-5.7244,-5.7244,-5.6656,-5.5428,-5.541,-5.4574,-5.2795,-5.2212,-5.1716,-5.1249,-5.0195,-4.9763,-4.9976,-4.9504,-4.9212,-4.9001,-4.9001,-4.9001,-4.9001,-4.9001,-4.9001,-4.9001,-4.9001,-4.9001,-4.8968,-4.8748,-4.8663,-4.8629,0.0,0.0,0.0,0.0,0.0,0.0,0.0,0.0,0.0,0.0,0.0,0.0,0.0,0.0,0.0,0.0,0.0,0.0,-1.6902,-1.8395,-1.9305,-1.9305,-1.9305,-1.9305,-1.9305,-1.9305,-2.0099,-2.1767,-2.1767,-2.1454,-2.08,-2.0585,-2.0248,-1.9797,-1.9448,-1.9409,-1.9601,-1.938,-1.9427,-1.9601,-1.9614,-1.9614,-1.9614,0.0,0.0,0.0,0.0,0.0,0.0,0.0,-1.9452,-1.9305,0.0,0.0,0.0,-1.9305,-1.9323,-1.9308,-1.9289,-1.9294,0.0,0.0,0.0,0.0,0.0,0.0,0.0,0.0,0.0,0.0,0.0,0.0,0.0,0.0,0.0,0.0,0.0,-5.7997,-5.7997,-5.7997,-5.7978,-5.7666,-5.6877,-5.7519,-5.7317,-5.5702,-5.6345,-5.6436,-5.5629,-5.5592,-5.5268,-5.453,-5.4481,-5.3458,-5.1211,-5.1211,-5.0437,-4.8984,-4.8984,-4.9359,-4.9976,-4.9976,-4.9622,-4.9001,-4.9001,-4.9001,-4.9001,-4.9001,-4.8984,-4.8984,-4.8984,-4.8984,-4.89,-4.8189,-4.7919,-4.7834,0.0,0.0,0.0,0.0,0.0,0.0,0.0,0.0,0.0,0.0,0.0,0.0,0.0,0.0,0.0,0.0,0.0,0.0,-1.6938,-1.8395,-1.9305,-1.9305,-1.9305,-1.9305,-1.9305,-1.9305,-1.954,-2.0043,-2.0188,-2.0428,-2.0793,-2.027,-2.0233,-2.0606,-1.9848,-1.9553,-1.9601,-1.9541,-1.9452,-1.9394,-1.9541,-1.9614,-1.9614,0.0,0.0,0.0,0.0,0.0,0.0,0.0,0.0,0.0,0.0,0.0,0.0,-1.9305,-1.9693,-2.0026,-1.9451,0.0,0.0,0.0,0.0,0.0,0.0,0.0,0.0,0.0,0.0,0.0,0.0,0.0,0.0,0.0,0.0,-5.5317,-5.6932,-5.7171,-5.7171,-5.7171,-5.6657,-5.6216,-5.5978,-5.6161,-5.6106,-5.5629,-5.5812,-5.5849,-5.5592,-5.5592,-5.4994,-5.3731,-5.3646,-5.2585,-5.0397,-5.0379,-4.9646,-4.824,-4.824,-4.8616,-4.9316,-4.9316,-4.9212,-4.9001,-4.9001,-4.9001,-4.8968,-4.8443,-4.7919,-4.7445,-4.7445,-4.7767,-4.8206,-4.8003,-4.824,-4.8578,0.0,0.0,0.0,0.0,0.0,0.0,0.0,0.0,0.0,0.0,0.0,0.0,0.0,0.0,0.0,0.0,0.0,0.0,0.0,-1.859,-1.9305,-1.9305,-1.9305,-1.9305,-1.9305,-1.9305,-1.9341,-1.9415,-1.954,-1.9901,-2.0477,-1.9962,-2.0,-2.049,-1.9787,-1.952,-1.9582,-1.9513,-1.9495,-1.9485,-1.9582,-1.9614,-1.9614,0.0,0.0,0.0,0.0,0.0,0.0,0.0,0.0,0.0,0.0,0.0,0.0,-1.9305,-1.9877,-2.0305,-1.9515,0.0,0.0,0.0,0.0,0.0,0.0,0.0,0.0,0.0,0.0,0.0,0.0,0.0,0.0,0.0,-5.3775,-5.484,-5.6143,-5.6326,-5.6326,-5.6326,-5.5886,-5.5464,-5.5133,-5.5115,-5.4862,-5.4273,-5.3945,-5.3672,-5.3406,-5.3609,-5.3071,-5.1592,-5.2072,-5.1333,-4.9132,-4.9132,-4.8564,-4.7462,-4.7462,-4.7699,-4.8122,-4.8122,-4.8122,-4.8122,-4.8122,-4.8122,-4.8088,-4.7648,-4.7208,-4.6786,-4.6786,-4.7073,-4.7462,-4.7462,-4.775,-4.802,0.0,0.0,0.0,0.0,0.0,0.0,0.0,0.0,0.0,0.0,0.0,0.0,0.0,0.0,0.0,0.0,0.0,0.0,0.0,0.0,-1.9305,-1.9305,-1.9305,-1.9305,-1.9305,-1.9305,-1.9396,-1.9611,-1.9616,-1.9751,-1.9975,-1.972,-1.9681,-1.9769,-1.9475,-1.9442,-1.9582,-1.9423,-1.9499,-1.9774,-1.9662,-1.9582,-1.9569,-1.9569,0.0,0.0,0.0,0.0,0.0,0.0,0.0,0.0,0.0,0.0,-1.9305,-1.9305,-1.9895,-2.0396,0.0,0.0,0.0,0.0,0.0,0.0,0.0,0.0,0.0,0.0,0.0,0.0,0.0,0.0,0.0,0.0,-5.4308,-5.4638,-5.528,-5.5372,-5.5409,-5.5464,-5.528,-5.4895,-5.4252,-5.4124,-5.3485,-5.2108,-5.1366,-5.0674,-4.9998,-5.0581,-5.0286,-4.895,-5.0139,-4.987,-4.7835,-4.7748,-4.7348,-4.6583,-4.6515,-4.6447,-4.6397,-4.6667,-4.6786,-4.6786,-4.6786,-4.6752,-4.6701,-4.6701,-4.665,-4.6583,-4.6583,-4.6633,-4.6701,-4.6701,-4.6735,-4.6684,0.0,0.0,0.0,0.0,0.0,0.0,0.0,0.0,0.0,0.0,0.0,0.0,0.0,0.0,0.0,0.0,0.0,0.0,0.0,0.0,-1.9305,-1.9305,-1.9305,-1.9305,-1.9305,-1.9305,-1.9396,-1.9611,-1.9719,-1.9802,-1.9842,-1.9781,-1.9725,-1.9647,-1.9574,-1.9555,-1.9596,-1.9663,-1.9676,-1.9649,-1.9609,-1.9513,-1.9365,-1.9365,-1.9335,0.0,0.0,0.0,0.0,0.0,0.0,0.0,-1.9305,-1.9305,-1.9305,-1.9305,-2.0021,-2.0888,0.0,0.0,0.0,0.0,0.0,0.0,0.0,0.0,0.0,0.0,0.0,0.0,0.0,0.0,0.0,-5.2637,-5.3573,-5.4234,-5.3794,-5.372,-5.3959,-5.4583,-5.2986,-5.2013,-5.2472,-5.194,-5.1458,-5.1114,-5.0931,-5.0532,-4.9865,-4.9956,-4.9683,-4.8933,-4.919,-4.8844,-4.7817,-4.7228,-4.6281,-4.506,-4.4434,-4.3842,-4.3335,-4.572,-4.6786,-4.6786,-4.6786,-4.6464,-4.594,-4.594,-4.5585,-4.506,-4.506,-4.5415,-4.594,-4.594,-4.6295,-4.6684,0.0,0.0,0.0,0.0,0.0,0.0,0.0,0.0,0.0,0.0,0.0,0.0,0.0,0.0,0.0,0.0,0.0,0.0,0.0,0.0,-1.9305,-1.9305,-1.9305,-1.9305,-1.9305,-1.9305,-1.9396,-1.9611,-1.9663,-1.9745,0.0,-2.0126,-2.0247,-2.0178,-2.0059,-2.0074,-2.0141,-1.974,-1.9591,-1.9582,-1.9499,-1.938,-1.9305,-1.9305,-1.9305,-1.9305,-1.9305,0.0,0.0,0.0,0.0,0.0,0.0,0.0,-1.9305,-1.9305,-2.0058,-2.0869,0.0,0.0,0.0,0.0,0.0,0.0,0.0,0.0,0.0,0.0,0.0,0.0,0.0,0.0,0.0,-5.1555,-5.2123,-5.2527,-5.2123,-5.205,-5.2215,-5.2637,-5.1573,-5.0967,-5.1371,-5.0692,-5.0076,-4.9713,-4.9349,-4.8883,-4.8207,-4.8189,-4.7778,-4.678,-4.678,-4.6253,-4.5157,-4.4816,-4.4226,-4.347,-4.3064,-4.2675,-4.2354,-4.4282,-4.5382,-4.572,-4.5331,-4.4959,-4.4621,-4.4621,-4.4384,-4.4062,-4.4434,-4.4823,-4.5162,-4.5162,-4.5415,-4.5669,0.0,0.0,0.0,0.0,0.0,0.0,0.0,0.0,0.0,0.0,0.0,0.0,0.0,0.0,0.0,0.0,0.0,0.0,0.0,0.0,0.0,-1.9305,-1.9305,-1.9305,-1.9305,-1.9305,-1.9378,-1.954,-1.954,0.0,0.0,0.0,0.0,-2.0957,-2.0686,-2.0643,-2.0755,-1.976,-1.9456,-1.9569,-1.938,-1.9305,-1.9305,-1.9305,-1.9305,-1.9305,-1.9305,-1.9305,-1.9305,-1.9305,0.0,0.0,0.0,0.0,-1.9305,-1.9305,-1.9929,-2.0431,0.0,0.0,0.0,0.0,0.0,0.0,0.0,0.0,0.0,0.0,0.0,0.0,0.0,0.0,0.0,-5.0618,-5.071,-5.0747,-5.0618,-5.0453,-5.0417,-5.0563,-5.0215,-5.0013,-5.016,-4.9426,-4.8696,-4.8109,-4.7494,-4.6841,-4.6187,-4.6198,-4.56,-4.4227,-4.426,-4.3631,-4.2286,-4.2168,-4.21,-4.21,-4.1965,-4.1982,-4.2117,-4.2743,-4.3453,-4.4147,-4.3504,-4.3217,-4.3217,-4.3217,-4.3301,-4.3487,-4.413,-4.4384,-4.4384,-4.4384,-4.4299,-4.4181,0.0,0.0,0.0,0.0,0.0,0.0,0.0,0.0,0.0,0.0,0.0,0.0,0.0,0.0,0.0,0.0,0.0,0.0,-1.9253,0.0,0.0,-1.9305,-1.9305,-1.9305,-1.9305,-1.9305,-1.9323,-1.9341,0.0,0.0,0.0,0.0,0.0,-2.1634,0.0,-2.0763,-2.0755,-1.9922,-1.9587,-1.9569,-1.938,-1.9305,-1.9305,-1.9305,-1.9305,-1.9305,-1.9305,-1.9305,-1.9305,-1.9305,-1.9305,0.0,0.0,0.0,-1.9305,-1.9305,-1.9415,0.0,0.0,0.0,0.0,0.0,0.0,0.0,0.0,0.0,0.0,0.0,0.0,0.0,0.0,0.0,0.0,-4.9848,-5.0343,-5.0563,-4.9848,-4.9114,-4.8912,-4.9664,-4.7847,-4.6838,-4.7553,-4.6874,-4.6342,-4.6249,-4.6158,-4.582,-4.5204,-4.5204,-4.4618,-4.3398,-4.3348,-4.3013,-4.2286,-4.166,-4.1356,-4.1339,-4.0679,-4.0713,-4.1356,-4.1457,-4.1897,-4.2591,-4.2489,-4.2439,-4.2439,-4.2439,-4.2828,-4.3436,-4.3538,-4.3572,-4.3572,-4.3572,-4.3166,-4.2591,0.0,0.0,0.0,0.0,0.0,0.0,0.0,0.0,0.0,0.0,0.0,0.0,0.0,0.0,0.0,-1.8697,-1.877,-1.8929,-1.9271,-1.9305,-1.9305,-1.9305,-1.9305,-1.9305,-1.9305,-1.9305,-1.9305,-1.9305,0.0,0.0,0.0,-2.2425,-2.3105,0.0,0.0,0.0,0.0,0.0,-2.0111,-2.0059,-1.9519,-1.9565,-1.9968,-1.9968,-2.028,-2.0701,-2.0701,-2.0701,-2.0645,-2.0134,-1.9968,-1.9895,-1.9436,0.0,0.0,0.0,-1.9305,0.0,0.0,0.0,0.0,0.0,0.0,0.0,0.0,0.0,0.0,0.0,0.0,0.0,0.0,0.0,0.0,-4.7572,-4.781,-4.7921,-4.7572,-4.7205,-4.7095,-4.748,-4.6562,-4.6049,-4.6397,-4.6104,-4.559,-4.4835,-4.5217,-4.5001,-4.3924,-4.358,-4.3195,-4.2666,-4.1879,-4.1324,-4.1052,-4.073,-4.0578,-4.0578,-4.024,-4.0257,-4.0578,-4.0578,-4.1204,-4.2269,-4.1863,-4.1677,-4.1677,-4.1677,-4.188,-4.2219,-4.2625,-4.2777,-4.2777,-4.2777,-4.2574,-4.2286,0.0,0.0,0.0,0.0,0.0,0.0,0.0,0.0,0.0,0.0,0.0,0.0,0.0,0.0,0.0,0.0,-1.9305,-1.9305,-1.9305,-1.9305,-1.9305,-1.9305,-1.9305,-1.9305,-1.9305,-1.9305,-1.9305,0.0,0.0,0.0,-2.2118,-2.3327,-2.4538,0.0,-2.5071,0.0,0.0,0.0,0.0,0.0,0.0,-1.9968,-2.0521,-2.0758,-2.1235,-2.1803,-2.1803,-2.1803,-2.1711,-2.1051,-2.0831,-2.0703,-1.9858,-1.9601,0.0,0.0,0.0,0.0,0.0,0.0,0.0,0.0,0.0,0.0,0.0,0.0,0.0,0.0,0.0,0.0,0.0,0.0,0.0,-4.5902,-4.5902,-4.5902,-4.5902,-4.5718,-4.5608,-4.5608,-4.5406,-4.5278,-4.5278,-4.5278,-4.4876,-4.3864,-4.4354,-4.4173,-4.3012,-4.252,-4.2195,-4.1868,-4.0854,-4.0254,-4.007,-4.007,-4.007,-4.007,-4.007,-4.007,-4.007,-4.007,-4.0679,-4.1694,-4.1153,-4.0916,-4.0916,-4.0916,-4.1035,-4.1255,-4.1813,-4.2016,-4.2016,-4.2016,-4.1897,-4.1728,0.0,0.0,0.0,0.0,0.0,0.0,0.0,0.0,0.0,0.0,0.0,0.0,-1.9146,-1.9234,-1.9253,-1.9305,-1.9305,-1.9305,-1.9305,-1.9305,-1.9305,-1.9305,-1.9305,0.0,-1.9305,-1.9305,0.0,0.0,0.0,0.0,-2.2942,-2.3015,-2.4318,-2.6539,-2.6502,-2.564,-2.4135,0.0,0.0,0.0,0.0,0.0,0.0,0.0,0.0,0.0,0.0,-2.1803,-2.1803,-2.1766,-2.1729,-2.1565,-2.0721,-2.0429,-2.0283,0.0,0.0,0.0,0.0,0.0,0.0,0.0,0.0,0.0,0.0,0.0,0.0,0.0,0.0,0.0,0.0,0.0,0.0,-4.5902,-4.5902,-4.5902,-4.5902,-4.5241,-4.4764,-4.4764,-4.4085,-4.3608,-4.3608,-4.3608,-4.3608,-4.3518,-4.3554,-4.3324,-4.2765,-4.2688,-4.2133,-4.1001,-4.0891,-4.0607,-4.0121,-4.007,-4.007,-4.007,-4.007,-4.007,-4.007,-4.007,-4.0121,-4.0189,-4.0155,-4.0138,-4.0138,-4.0138,-4.0561,-4.1204,-4.1238,-4.1271,-4.1271,-4.1271,-4.0798,-4.0189,0.0,0.0,0.0,0.0,0.0,0.0,0.0,0.0,0.0,0.0,0.0,0.0,0.0,-1.9305,-1.9305,-1.9305,-1.9305,-1.9305,-1.9305,-1.9305,-1.9305,-1.9305,-1.9305,-1.9305,-1.9305,-1.9305,0.0,0.0,0.0,-2.0528,-2.142,-2.3033,-2.3969,-2.4337,-2.5364,-2.5493,-2.4869,-2.3566,0.0,0.0,0.0,0.0,0.0,0.0,0.0,0.0,0.0,0.0,0.0,-2.4117,-2.3786,-2.3199,-2.2373,-2.1365,-2.0338,-1.9528,-1.9305,0.0,0.0,0.0,0.0,0.0,0.0,0.0,0.0,0.0,0.0,0.0,0.0,0.0,0.0,0.0,0.0,-4.4268,-4.436,-4.436,-4.436,-4.4103,-4.392,-4.392,-4.3663,-4.3497,-4.3497,-4.3178,-4.2846,-4.2444,-4.1622,-4.1032,-4.0813,-4.0027,-3.9544,-3.9403,-3.9152,-3.9112,-3.9377,-3.892,-3.892,-3.9377,-3.9377,-3.9377,-3.9394,-3.9868,-4.007,-4.007,-4.007,-4.007,-4.007,-4.007,-4.024,-4.0476,-4.0476,-4.0476,-4.0476,-4.0476,-4.0307,-4.007,0.0,0.0,0.0,0.0,0.0,0.0,0.0,0.0,0.0,0.0,0.0,0.0,0.0,0.0,-1.9305,-1.9305,-1.9305,-1.9305,-1.9305,-1.9305,-1.9305,-1.9305,-1.9305,-1.9305,-1.9305,-1.9305,0.0,0.0,0.0,0.0,0.0,-2.2483,-2.3254,-2.307,-2.4392,-2.5164,0.0,0.0,0.0,-2.3327,0.0,0.0,-2.3492,0.0,0.0,0.0,0.0,0.0,0.0,0.0,-2.5254,-2.4447,-2.3657,-2.1879,-1.9977,-1.9463,-1.9311,0.0,0.0,0.0,0.0,0.0,0.0,0.0,0.0,0.0,0.0,0.0,0.0,0.0,0.0,0.0,0.0,0.0,-4.291,-4.3094,-4.3094,-4.3314,-4.3497,-4.3497,-4.3497,-4.3387,-4.3112,-4.2777,-4.2208,-4.1377,-4.0477,0.0,-3.9413,-3.8574,-3.8242,-3.8345,-3.8044,-3.8142,-3.8633,-3.8142,-3.8159,-3.8633,-3.8633,-3.8751,-3.9005,-3.9495,-3.9851,-4.007,-4.007,-4.007,-4.007,-4.007,-4.007,-4.007,-4.007,-4.007,-4.007,-4.007,-4.007,-4.007,0.0,0.0,0.0,0.0,0.0,0.0,0.0,0.0,0.0,-1.9305,0.0,0.0,0.0,0.0,0.0,-1.9305,-1.9305,-1.9305,-1.9305,-1.9305,-1.9305,-1.9305,-1.9305,-1.9323,-1.9341,-1.9323,0.0,0.0,0.0,0.0,0.0,0.0,-2.2226,-2.3015,-2.3823,-2.4612,-2.5366,0.0,-2.4905,-2.4135,0.0,-2.3547,-2.452,0.0,0.0,0.0,-2.8796,-2.8594,0.0,-2.7034,0.0,0.0,0.0,0.0,-1.9439,-1.9332,0.0,0.0,0.0,0.0,0.0,0.0,0.0,0.0,0.0,0.0,0.0,0.0,0.0,0.0,0.0,0.0,0.0,0.0,-4.1644,-4.2231,-4.2231,-4.291,-4.3424,-4.3424,-4.3424,-4.3112,-4.2341,-4.2268,-4.1697,-4.0402,-4.0239,-3.9792,-3.8729,-3.8608,-3.836,-3.7804,-3.7787,-3.7787,-3.7804,-3.7804,-3.7821,-3.7838,-3.7872,-3.8244,-3.8937,-3.8954,-3.9343,-4.002,-4.0037,-4.0054,-4.0054,-4.007,-4.007,-4.007,-4.007,-4.007,-4.007,-4.007,-4.007,-4.007,0.0,0.0,0.0,0.0,0.0,0.0,0.0,0.0,-1.9305,0.0,0.0,0.0,-1.9305,-1.9305,-1.9305,-1.9305,-1.9305,-1.9305,-1.9305,-1.9305,-1.9305,-1.9305,-1.9305,-1.9574,-2.0169,-1.9611,0.0,0.0,0.0,0.0,0.0,0.0,0.0,0.0,-2.3235,-2.3786,-2.452,-2.452,0.0,0.0,-2.4575,-2.5217,0.0,0.0,0.0,0.0,0.0,-3.0962,-3.1237,0.0,-3.0026,-2.8319,0.0,0.0,0.0,0.0,0.0,0.0,-1.9292,0.0,0.0,0.0,0.0,0.0,0.0,0.0,0.0,0.0,0.0,0.0,0.0,0.0,0.0,0.0,-3.8487,-4.0561,-4.0561,-4.1258,-4.1772,-4.1772,-4.1772,-4.168,-4.146,-4.1047,-4.0619,0.0,-3.9348,-3.8738,-3.842,-3.7045,-3.5975,-3.548,-3.4928,-3.4912,-3.5436,-3.5436,-3.5707,-3.6248,-3.6823,-3.7195,-3.7415,-3.7956,-3.8328,-3.8531,-3.9056,-3.9292,-3.9343,-3.9868,-4.007,-4.007,-4.007,-4.007,-4.007,-4.007,-4.007,-4.007,0.0,0.0,0.0,0.0,0.0,0.0,0.0,0.0,-1.9305,0.0,0.0,0.0,-1.9305,-1.9305,-1.9305,-1.9305,-1.9305,-1.9305,-1.9305,-1.9305,-1.9305,-1.9305,-1.9629,-2.0025,-2.0495,-2.0411,0.0,0.0,0.0,0.0,0.0,0.0,0.0,0.0,0.0,0.0,0.0,0.0,0.0,0.0,-2.4832,0.0,0.0,-2.8741,-3.0081,0.0,0.0,0.0,-3.3568,-3.322,-3.2027,0.0,0.0,0.0,0.0,0.0,0.0,0.0,0.0,0.0,0.0,0.0,0.0,0.0,-1.9895,-2.1015,-2.2538,0.0,0.0,0.0,0.0,0.0,0.0,0.0,-3.3862,-3.656,-3.8597,-3.9424,-3.982,-3.982,-3.9649,-3.9402,-3.9041,-3.8707,-3.8257,-3.7714,-3.6985,-3.6562,-3.6562,-3.525,-3.4459,-3.4353,-3.3752,-3.3609,-3.4032,-3.4032,-3.4404,-3.5165,-3.5605,-3.6163,-3.6789,-3.7246,-3.7601,-3.7922,-3.8345,-3.8717,-3.9022,-3.9445,-3.98,-4.007,-4.007,-4.007,-4.007,-4.007,-4.007,-4.007,0.0,0.0,0.0,0.0,0.0,0.0,0.0,0.0,0.0,0.0,-1.9378,-1.943,-1.943,-1.943,-1.9467,-1.9574,-1.9485,-1.9467,-1.9574,-1.9592,-1.9592,-1.9592,-2.0258,-2.068,-2.0778,-2.1461,0.0,0.0,0.0,0.0,0.0,0.0,0.0,0.0,0.0,0.0,0.0,0.0,0.0,-2.5348,-2.4722,-2.5915,0.0,0.0,-3.2008,-3.3183,-3.5477,-3.5862,-3.5119,-3.4137,-3.2779,0.0,0.0,0.0,0.0,0.0,-2.2264,0.0,0.0,0.0,0.0,0.0,0.0,0.0,-1.9491,-2.006,-2.1071,-2.2575,0.0,0.0,0.0,0.0,0.0,0.0,-2.8741,-3.1439,-3.6138,-3.7239,-3.7522,-3.7522,-3.7181,-3.6631,-3.59,-3.5829,-3.5386,-3.4224,-3.4164,-3.4102,-3.3986,-3.3543,-3.3461,-3.3886,-3.3434,-3.3169,-3.3169,-3.3237,-3.3643,-3.437,-3.4455,-3.525,-3.6654,-3.6654,-3.7009,-3.7652,-3.7736,-3.8193,-3.887,-3.8954,-3.9411,-4.007,-4.007,-4.007,-4.007,-4.007,-4.007,-4.007,-1.9305,0.0,0.0,0.0,0.0,0.0,0.0,0.0,0.0,-1.9305,-1.9862,-2.0277,-2.0277,-2.0277,-2.0566,-2.1257,-2.0659,-2.0566,-2.1257,-2.1309,-2.1309,-2.1309,-2.1458,-2.1844,-2.2502,-2.2043,-2.2115,0.0,0.0,0.0,0.0,0.0,0.0,0.0,0.0,0.0,0.0,0.0,0.0,-2.5439,-2.5933,0.0,-2.9861,-3.0962,-3.2706,-3.4679,-3.5862,-3.6597,-3.667,-3.4523,-3.3164,-3.1861,0.0,0.0,0.0,0.0,0.0,0.0,0.0,0.0,0.0,0.0,0.0,0.0,-2.0721,-2.0923,-2.1639,0.0,0.0,0.0,0.0,0.0,0.0,0.0,0.0,-2.8539,-3.2082,-3.3753,-3.4613,-3.4613,-3.4538,-3.4407,-3.4243,-3.4243,-3.4142,-3.3891,-3.3761,-3.3581,-3.3303,-3.2798,-3.2574,-3.2655,-3.2015,-3.163,-3.163,-3.2205,-3.2882,-3.3626,-3.4218,-3.4962,-3.5842,-3.5842,-3.5926,-3.6096,-3.6721,-3.7432,-3.8159,-3.8751,-3.9411,-4.007,-4.007,-4.007,-4.007,-4.007,-4.007,-4.007,-1.9305,0.0,0.0,0.0,0.0,0.0,0.0,0.0,0.0,-1.9862,-2.0622,-2.1142,-2.1147,-2.1148,-2.1323,-2.1752,-2.141,-2.133,-2.1767,-2.1803,-2.1803,-2.1803,-2.2168,-2.2592,-2.2994,-2.3012,-2.3196,0.0,0.0,0.0,0.0,0.0,0.0,0.0,0.0,0.0,0.0,0.0,-2.4887,-2.6025,-2.6447,0.0,-2.9787,-3.1384,-3.2999,-3.4578,-3.5844,-3.656,-3.645,-3.3568,-3.2871,0.0,0.0,-2.8141,-2.8507,0.0,-2.5972,-2.6079,0.0,0.0,0.0,-2.2169,0.0,0.0,0.0,-2.0831,-2.0886,-2.2134,-2.14,-2.0923,0.0,0.0,0.0,0.0,-2.3731,-2.5383,-2.6979,-2.9418,-3.1065,-3.1065,-3.0885,-3.0774,-3.0774,-3.1117,-3.1513,-3.191,-3.1894,-3.182,-3.167,-3.1181,-3.1076,-3.1473,-3.0955,-3.0835,-3.119,-3.1562,-3.2307,-3.3406,-3.3389,-3.3964,-3.5064,-3.5064,-3.5064,-3.5098,-3.5876,-3.6857,-3.7905,-3.7889,-3.8751,-4.007,-4.007,-4.007,-4.007,-4.007,-4.007,-4.007,-1.9305,0.0,0.0,0.0,0.0,0.0,0.0,0.0,0.0,-2.0639,-2.1639,-2.231,-2.2482,0.0,0.0,0.0,-2.2575,-2.2297,-2.292,-2.2516,-2.226,-2.226,-2.2884,-2.3232,-2.3232,-2.3876,-2.419,-2.419,0.0,0.0,0.0,0.0,0.0,0.0,0.0,0.0,0.0,0.0,0.0,-2.6869,0.0,-2.8081,-2.9452,-3.1586,-3.2871,-3.3788,-3.5459,-3.6156,-3.5844,-3.2871,-3.2724,-3.301,-2.847,-3.0373,0.0,0.0,0.0,0.0,0.0,0.0,0.0,0.0,0.0,-2.184,0.0,0.0,0.0,-2.1969,-2.0684,0.0,0.0,0.0,0.0,0.0,0.0,0.0,0.0,-2.5256,0.0,-2.7482,-2.7219,-2.7075,-2.7244,-2.7982,-2.8681,-2.926,-2.9437,-2.9566,-2.9616,-2.9393,-2.9592,-3.0352,-3.0214,-3.0395,-3.097,-3.1123,-3.1867,-3.3186,-3.256,-3.2983,-3.4286,-3.4286,-3.437,-3.4523,-3.5131,-3.6265,-3.7652,-3.7043,-3.7922,-3.9681,-3.9817,-3.9952,-4.007,-4.007,-4.007,-4.007,-1.9305,-1.9305,0.0,0.0,0.0,0.0,0.0,0.0,0.0,-2.1552,-2.2978,0.0,0.0,0.0,0.0,0.0,0.0,0.0,-2.6934,0.0,0.0,-2.3913,-2.4005,-2.406,-2.406,-2.4153,-2.419,-2.419,0.0,0.0,0.0,0.0,0.0,0.0,-2.419,0.0,0.0,0.0,-2.6284,0.0,-2.9219,-2.9898,0.0,-3.1164,-3.2045,-3.2963,-3.455,-3.5642,-3.6009,0.0,-3.3642,-3.3513,0.0,-3.356,-3.5577,0.0,0.0,0.0,0.0,0.0,0.0,0.0,-2.4997,0.0,0.0,0.0,-2.2042,-2.0115,0.0,0.0,0.0,0.0,0.0,0.0,0.0,0.0,-2.0888,-2.241,-2.3856,-2.4589,-2.4622,-2.4876,-2.5591,-2.6374,-2.6754,-2.6482,-2.7061,-2.7467,-2.7542,-2.8107,-2.8682,-2.9168,-2.979,-3.0142,-3.0226,-3.0869,-3.1596,-3.2408,-3.2324,-3.2713,-3.3525,-3.3525,-3.388,-3.4489,-3.459,-3.5487,-3.6907,-3.6806,-3.7313,-3.821,-3.887,-3.9512,-4.007,-4.007,-4.007,-4.007,-1.9305,0.0,0.0,0.0,0.0,0.0,0.0,0.0,0.0,0.0,0.0,0.0,0.0,0.0,0.0,0.0,0.0,-2.7049,0.0,0.0,0.0,0.0,0.0,0.0,-2.5577,-2.4688,-2.419,-2.419,-2.419,0.0,0.0,0.0,0.0,0.0,-2.4685,0.0,-2.5495,0.0,0.0,0.0,0.0,0.0,0.0,-3.2137,-3.2999,-3.3385,-3.4064,-3.4541,-3.4669,0.0,-3.3109,0.0,0.0,0.0,0.0,0.0,0.0,0.0,0.0,0.0,0.0,0.0,0.0,0.0,-2.3217,0.0,-2.153,0.0,0.0,0.0,0.0,0.0,0.0,0.0,-2.028,0.0,0.0,0.0,-2.1345,0.0,0.0,0.0,-2.4575,-2.4593,-2.4748,-2.5362,-2.5855,-2.5955,-2.5595,-2.6911,-2.7729,-2.7946,-2.8716,-2.9431,-3.0091,-3.0412,-3.114,-3.2273,-3.185,-3.2036,-3.2747,-3.2747,-3.2916,-3.3254,-3.4117,-3.5098,-3.6096,-3.6096,-3.6823,-3.7889,-3.777,-3.843,-3.9495,-3.9918,-4.007,-4.007,0.0,0.0,0.0,0.0,0.0,0.0,0.0,0.0,0.0,0.0,0.0,0.0,-2.8242,-2.7936,0.0,0.0,-3.1511,-3.0312,0.0,0.0,-2.7544,0.0,0.0,0.0,0.0,0.0,-2.4762,-2.452,0.0,0.0,0.0,0.0,0.0,0.0,0.0,-2.5439,-2.6174,0.0,0.0,-2.9219,-3.0393,-3.0931,-3.1177,-3.2711,-3.335,-3.3447,-3.3447,-3.3447,-3.3356,-3.2922,-3.262,0.0,-3.0757,0.0,0.0,0.0,0.0,0.0,-2.8891,0.0,0.0,0.0,0.0,0.0,0.0,0.0,0.0,0.0,0.0,0.0,0.0,0.0,0.0,0.0,0.0,-2.0501,0.0,0.0,0.0,0.0,0.0,0.0,0.0,-2.2868,-2.3032,-2.3961,-2.4196,-2.4194,-2.3947,-2.5515,-2.6579,-2.6926,-2.8071,-2.9111,-2.9938,-3.0268,-3.0937,-3.1968,-3.1444,-3.1461,-3.1985,-3.1985,-3.2087,-3.2381,-3.3643,-3.4624,-3.5318,-3.5537,-3.6282,-3.7246,-3.6907,-3.7432,-3.8481,-3.9225,-3.9597,-3.9783,-1.9305,-1.9305,0.0,0.0,0.0,0.0,0.0,0.0,0.0,0.0,0.0,0.0,0.0,0.0,0.0,0.0,0.0,-3.3647,-3.366,0.0,-2.9049,0.0,0.0,-2.6983,0.0,0.0,0.0,0.0,0.0,0.0,0.0,0.0,0.0,0.0,0.0,-2.5529,-2.7714,-2.7805,-2.9622,-3.2467,-3.2504,-3.2766,-3.3033,0.0,-3.2258,-3.255,-3.255,0.0,0.0,-3.3057,-3.2672,-3.2206,-3.3303,0.0,0.0,0.0,0.0,0.0,0.0,0.0,0.0,-2.7989,0.0,0.0,0.0,0.0,-2.3639,0.0,0.0,0.0,0.0,0.0,0.0,0.0,0.0,0.0,0.0,0.0,0.0,0.0,0.0,0.0,0.0,-2.1363,-2.1752,-2.1532,-2.1513,-2.1882,-2.2694,-2.3854,-2.5024,-2.6207,-2.8328,-2.9488,-2.954,-3.0622,-3.119,-3.1224,-3.1207,-3.1207,-3.1241,-3.1241,-3.1613,-3.2324,-3.3102,-3.3846,-3.459,-3.5318,-3.5656,-3.5774,-3.6502,-3.6806,-3.6941,-3.7702,-3.8413,-3.9039,0.0,0.0,0.0,0.0,0.0,0.0,0.0,-2.2941,0.0,0.0,0.0,0.0,0.0,-3.4563,-3.5701,0.0,0.0,-3.6305,-3.5951,-3.3979,0.0,0.0,0.0,-2.9793,0.0,0.0,0.0,0.0,0.0,0.0,0.0,0.0,0.0,0.0,0.0,-2.6539,0.0,0.0,0.0,0.0,0.0,-3.1952,-3.1693,0.0,-3.2657,-3.2484,-3.2484,-3.2484,-3.2517,-3.2681,-3.2553,-3.2505,-3.3506,-3.3413,-3.2867,-3.2346,-3.2164,-3.2305,-3.2835,-3.2582,-3.1863,-3.0527,0.0,0.0,0.0,0.0,0.0,0.0,0.0,0.0,0.0,0.0,0.0,0.0,0.0,0.0,0.0,0.0,0.0,0.0,0.0,0.0,0.0,0.0,-2.0272,-2.059,-2.0608,-2.0868,-2.1479,-2.2888,-2.4196,-2.538,-2.69,-2.7931,-2.8373,-2.9024,-2.974,-3.048,-3.048,-3.0734,-3.119,-3.119,-3.1596,-3.2324,-3.3085,-3.3829,-3.4556,-3.5318,-3.5622,-3.5639,-3.591,-3.6011,-3.6163,-3.7432,-3.8362,-3.9056,-2.0874,0.0,0.0,0.0,0.0,0.0,0.0,0.0,0.0,0.0,-3.0502,0.0,-3.6391,0.0,-3.8394,0.0,-4.0159,-3.9204,-3.7707,-3.6756,0.0,-3.4774,-3.3414,0.0,0.0,0.0,0.0,0.0,0.0,-2.7457,0.0,0.0,0.0,0.0,0.0,0.0,0.0,0.0,-3.0834,0.0,0.0,-3.153,0.0,0.0,-3.2125,-3.1827,-3.1987,-3.2021,-3.2056,-3.2213,-3.2317,-3.2489,-3.3108,-3.3556,-3.3816,-3.3799,-3.3807,-3.3805,-3.3802,-3.3526,-3.2996,-3.2045,-3.0632,0.0,-2.7769,0.0,-2.5676,0.0,0.0,0.0,0.0,0.0,0.0,0.0,0.0,0.0,0.0,-1.9305,0.0,0.0,0.0,0.0,0.0,0.0,-1.9431,-1.9758,-1.9777,-2.0117,0.0,-2.2553,-2.4005,-2.5143,-2.6743,-2.7806,-2.8233,-2.8459,-2.9178,-3.0265,-3.0166,-3.0497,-3.119,-3.119,-3.1444,-3.1952,-3.2966,-3.3677,-3.4184,-3.5199,-3.5622,-3.5622,-3.5622,-3.5622,-3.574,-3.6738,-3.7736,-3.8751,0.0,0.0,0.0,0.0,-2.2592,0.0,0.0,0.0,-2.8745,0.0,-3.2198,-3.5258,-3.5703,-3.8329,-4.0453,-4.1318,-4.2652,-4.2085,-3.8974,-3.9477,0.0,0.0,-3.5188,-3.4383,-3.2766,0.0,0.0,0.0,0.0,0.0,0.0,0.0,0.0,0.0,-2.6211,0.0,-2.9049,-2.9824,-3.1066,-3.2535,-3.2208,-3.1542,-3.0734,-3.0716,-3.0664,-3.0644,-3.104,-3.119,-3.1252,-3.1623,-3.1893,-3.2088,-3.2351,-3.2993,-3.3687,-3.3659,-3.3731,-3.3796,-3.3788,-3.3044,-3.2342,-3.2588,-3.1458,-3.0063,-2.9287,0.0,-2.8778,0.0,0.0,0.0,0.0,0.0,0.0,0.0,0.0,0.0,0.0,0.0,0.0,0.0,0.0,0.0,0.0,-1.9305,-1.923,-1.9018,-1.9019,0.0,0.0,-2.2689,-2.4231,-2.5375,-2.7674,-2.8882,-2.8888,-2.8905,-2.9466,-3.0525,-3.0194,-3.0446,-3.119,-3.119,-3.1207,-3.1326,-3.278,-3.3423,-3.3575,-3.503,-3.5622,-3.5622,-3.5622,-3.5639,-3.5673,-3.5723,-3.6671,-3.8159,-2.2574,-2.3657,-2.4468,0.0,-2.4155,-2.41,0.0,0.0,0.0,0.0,-3.4943,-3.7809,-4.0255,-4.175,-4.2341,-4.1739,-4.2013,0.0,0.0,0.0,0.0,-3.8047,-3.7638,-3.6524,-3.4495,-3.3273,0.0,-3.027,0.0,0.0,-2.8975,0.0,0.0,0.0,0.0,0.0,-2.8994,-2.9237,-3.0403,-3.2151,-3.1936,-3.1581,-3.1142,0.0,-3.0893,-3.0644,-3.104,-3.119,-3.123,-3.1312,-3.1385,-3.1428,-3.1493,-3.1689,-3.1865,-3.1868,-3.2778,-3.3737,-3.3433,-3.3378,-3.3421,-3.3476,-3.2284,-3.1035,-3.0834,-2.9861,-2.8778,0.0,0.0,0.0,0.0,0.0,0.0,0.0,0.0,0.0,0.0,0.0,0.0,-2.1914,0.0,0.0,0.0,-1.9305,-1.9274,-1.923,-1.9067,0.0,0.0,0.0,-2.3059,-2.4187,-2.6274,-2.7356,-2.7293,-2.7581,-2.8288,-2.9411,-2.9319,-2.9956,-3.119,-3.119,-3.1495,-3.2053,-3.3,-3.3711,-3.4286,-3.5233,-3.5622,-3.5622,-3.5622,-3.5977,-3.6552,-3.711,-3.7922,-3.8853,-2.3878,0.0,0.0,-2.6452,0.0,0.0,-2.7417,0.0,0.0,-3.3934,-3.7189,0.0,-4.0402,-4.2167,-4.278,-4.152,-4.1636,0.0,-4.0406,0.0,0.0,-3.9265,-3.8625,-3.7425,-3.5535,-3.4058,0.0,-3.0204,0.0,0.0,-2.8484,0.0,0.0,0.0,0.0,-2.7732,0.0,-2.8992,-2.999,-3.1219,-3.1288,-3.1115,0.0,-3.0721,-3.0768,-3.0888,-3.1138,-3.119,-3.119,-3.119,-3.119,-3.1196,-3.1206,-3.1196,-3.1202,-3.1202,-3.1894,-3.2749,-3.3093,-3.3361,-3.3578,-3.3762,-3.3109,-3.2357,-3.2008,-3.1237,-3.0356,-2.9531,-2.8662,-2.7783,-2.6891,-2.5561,0.0,0.0,0.0,0.0,0.0,0.0,0.0,0.0,-2.0913,0.0,-1.9363,-1.9113,-1.9081,-1.9289,-1.9101,0.0,0.0,0.0,-2.2959,-2.3999,-2.6405,-2.7315,-2.6493,-2.7843,-2.8768,-2.9211,-2.9406,-3.0074,-3.119,-3.119,-3.141,-3.185,-3.2594,-3.3339,-3.4083,-3.4827,-3.5318,-3.5622,-3.5622,-3.6299,-3.733,-3.7753,-3.8362,-3.9106,0.0,0.0,0.0,0.0,0.0,0.0,0.0,-3.2187,0.0,-3.515,0.0,-4.0607,-3.8726,-4.1125,-4.2323,-4.0998,0.0,-4.1392,-4.0595,-4.1205,-4.1001,-3.9632,-3.8706,-3.7601,-3.6139,-3.4389,-3.2282,0.0,0.0,0.0,0.0,0.0,0.0,0.0,0.0,0.0,0.0,-2.9096,-2.9851,-3.0286,-3.0629,-3.0568,-3.0243,-3.0243,-3.0649,-3.119,-3.119,-3.119,-3.119,-3.119,-3.119,-3.119,-3.119,-3.119,-3.1201,-3.1202,-3.1212,-3.148,-3.2688,-3.3105,-3.3273,-3.3634,-3.3762,-3.3623,-3.2926,-3.2687,-3.2375,-3.1568,-2.9933,-2.8562,-2.8294,-2.5775,0.0,0.0,0.0,0.0,0.0,0.0,0.0,0.0,0.0,0.0,0.0,0.0,0.0,0.0,0.0,0.0,0.0,0.0,-2.3291,-2.3922,-2.7077,-2.8075,-2.6705,-2.8885,-2.9958,-2.9989,-3.006,-3.0497,-3.119,-3.119,-3.119,-3.1241,-3.207,-3.2797,-3.3474,-3.4303,-3.503,-3.5622,-3.5622,-3.6552,-3.7905,-3.7905,-3.843,-3.9225,0.0,0.0,0.0,0.0,0.0,-3.3148,-3.6029,-3.5587,-3.5494,-3.7119,-3.9323,-4.0606,-4.0222,-4.1281,-4.1704,-4.0974,-4.0996,0.0,0.0,0.0,0.0,-4.0003,-3.8687,-3.7564,-3.6693,-3.4255,-3.2335,0.0,0.0,0.0,0.0,0.0,0.0,0.0,0.0,0.0,-2.8286,-2.9508,0.0,-3.0578,-3.0936,-3.1065,-3.1004,-3.1004,-3.1089,-3.119,-3.119,-3.119,-3.119,-3.119,-3.119,-3.119,-3.119,-3.119,-3.1173,-3.1184,-3.1196,-3.1301,-3.1899,-3.2598,-3.3214,-3.3273,-3.355,-3.3752,-3.3623,-3.3091,-3.2375,-3.1568,-3.0583,-2.9381,-2.773,-2.5865,-2.4639,0.0,0.0,0.0,0.0,0.0,0.0,0.0,0.0,-2.2425,0.0,0.0,0.0,0.0,0.0,0.0,0.0,0.0,-2.2684,0.0,-2.5893,-2.8363,-2.9144,-2.9178,-3.0324,-3.2525,-3.0885,-3.0497,-3.119,-3.119,-3.119,-3.1258,-3.2611,-3.3288,-3.3508,-3.4861,-3.5504,-3.5622,-3.5622,-3.6552,-3.7905,-3.7905,-3.8751,-3.9901,0.0,0.0,0.0,0.0,0.0,0.0,0.0,-3.7714,-3.7857,-3.8532,-3.9132,-3.9498,-3.9528,-4.0375,-4.0815,-4.0493,-4.0476,-4.0391,-4.0138,-3.975,-3.9379,-3.8992,-3.7925,-3.6614,-3.5077,-3.3823,-3.2038,-2.9719,0.0,0.0,-2.7505,0.0,0.0,0.0,0.0,-2.8153,0.0,0.0,0.0,-3.0645,-3.1045,-3.119,-3.119,-3.119,-3.119,-3.119,-3.119,-3.119,-3.119,-3.119,-3.119,-3.119,-3.119,-3.119,-3.119,-3.119,-3.121,-3.1281,-3.1681,-3.2127,-3.2533,-3.2777,-3.2965,-3.3196,-3.3419,-3.3203,-3.2721,-3.2166,-3.1239,-2.9823,-2.7378,-2.631,-2.5768,-2.5724,0.0,0.0,0.0,0.0,0.0,0.0,0.0,0.0,0.0,0.0,0.0,0.0,0.0,0.0,0.0,0.0,-2.23,0.0,0.0,-2.7921,-2.7614,-2.9683,-3.0823,-3.1018,-3.0768,-3.0852,-3.119,-3.119,-3.1393,-3.1799,-3.251,-3.3254,-3.4066,-3.5165,-3.5859,-3.6214,-3.6214,-3.7144,-3.8464,-3.8464,-3.9157,-4.007,0.0,-3.3488,0.0,0.0,-3.5089,0.0,-3.7735,-3.8947,-3.9682,-3.975,-3.9211,-3.8841,-3.8841,-3.9598,-4.007,-4.007,-4.007,-4.007,-4.007,-3.9413,-3.874,-3.8152,-3.7271,-3.5885,-3.3895,-3.355,-3.1974,0.0,0.0,0.0,-2.7439,0.0,0.0,0.0,0.0,0.0,0.0,-2.934,-3.0058,-3.0743,-3.1074,-3.119,-3.119,-3.119,-3.119,-3.119,-3.119,-3.119,-3.119,-3.119,-3.119,-3.119,-3.119,-3.119,-3.119,-3.119,-3.119,-3.1252,-3.1603,-3.1716,-3.188,-3.2264,-3.2517,-3.2745,-3.3124,-3.3273,-3.3172,-3.2682,-3.1492,-2.9897,-2.7809,-2.7067,-2.6674,-2.6296,0.0,0.0,0.0,0.0,0.0,0.0,0.0,0.0,-2.1291,0.0,0.0,0.0,0.0,0.0,-2.1068,0.0,0.0,0.0,-2.6424,-2.7506,-2.661,-3.0068,-3.1336,-3.0367,-3.1082,-3.1512,-3.1664,-3.1664,-3.1968,-3.2527,-3.2679,-3.3508,-3.4793,-3.5554,-3.6231,-3.6806,-3.6958,-3.7821,-3.8988,-3.8988,-3.9462,-4.007,0.0,0.0,0.0,0.0,0.0,0.0,-3.8372,-3.9192,-3.9969,-4.0662,-4.0273,-3.9969,-3.9969,-4.0037,-4.007,-4.007,-4.007,-4.007,-4.007,-3.9413,-3.8986,-3.89,-3.7541,-3.6356,-3.5421,-3.4054,-3.2747,0.0,0.0,-2.8674,-2.8198,0.0,0.0,0.0,0.0,-2.9402,-2.9366,-3.0145,-3.0722,-3.1167,-3.1196,-3.119,-3.119,-3.119,-3.119,-3.119,-3.119,-3.119,-3.119,-3.119,-3.119,-3.119,-3.119,-3.119,-3.119,-3.119,-3.119,-3.119,-3.1269,-3.1507,-3.1825,-3.1844,-3.25,-3.3154,-3.3184,-3.3494,-3.3515,-3.2753,-3.0812,-2.9384,-2.973,-2.8338,-2.7133,-2.701,0.0,0.0,0.0,0.0,-2.6212,0.0,0.0,0.0,0.0,-2.2116,0.0,0.0,-2.0444,0.0,0.0,0.0,0.0,-2.2807,-2.539,-2.7771,-2.9832,-3.0176,-3.1842,-3.4757,-3.3014,-3.2544,-3.3203,-3.3203,-3.3237,-3.3339,-3.3998,-3.4759,-3.5571,-3.6349,-3.6721,-3.6857,-3.7533,-3.8294,-3.8988,-3.8988,-3.9462,-4.007,0.0,0.0,0.0,0.0,0.0,0.0,0.0,-3.9632,-4.0054,-4.0391,-4.0222,-4.007,-4.007,-4.007,-4.007,-4.007,-4.007,-4.007,-4.007,-3.9413,-3.8785,-3.8339,-3.7353,-3.6242,-3.4958,-3.3921,-3.2761,0.0,0.0,0.0,0.0,-2.8691,-2.8828,-2.9414,-2.9933,-3.0171,-3.0144,-3.072,-3.104,-3.119,-3.119,-3.119,-3.119,-3.119,-3.119,-3.119,-3.119,-3.119,-3.119,-3.119,-3.119,-3.119,-3.119,-3.119,-3.119,-3.119,-3.119,-3.119,-3.119,-3.1329,-3.1449,-3.1449,-3.1714,-3.2127,-3.2648,-3.2903,-3.3076,-3.3286,-3.1812,-3.0344,-2.9837,-2.9344,-2.8833,-2.833,-2.7538,0.0,0.0,0.0,0.0,0.0,0.0,0.0,0.0,0.0,0.0,0.0,0.0,0.0,0.0,-2.2567,-2.3241,-2.4046,-2.5751,-2.7353,-2.8781,-3.0091,-3.1482,-3.2877,-3.292,-3.3119,-3.3406,-3.3406,-3.3643,-3.41,-3.4844,-3.5605,-3.6349,-3.6654,-3.7297,-3.8142,-3.8447,-3.9005,-3.9648,-3.9648,-3.9834,-4.007,-3.9708,0.0,-3.8153,0.0,-3.847,-3.8184,-3.9311,-3.9834,-4.007,-4.007,-4.007,-4.007,-4.007,-4.007,-4.007,-4.007,-3.9885,-3.9783,-3.9783,-3.8858,-3.8115,-3.762,-3.6842,0.0,-3.4524,-3.3787,-3.278,-3.1512,-3.0381,0.0,-2.9799,-2.9492,-2.9669,-3.0267,-3.049,-3.0679,-3.0793,-3.1091,-3.119,-3.119,-3.119,-3.119,-3.119,-3.119,-3.119,-3.119,-3.119,-3.119,-3.119,-3.119,-3.119,-3.119,-3.119,-3.119,-3.119,-3.119,-3.119,-3.119,-3.119,-3.119,-3.119,-3.119,-3.1291,-3.1545,-3.2144,-3.2517,-3.284,-3.3314,-3.2228,-3.0951,-3.0162,-3.0092,-2.9989,-2.9417,-2.8551,0.0,0.0,-2.6163,0.0,0.0,-2.4229,-2.474,-2.3703,-2.26,0.0,0.0,0.0,0.0,0.0,-2.313,-2.3691,-2.4953,-2.6011,-2.7096,-2.8252,-3.0197,-3.1529,-3.2171,-3.322,-3.3846,-3.4066,-3.4066,-3.4336,-3.4844,-3.5385,-3.6062,-3.6806,-3.7009,-3.7855,-3.9005,-3.9225,-3.9631,-4.007,-4.007,-4.007,-4.007,-4.0848,-4.029,-3.9598,-3.911,-3.8992,-3.8992,-3.9009,-3.9632,-4.007,-4.007,-4.007,-4.007,-4.007,-4.007,-4.007,-4.007,-3.943,-3.9009,-3.9009,-3.7653,-3.6818,0.0,0.0,-3.525,-3.4507,-3.3787,-3.3034,-3.2313,0.0,0.0,-3.0577,-3.0249,-3.0269,-3.0577,-3.0594,-3.0808,-3.1173,-3.119,-3.119,-3.119,-3.119,-3.119,-3.119,-3.119,-3.119,-3.119,-3.119,-3.119,-3.119,-3.119,-3.119,-3.119,-3.119,-3.119,-3.119,-3.119,-3.119,-3.119,-3.119,-3.119,-3.119,-3.119,-3.1507,-3.1789,-3.1825,-3.2533,-3.3075,-3.2616,-3.1548,-3.0801,-3.1121,-3.0581,-3.0099,-3.0103,-2.8782,-2.7279,0.0,-2.6648,0.0,-2.3512,-2.5541,-2.6555,-2.4918,-2.4037,0.0,0.0,0.0,0.0,0.0,-2.4021,-2.3741,-2.4953,-2.5708,-2.7161,-2.9351,-3.0602,-3.229,-3.4455,-3.4472,-3.4878,-3.5588,-3.5588,-3.5605,-3.5605,-3.5622,-3.6062,-3.684,-3.7584,-3.8328,-3.9056,-3.9783,-4.007,-4.007,-4.007,-4.007,-4.007,-4.0239,-4.0189,-3.9969,-3.9783,-3.9767,-3.9767,-3.9767,-3.9969,-4.007,-4.007,-4.007,-4.007,-4.007,-4.007,-4.007,0.0,-3.9868,-3.9544,0.0,-3.8572,-3.7831,-3.6842,-3.6559,-3.6061,-3.525,-3.4032,-3.3288,-3.3051,-3.1193,-3.0245,-3.0282,-3.0649,-3.0905,-3.1031,-3.1031,-3.1091,-3.119,-3.119,-3.119,-3.119,-3.119,-3.119,-3.119,-3.119,-3.119,-3.119,-3.119,-3.119,-3.119,-3.119,-3.119,-3.119,-3.119,-3.119,-3.119,-3.119,-3.119,-3.119,-3.119,-3.119,-3.119,-3.119,-3.1291,-3.147,-3.1716,-3.2264,-3.2681,-3.2517,-3.1548,-3.0818,-3.1155,-3.0834,-3.0422,-3.0135,-2.9497,-2.8412,-2.6666,0.0,-2.5654,-2.4253,-2.4844,-2.5351,-2.5362,-2.4878,0.0,0.0,0.0,0.0,0.0,-2.4524,-2.5066,-2.6463,-2.7519,-2.89,-3.0619,-3.2032,-3.3305,-3.4506,-3.5013,-3.5673,-3.64,-3.5859,-3.618,-3.7144,-3.6637,-3.7127,-3.8311,-3.8548,-3.9073,-3.9749,-3.9986,-4.007,-4.007,-4.007,-4.007,-4.007,-4.0003,-4.007,-4.007,-4.007,-4.007,-4.007,-4.007,-4.007,-4.007,-4.007,-4.007,-4.007,-4.007,-4.007,-4.007,-4.007,-3.9834,-3.9393,-3.8632,-3.8351,-3.7603,-3.6395,-3.6361,-3.583,-3.481,-3.388,-3.3136,-3.2577,-3.119,-3.0514,-3.0531,-3.097,-3.119,-3.119,-3.119,-3.119,-3.119,-3.119,-3.119,-3.119,-3.119,-3.119,-3.119,-3.119,-3.119,-3.119,-3.119,-3.119,-3.119,-3.119,-3.119,-3.119,-3.119,-3.119,-3.119,-3.119,-3.119,-3.119,-3.119,-3.119,-3.119,-3.119,-3.119,-3.1329,-3.1733,-3.1897,-3.2056,-3.2213,-3.1515,-3.0942,-3.1167,-3.1018,-3.0766,-3.0394,-2.978,-2.8814,-2.7245,-2.6427,-2.569,0.0,0.0,-2.5593,-2.5766,-2.6069,-2.6372,0.0,0.0,0.0,0.0,-2.5472,-2.601,-2.7363,-2.8745,-3.0243,-3.2002,-3.322,-3.4184,-3.4928,-3.569,-3.6163,-3.6332,-3.6146,-3.6417,-3.7043,-3.6857,-3.7466,-3.8616,-3.8886,-3.9411,-4.007,-4.007,-4.007,-4.007,-4.007,-4.007,-4.007,-4.007,-4.007,-4.007,-4.007,-4.007,-4.007,-4.007,-4.007,-4.007,-4.007,-4.007,-4.007,-4.007,-4.007,-4.007,-4.007,-3.943,-3.8673,-3.7936,-3.7229,-3.6429,-3.5656,-3.5622,-3.4945,-3.3508,-3.344,-3.2679,-3.119,-3.119,-3.119,-3.119,-3.119,-3.119,-3.119,-3.119,-3.119,-3.119,-3.119,-3.119,-3.119,-3.119,-3.119,-3.119,-3.119,-3.119,-3.119,-3.119,-3.119,-3.119,-3.119,-3.119,-3.119,-3.119,-3.119,-3.119,-3.119,-3.119,-3.119,-3.119,-3.119,-3.119,-3.119,-3.119,-3.1329,-3.1733,-3.147,-3.1312,-3.1733,-3.1435,-3.114,-3.119,-3.1157,-3.0989,-3.0663,-2.9726,-2.8629,-2.7473,-2.6918,-2.623,-2.5178,-2.6281,-2.6937,-2.6281,-2.7457,-2.7893,0.0,0.0,0.0,-2.7859,-2.7004,-2.6987,-2.801,-2.955,-3.1343,-3.3457,-3.4201,-3.4928,-3.5622,-3.6417,-3.6417,-3.5808,-3.6518,-3.6518,-3.596,-3.6586,-3.728,-3.8041,-3.8667,-3.9343,-4.0003,-4.0003,-4.0037,-4.007,-4.002,-4.0003,-4.0003,-4.007,-4.007,-4.007,-4.007,-4.007,-4.007,-4.007,-4.007,-4.007,-4.007,-4.007,-4.007,-4.007,-4.007,-4.007,-4.007,-3.943,-3.8673,-3.7936,-3.7229,-3.6429,-3.5656,-3.5622,-3.5182,-3.4252,-3.3694,-3.2679,-3.119,-3.119,-3.119,-3.119,-3.119,-3.119,-3.119,-3.119,-3.119,-3.119,-3.119,-3.119,-3.119,-3.119,-3.119,-3.119,-3.119,-3.119,-3.119,-3.119,-3.119,-3.119,-3.119,-3.119,-3.119,-3.119,-3.119,-3.119,-3.119,-3.119,-3.119,-3.119,-3.119,-3.119,-3.119,-3.119,-3.1329,-3.1733,-3.147,-3.1312,-3.1733,-3.1025,-3.0531,-3.1089,-3.0734,-3.0224,-2.9851,-2.9349,-2.8406,-2.6718,-2.6116,-2.5759,-2.5499,-2.6264,-2.6978,-2.7352,-2.7708,-2.8169,-2.8699,0.0,-2.854,-2.8202,-2.9856,-3.0713,-3.0395,-3.185,-3.3136,-3.4218,-3.4979,-3.5453,-3.5622,-3.6417,-3.6992,-3.7381,-3.755,-3.8142,-3.8971,-3.8041,-3.8058,-3.87,-3.8328,-3.8582,-3.9242,-3.9242,-3.958,-4.0003,-3.9462,-3.9242,-3.9174,-4.007,-4.007,-4.007,-4.007,-4.007,-4.007,-4.007,-4.007,-4.007,-4.007,-4.007,-4.007,-4.007,-4.007,-4.007,-4.007,-3.975,-3.9041,-3.7959,-3.7529,-3.6791,-3.5656,-3.5622,-3.5115,-3.4015,-3.3609,-3.2679,-3.119,-3.119,-3.119,-3.119,-3.119,-3.119,-3.119,-3.119,-3.119,-3.119,-3.119,-3.119,-3.119,-3.119,-3.119,-3.119,-3.119,-3.119,-3.119,-3.119,-3.119,-3.119,-3.119,-3.119,-3.119,-3.119,-3.119,-3.119,-3.119,-3.119,-3.119,-3.119,-3.119,-3.119,-3.119,-3.119,-3.1269,-3.1487,-3.1351,-3.1252,-3.147,-3.1028,-3.0734,-3.1123,-3.0598,-2.9912,-2.9366,-2.8543,-2.7487,-2.6113,-2.5751,-2.5744,-2.6065,-2.7385,-2.8416,-2.8822,-2.9786,-3.0455,-3.0714,-3.09,-3.0879,-3.0626,-3.2343,-3.2645,-3.1241,-3.2949,-3.4252,-3.5013,-3.5419,-3.5622,-3.5639,-3.6755,-3.733,-3.7398,-3.7753,-3.8142,-3.8531,-3.7736,-3.7821,-3.8481,-3.843,-3.8836,-3.9478,-3.9478,-3.9732,-3.9986,-3.9259,-3.8988,-3.8886,-4.007,-4.007,-4.007,-4.007,-4.007,-4.007,-4.007,-4.007,-4.007,-4.007,-4.007,-4.007,-4.007,-4.007,-4.007,-4.007,-4.007,-3.9525,-3.8174,-3.7843,-3.7154,-3.5853,-3.5673,-3.4928,-3.344,-3.3186,-3.2459,-3.119,-3.119,-3.119,-3.119,-3.119,-3.119,-3.119,-3.119,-3.119,-3.119,-3.119,-3.119,-3.119,-3.119,-3.119,-3.119,-3.119,-3.119,-3.119,-3.119,-3.119,-3.119,-3.119,-3.119,-3.119,-3.119,-3.119,-3.119,-3.119,-3.119,-3.119,-3.119,-3.119,-3.119,-3.119,-3.119,-3.119,-3.119,-3.1275,-3.1326,-3.1207,-3.1275,-3.1326,-3.1207,-3.0598,-2.9871,-2.911,-2.7706,-2.6437,-2.571,-2.571,-2.6048,-2.6776,-2.889,-3.0311,-3.0429,-3.2138,-3.3068,-3.2645,-3.3102,-3.3406,-3.3406,-3.4201,-3.3694,-3.1596,-3.3558,-3.4979,-3.556,-3.5622,-3.5622,-3.5639,-3.706,-3.7449,-3.6975,-3.7736,-3.7719,-3.711,-3.711,-3.7415,-3.7956,-3.8582,-3.9259,-3.9918,-3.9918,-3.9986,-3.9986,-3.9259,-3.892,-3.8717,-4.007,-4.007,-4.007,-4.007,-4.007,-4.007,-4.007,-4.007,-4.007,-4.007,-4.007,-4.007,-4.007,-4.007,-4.007,-4.007,-4.007,-3.9766,-3.8906,-3.7657,-3.6842,-3.661,-3.5983,-3.4928,-3.344,-3.2188,-3.1427,-3.119,-3.119,-3.119,-3.119,-3.119,-3.119,-3.119,-3.119,-3.119,-3.119,-3.119,-3.119,-3.119,-3.119,-3.119,-3.119,-3.119,-3.119,-3.119,-3.119,-3.119,-3.119,-3.119,-3.119,-3.119,-3.119,-3.119,-3.119,-3.119,-3.119,-3.119,-3.119,-3.119,-3.119,-3.119,-3.119,-3.119,-3.119,-3.1664,-3.1935,-3.1326,-3.1681,-3.1918,-3.1309,-3.0598,-2.9871,-2.911,-2.7706,-2.6437,-2.571,-2.6133,-2.681,-2.7554,-2.9651,-3.1258,-3.1884,-3.2256,-3.2916,-3.4066,-3.3694,-3.3406,-3.3406,-3.4709,-3.4709,-3.3119,-3.4607,-3.5504,-3.5622,-3.5622,-3.5622,-3.5639,-3.6518,-3.7229,-3.7753,-3.8481,-3.8768,-3.865,-3.865,-3.8362,-3.7922,-3.8024,-3.8514,-3.9157,-3.9157,-3.9529,-3.9986,-3.9259,-3.8599,-3.7973,-4.007,-4.007,-4.007,-4.007,-4.007,-4.007,-4.007,-4.007,-4.007,-4.007,-4.007,-4.007,-4.007,-4.007,-4.007,-4.007,-4.007,-3.98,-3.9057,-3.8014,-3.7211,-3.6814,-3.6011,-3.5115,-3.4015,-3.2544,-3.1782,-3.1782,-3.1376,-3.119,-3.119,-3.119,-3.119,-3.119,-3.119,-3.119,-3.119,-3.119,-3.119,-3.119,-3.119,-3.119,-3.119,-3.119,-3.119,-3.119,-3.119,-3.119,-3.119,-3.119,-3.119,-3.119,-3.119,-3.119,-3.119,-3.119,-3.119,-3.119,-3.119,-3.119,-3.119,-3.119,-3.119,-3.1292,-3.1681,-3.2036,-3.2307,-3.2374,-3.2662,-3.2662,-3.1918,-3.119,-3.0446,-2.9702,-2.796,-2.6725,-2.6793,-2.7097,-2.774,-2.8907,-3.1021,-3.2662,-3.3389,-3.3829,-3.4353,-3.5047,-3.4793,-3.459,-3.459,-3.525,-3.5318,-3.4624,-3.5267,-3.5622,-3.5622,-3.5622,-3.5622,-3.5639,-3.6823,-3.7347,-3.7347,-3.8481,-3.8565,-3.7804,-3.7804,-3.7601,-3.7297,-3.7297,-3.7736,-3.8447,-3.8836,-3.9191,-3.9462,-3.9123,-3.8531,-3.7855,-4.007,-4.007,-4.007,-4.007,-4.007,-4.007,-4.007,-4.007,-4.007,-4.007,-4.007,-4.007,-4.007,-4.007,-4.007,-4.007,-4.007,-3.9799,-3.9052,-3.832,-3.756,-3.6806,-3.5859,-3.5013,-3.4252,-3.2949,-3.2246,-3.2019,-3.1461,-3.119,-3.119,-3.119,-3.119,-3.119,-3.119,-3.119,-3.119,-3.119,-3.119,-3.119,-3.119,-3.119,-3.119,-3.119,-3.119,-3.119,-3.119,-3.119,-3.119,-3.119,-3.119,-3.119,-3.119,-3.119,-3.119,-3.119,-3.1309,-3.141,-3.1241,-3.1326,-3.1444,-3.1444,-3.1579,-3.185,-3.2408,-3.2679,-3.2916,-3.3322,-3.3541,-3.3423,-3.2679,-3.1935,-3.1258,-3.07,-2.8856,-2.7757,-2.8501,-2.8755,-2.9364,-3.0717,-3.2679,-3.4134,-3.4692,-3.5284,-3.5622,-3.5622,-3.5791,-3.5808,-3.5622,-3.5791,-3.5808,-3.5622,-3.5622,-3.5622,-3.5622,-3.5622,-3.5622,-3.5639,-3.6806,-3.7263,-3.7077,-3.8227,-3.8125,-3.706,-3.7229,-3.711,-3.6789,-3.6975,-3.7381,-3.7973,-3.8514,-3.8734,-3.8734,-3.8734,-3.8278,-3.7669,-4.007,-4.007,-4.007,-4.007,-4.007,-4.007,-4.007,-4.007,-4.007,-4.007,-4.007,-4.007,-4.007,-4.007,-4.007,-4.007,-4.007,-3.9799,-3.9052,-3.8326,-3.7577,-3.6814,-3.5355,-3.4235,-3.3508,-3.2696,-3.1952,-3.1275,-3.1224,-3.119,-3.119,-3.119,-3.119,-3.119,-3.119,-3.119,-3.119,-3.119,-3.119,-3.119,-3.119,-3.119,-3.119,-3.119,-3.119,-3.119,-3.119,-3.119,-3.119,-3.119,-3.119,-3.119,-3.119,-3.119,-3.119,-3.119,-3.1664,-3.2053,-3.1376,-3.1681,-3.2205,-3.2205,-3.273,-3.3254,-3.3322,-3.3846,-3.415,-3.3541,-3.3947,-3.4184,-3.3457,-3.2713,-3.2188,-3.2138,-3.0852,-3.0108,-3.0852,-3.1529,-3.2256,-3.3068,-3.4523,-3.5487,-3.5537,-3.5588,-3.5622,-3.5622,-3.6282,-3.6383,-3.5656,-3.6299,-3.6366,-3.5639,-3.5622,-3.5622,-3.5622,-3.5622,-3.5622,-3.5622,-3.574,-3.6502,-3.7821,-3.7939,-3.7922,-3.7872,-3.8531,-3.8058,-3.6823,-3.7533,-3.7855,-3.7922,-3.7973,-3.799,-3.799,-3.799,-3.7499,-3.6958,-4.007,-4.007,-4.007,-4.007,-4.007,-4.007,-4.007,-4.007,-4.007,-4.007,-4.007,-4.007,-4.007,-4.007,-4.007,-4.007,-4.007,-3.9563,-3.841,-3.8058,-3.733,-3.6118,-3.5514,-3.5064,-3.4793,-3.3592,-3.2848,-3.256,-3.1647,-3.119,-3.119,-3.119,-3.119,-3.119,-3.119,-3.119,-3.119,-3.119,-3.119,-3.119,-3.119,-3.119,-3.119,-3.119,-3.119,-3.119,-3.119,-3.119,-3.119,-3.119,-3.119,-3.119,-3.119,-3.1828,-3.257,-3.2568,-3.2763,-3.2916,-3.2645,-3.2763,-3.2983,-3.2983,-3.3186,-3.3525,-3.3981,-3.4303,-3.4539,-3.4742,-3.4996,-3.4962,-3.4218,-3.3846,-3.3491,-3.3051,-3.251,-3.2408,-3.3136,-3.3474,-3.3931,-3.4692,-3.5707,-3.6332,-3.6332,-3.6772,-3.7043,-3.7043,-3.7313,-3.7347,-3.7043,-3.7313,-3.7127,-3.6366,-3.6789,-3.6586,-3.5639,-3.5622,-3.5622,-3.5622,-3.6113,-3.6383,-3.6535,-3.7939,-3.8075,-3.7263,-3.8481,-3.8142,-3.684,-3.7601,-3.7635,-3.7297,-3.821,-3.8582,-3.8582,-3.8582,-3.8396,-3.8125,-4.007,-4.007,-4.007,-4.007,-4.007,-4.007,-4.007,-4.007,-4.007,-4.007,-4.007,-4.007,-4.007,-4.007,-4.007,-4.007,-4.007,-3.9546,-3.8328,-3.7804,-3.6975,-3.5673,-3.5622,-3.5402,-3.4928,-3.3931,-3.3186,-3.2713,-3.1698,-3.119,-3.119,-3.119,-3.119,-3.119,-3.119,-3.119,-3.119,-3.119,-3.119,-3.119,-3.119,-3.119,-3.119,-3.119,-3.119,-3.119,-3.119,-3.119,-3.119,-3.119,-3.119,-3.1207,-3.1179,-3.253,-3.4062,-3.3829,-3.3711,-3.3702,-3.4032,-3.41,-3.4049,-3.3812,-3.3931,-3.4235,-3.4726,-3.4844,-3.4996,-3.552,-3.5808,-3.5825,-3.5318,-3.5402,-3.5334,-3.459,-3.4658,-3.4912,-3.5165,-3.5605,-3.6011,-3.6299,-3.7009,-3.7381,-3.7161,-3.7601,-3.7905,-3.7905,-3.8125,-3.8261,-3.8261,-3.7804,-3.7313,-3.6806,-3.728,-3.6941,-3.5639,-3.5859,-3.5859,-3.5622,-3.6417,-3.662,-3.64,-3.8176,-3.843,-3.7533,-3.8548,-3.8278,-3.7161,-3.7702,-3.7601,-3.7246,-3.8261,-3.865,-3.865,-3.865,-3.865,-3.8616,-4.007,-4.007,-4.007,-4.007,-4.007,-4.007,-4.007,-4.007,-4.007,-4.007,-4.007,-4.007,-4.007,-4.007,-4.007,-4.007,-4.007,-3.9766,-3.9039,-3.7601,-3.6451,-3.5656,-3.5622,-3.4928,-3.344,-3.3406,-3.2679,-3.1207,-3.119,-3.119,-3.119,-3.119,-3.119,-3.119,-3.119,-3.119,-3.119,-3.119,-3.119,-3.119,-3.119,-3.119,-3.119,-3.119,-3.119,-3.119,-3.119,-3.119,-3.119,-3.119,-3.119,-3.1185,-3.1227,-3.326,-3.5471,-3.4754,-3.4361,-3.4428,-3.5341,-3.5639,-3.5436,-3.4692,-3.5064,-3.5622,-3.5622,-3.5622,-3.5622,-3.5622,-3.6231,-3.6772,-3.6789,-3.7398,-3.7669,-3.6907,-3.7432,-3.7652,-3.6907,-3.8058,-3.8717,-3.8007,-3.8548,-3.87,-3.799,-3.7922,-3.7922,-3.7922,-3.8599,-3.9005,-3.9005,-3.7601,-3.6806,-3.6789,-3.6806,-3.6417,-3.5639,-3.64,-3.64,-3.5639,-3.6417,-3.7178,-3.7939,-3.8667,-3.8988,-3.8988,-3.9005,-3.8582,-3.7922,-3.7922,-3.7922,-3.7922,-3.7922,-3.7922,-3.7922,-3.7922,-3.7922,-3.8024,-4.007,-4.007,-4.007,-4.007,-4.007,-4.007,-4.007,-4.007,-4.007,-4.007,-4.007,-4.007,-4.007,-4.007,-4.007,-4.007,-4.007,-3.9766,-3.9039,-3.8091,-3.7229,-3.6468,-3.591,-3.5165,-3.4184,-3.366,-3.2933,-3.1952,-3.1444,-3.119,-3.119,-3.119,-3.119,-3.119,-3.119,-3.119,-3.119,-3.119,-3.119,-3.119,-3.119,-3.119,-3.119,-3.119,-3.119,-3.119,-3.119,-3.119,-3.119,-3.119,-3.119,-3.1568,-3.3639,-3.4899,-3.5693,-3.6197,-3.5757,-3.5476,-3.6857,-3.6434,-3.5571,-3.5351,-3.5453,-3.5622,-3.5622,-3.5622,-3.5774,-3.6315,-3.662,-3.6941,-3.7483,-3.7753,-3.7838,-3.7601,-3.8193,-3.8599,-3.8362,-3.8717,-3.892,-3.87,-3.887,-3.8903,-3.8684,-3.914,-3.9428,-3.9428,-3.9631,-3.9749,-3.9749,-3.9326,-3.8616,-3.7601,-3.8565,-3.8244,-3.6451,-3.7195,-3.7195,-3.6451,-3.7212,-3.7686,-3.7939,-3.8667,-3.8988,-3.9022,-3.9529,-3.9343,-3.87,-3.9225,-3.914,-3.8717,-3.9225,-3.9428,-3.9377,-3.8853,-3.8988,-3.9326,-4.007,-4.007,-4.007,-4.007,-4.007,-4.007,-4.007,-4.007,-4.007,-4.007,-4.007,-4.007,-4.007,-4.007,-4.007,-4.007,-4.007,-3.9766,-3.9039,-3.8311,-3.7567,-3.6806,-3.6028,-3.5267,-3.4506,-3.4066,-3.3474,-3.273,-3.229,-3.207,-3.2053,-3.1765,-3.163,-3.1613,-3.1326,-3.119,-3.119,-3.119,-3.119,-3.119,-3.119,-3.119,-3.119,-3.119,-3.119,-3.119,-3.119,-3.119,-3.119,-3.119,-3.1213,-3.1729,-3.4668,-3.5583,-3.5705,-3.6356,-3.652,-3.665,-3.7293,-3.6789,-3.6146,-3.6451,-3.6062,-3.569,-3.6011,-3.6079,-3.6299,-3.706,-3.7449,-3.7804,-3.8261,-3.8565,-3.8667,-3.8379,-3.8937,-3.9326,-3.9039,-3.9242,-3.9428,-3.9428,-3.9428,-3.9428,-3.9428,-3.9817,-4.007,-4.007,-4.007,-4.007,-4.007,-3.98,-3.9242,-3.8362,-3.9191,-3.887,-3.7246,-3.8244,-3.8244,-3.7229,-3.7973,-3.8345,-3.8362,-3.9089,-3.9428,-3.9445,-3.9884,-3.9834,-3.9462,-3.9901,-3.9817,-3.9462,-3.9918,-4.007,-4.002,-3.958,-3.9698,-3.9952,-4.007,-4.007,-4.007,-4.007,-4.007,-4.007,-4.007,-4.007,-4.007,-4.007,-4.007,-4.007,-4.007,-4.007,-4.007,-4.007,-4.007,-3.9766,-3.9039,-3.8379,-3.7635,-3.6823,-3.6096,-3.5368,-3.4607,-3.4523,-3.4134,-3.3406,-3.3406,-3.3406,-3.3389,-3.2645,-3.2364,-3.2341,-3.1546,-3.1258,-3.1376,-3.1258,-3.1275,-3.1376,-3.1241,-3.1241,-3.1275,-3.1224,-3.1241,-3.1275,-3.1207,-3.1241,-3.1275,-3.1207,-3.1204,-3.17,-3.4669,-3.5581,-3.5577,-3.5594,-3.6695,-3.7775,-3.7136,-3.6924,-3.706,-3.7821,-3.6907,-3.6011,-3.6721,-3.6823,-3.7009,-3.7838,-3.8531,-3.9005,-3.9089,-3.9631,-3.9868,-3.9191,-3.9648,-3.9851,-3.9191,-3.9665,-4.007,-4.007,-4.007,-4.007,-4.007,-4.007,-4.007,-4.007,-4.007,-4.007,-4.007,-3.9445,-3.9056,-3.8988,-3.9056,-3.8734,-3.8024,-3.9394,-3.9377,-3.8024,-3.8751,-3.9089,-3.9106,-3.9766,-4.007,-4.007,-4.007,-4.007,-4.007,-4.007,-4.007,-4.007,-4.007,-4.007,-4.007,-4.007,-4.007,-4.007,-4.007,-4.007,-4.007,-4.007,-4.007,-4.007,-4.007,-4.007,-4.007,-4.007,-4.007,-4.007,-4.007,-4.007,-4.007,-4.007,-4.007,-3.9766,-3.9039,-3.8853,-3.8159,-3.684,-3.662,-3.6163,-3.5402,-3.4793,-3.4134,-3.3406,-3.3406,-3.3406,-3.3389,-3.2645,-3.2594,-3.3102,-3.1782,-3.1833,-3.2848,-3.1681,-3.1867,-3.2831,-3.1664,-3.1546,-3.1985,-3.141,-3.1546,-3.1968,-3.1393,-3.1562,-3.1952,-3.1376,-3.1204,-3.17,-3.4669,-3.5581,-3.5594,-3.5609,-3.6683,-3.7967,-3.8393,-3.8091,-3.7838,-3.8582,-3.8075,-3.7466,-3.7618,-3.7195,-3.7144,-3.8481,-3.8886,-3.9174,-3.9732,-3.9969,-4.002,-3.9868,-3.9969,-4.002,-3.9868,-3.9986,-4.007,-4.007,-4.007,-4.007,-4.007,-4.007,-4.007,-4.007,-4.007,-4.007,-4.007,-3.9935,-3.958,-3.9005,-3.9546,-3.9495,-3.8768,-3.9631,-3.9631,-3.8768,-3.9495,-3.9834,-3.9851,-4.0003,-4.007,-4.007,-4.007,-4.007,-4.007,-4.007,-4.007,-4.007,-4.007,-4.007,-4.007,-4.007,-4.007,-4.007,-4.007,-4.007,-4.007,-4.007,-4.007,-4.007,-4.007,-4.007,-4.007,-4.007,-4.007,-4.007,-4.007,-4.007,-4.007,-4.007,-4.007,-3.9918,-3.9529,-3.887,-3.8125,-3.7347,-3.662,-3.6045,-3.5622,-3.5233,-3.4844,-3.4455,-3.4455,-3.4455,-3.4438,-3.3677,-3.3541,-3.388,-3.2747,-3.2679,-3.3355,-3.2577,-3.2696,-3.3305,-3.2171,-3.1935,-3.2205,-3.1461,-3.1427,-3.1749,-3.1732,-3.1729,-3.1724,-3.1314,-3.1216,-3.1705,-3.4661,-3.5606,-3.5594,-3.5588,-3.6156,-3.7123,-3.841,-3.8514,-3.8432,-3.9309,-3.8954,-3.843,-3.843,-3.8125,-3.8159,-3.9276,-3.9512,-3.9631,-4.0003,-4.007,-4.007,-4.007,-4.007,-4.007,-4.007,-4.007,-4.007,-4.007,-4.007,-4.007,-4.007,-4.007,-4.007,-4.007,-4.007,-4.007,-4.007,-4.007,-3.9901,-3.9529,-3.9884,-3.9884,-3.9512,-3.9884,-3.9884,-3.9512,-3.9901,-4.007,-4.007,-4.007,-4.007,-4.007,-4.007,-4.007,-4.007,-4.007,-4.007,-4.007,-4.007,-4.007,-4.007,-4.007,-4.007,-4.007,-4.007,-4.007,-4.007,-4.007,-4.007,-4.007,-4.007,-4.007,-4.007,-4.007,-4.007,-4.007,-4.007,-4.007,-4.002,-3.9901,-4.0003,-3.9969,-3.9715,-3.87,-3.799,-3.7719,-3.6502,-3.5757,-3.5622,-3.5622,-3.5622,-3.5622,-3.5622,-3.5622,-3.5605,-3.4844,-3.4556,-3.4641,-3.3643,-3.3423,-3.3761,-3.3372,-3.344,-3.3711,-3.2831,-3.2476,-3.2408,-3.1799,-3.1579,-3.1664,-3.2256,-3.2085,-3.16,-3.16,-3.1739,-3.237,-3.4847,-3.5603,-3.5611,-3.5611,-3.5609,-3.6021,-3.7939,-3.865,-3.9074,-3.9884,-3.9631,-3.9174,-3.9174,-3.9089,-3.9191,-3.9935,-4.007,-4.007,-4.007,-4.007,-4.007,-4.007,-4.007,-4.007,-4.007,-4.007,-4.007,-4.007,-4.007,-4.007,-4.007,-4.007,-4.007,-4.007,-4.007,-4.007,-4.007,-4.007,-4.007,-4.007,-4.007,-4.007,-4.007,-4.007,-4.007,-4.007,-4.007,-4.007,-4.007,-4.007,-4.007,-4.007,-4.007,-4.007,-4.007,-4.007,-4.007,-4.007,-4.007,-4.007,-4.007,-4.007,-4.007,-4.007,-4.007,-4.007,-4.007,-4.007,-4.007,-4.007,-4.007,-4.007,-4.007,-4.007,-4.007,-4.007,-4.007,-4.007,-3.9817,-3.9191,-3.9715,-3.9546,-3.8278,-3.8616,-3.8278,-3.6992,-3.6738,-3.6315,-3.5639,-3.5622,-3.5622,-3.5622,-3.5622,-3.5622,-3.5605,-3.4844,-3.4844,-3.5368,-3.3339,-3.3508,-3.5199,-3.3254,-3.3541,-3.5199,-3.3812,-3.3254,-3.3237,-3.3136,-3.3102,-3.3119,-3.322,-3.3178,-3.3102,-3.3102,-3.3963,-3.5059,-3.546,-3.5599,-3.5614,-3.5614,-3.5626,-3.5935,-3.7549,-3.894,-3.9918,-4.0054,-4.0003,-3.9935,-3.9935,-3.9445,-3.9191,-3.9935,-4.007,-4.007,-4.007,-4.007,-4.007,-4.007,-4.007,-4.007,-4.007,-4.007,-4.007,-4.007,-4.007,-4.007,-4.007,-4.007,-4.007,-4.007,-4.007,-4.007,-4.007,-4.007,-4.007,-4.007,-4.007,-4.007,-4.007,-4.007,-4.007,-4.007,-4.007,-4.007,-4.007,-4.007,-4.007,-4.007,-4.007,-4.007,-4.007,-4.007,-4.007,-4.007,-4.007,-4.007,-4.007,-4.007,-4.007,-4.007,-3.8802,-3.8799,-3.8941,-3.9385,-3.9437,-3.9594,-4.002,-4.007,-4.007,-4.007,-4.007,-4.007,-4.007,-4.007,-3.9952,-3.9631,-3.9884,-3.98,-3.9157,-3.8667,-3.8278,-3.8024,-3.6806,-3.618,-3.6265,-3.5842,-3.5622,-3.5622,-3.5622,-3.5622,-3.556,-3.5284,-3.5301,-3.5571,-3.459,-3.4692,-3.5554,-3.4573,-3.4726,-3.552,-3.4455,-3.4015,-3.3964,-3.3558,-3.3406,-3.3457,-3.3736,-3.4158,-3.4641,-3.4641,-3.5081,-3.5915,-3.7556,-3.6962,-3.5602,-3.5602,-3.6804,-3.8248,-3.892,-3.9613,-4.007,-4.007,-4.007,-4.007,-4.007,-3.9834,-3.9698,-4.0003,-4.007,-4.007,-4.007,-4.007,-4.007,-4.007,-4.007,-4.007,-4.007,-4.007,-4.007,-4.007,-4.007,-4.007,-4.007,-4.007,-4.007,-4.007,-4.007,-4.007,-4.007,-4.007,-4.007,-4.007,-4.007,-4.007,-4.007,-4.007,-4.007,-4.007,-4.007,-4.007,-4.007,-4.007,-4.007,-4.007,-4.007,-4.007,-4.007,-4.007,-4.007,-4.007,-4.007,-4.007,-4.007,-4.007,-4.007,-4.007]}]]